Wetterdaten: Donnerstag, 13.12.2012
Datum Zeit Temp. Innen Temp. Aussen Temp. 2 +5cm Bl.Temp 1 Feuchte Auss Feuchte 2 BlattFeu 1 Luftdruck Regen Sonnenschein T Regendauer ET UV Solar Windben Empfang
13.12.2012 00:00 10,3 C -1,7 C -23,4 C -5,1 C 0,0 C 85 % 0 % 0 lf 1016,2 hPa 0,0 l/m 0 min 0 min 0,000 mm 0,0 UV-I 0 W/m 6,5 km/h (2 Bft) 0,00 %
13.12.2012 00:02 10,3 C -1,7 C -23,4 C -5,1 C 0,0 C 85 % 0 % 0 lf 1016,2 hPa 0,0 l/m 0 min 0 min 0,000 mm 0,0 UV-I 0 W/m 6,5 km/h (2 Bft) 0,00 %
13.12.2012 00:06 10,3 C -1,9 C -23,4 C -5,2 C 0,0 C 85 % 0 % 0 lf 1016,2 hPa 0,0 l/m 0 min 0 min 0,000 mm 0,0 UV-I 0 W/m 9,0 km/h (2 Bft) 0,00 %
13.12.2012 00:08 10,3 C -1,9 C -23,4 C -5,2 C 0,0 C 85 % 0 % 0 lf 1016,2 hPa 0,0 l/m 0 min 0 min 0,000 mm 0,0 UV-I 0 W/m 7,0 km/h (2 Bft) 0,00 %
13.12.2012 00:10 10,3 C -1,9 C -23,4 C -5,2 C 0,0 C 85 % 0 % 0 lf 1016,2 hPa 0,0 l/m 0 min 0 min 0,000 mm 0,0 UV-I 0 W/m 7,5 km/h (2 Bft) 0,00 %
13.12.2012 00:12 10,3 C -1,9 C 28,4 C -5,2 C 0,0 C 86 % 0 % 0 lf 1016,2 hPa 0,0 l/m 0 min 0 min 0,000 mm 0,0 UV-I 0 W/m 8,5 km/h (2 Bft) 0,00 %
13.12.2012 00:14 10,3 C -1,9 C -23,4 C -5,2 C 0,0 C 86 % 0 % 0 lf 1016,2 hPa 0,0 l/m 0 min 0 min 0,000 mm 0,0 UV-I 0 W/m 6,0 km/h (2 Bft) 0,00 %
13.12.2012 00:16 10,3 C -1,9 C -23,4 C -5,2 C 0,0 C 86 % 0 % 0 lf 1016,2 hPa 0,0 l/m 0 min 0 min 0,000 mm 0,0 UV-I 0 W/m 0,0 km/h (0 Bft) 0,00 %
13.12.2012 00:18 10,3 C -1,9 C -23,4 C -5,2 C 0,0 C 86 % 0 % 0 lf 1016,1 hPa 0,0 l/m 0 min 0 min 0,000 mm 0,0 UV-I 0 W/m 11,5 km/h (2 Bft) 0,00 %
13.12.2012 00:20 10,3 C -2,0 C -23,4 C -5,2 C 0,0 C 86 % 0 % 0 lf 1016,1 hPa 0,0 l/m 0 min 0 min 0,000 mm 0,0 UV-I 0 W/m 5,0 km/h (1 Bft) 0,00 %
13.12.2012 00:22 10,3 C -2,0 C -23,4 C -5,2 C 0,0 C 86 % 0 % 0 lf 1016,1 hPa 0,0 l/m 0 min 0 min 0,000 mm 0,0 UV-I 0 W/m 5,5 km/h (1 Bft) 0,00 %
13.12.2012 00:24 10,3 C -2,0 C -23,4 C -5,1 C 0,0 C 86 % 0 % 0 lf 1016,1 hPa 0,0 l/m 0 min 0 min 0,000 mm 0,0 UV-I 0 W/m 7,0 km/h (2 Bft) 0,00 %
13.12.2012 00:26 10,3 C -2,0 C -23,4 C -5,2 C 0,0 C 86 % 0 % 0 lf 1016,1 hPa 0,0 l/m 0 min 0 min 0,000 mm 0,0 UV-I 0 W/m 0,0 km/h (0 Bft) 0,00 %
13.12.2012 00:28 10,3 C -1,9 C -23,4 C -5,1 C 0,0 C 86 % 0 % 0 lf 1016,1 hPa 0,0 l/m 0 min 0 min 0,000 mm 0,0 UV-I 0 W/m 12,5 km/h (3 Bft) 0,00 %
13.12.2012 00:30 10,3 C -2,1 C 28,4 C -5,2 C 0,0 C 86 % 0 % 0 lf 1016,1 hPa 0,0 l/m 0 min 0 min 0,000 mm 0,0 UV-I 0 W/m 0,0 km/h (0 Bft) 0,00 %
13.12.2012 00:32 10,3 C -2,1 C -23,4 C -5,2 C 0,0 C 86 % 0 % 0 lf 1016,1 hPa 0,0 l/m 0 min 0 min 0,000 mm 0,0 UV-I 0 W/m 10,5 km/h (2 Bft) 0,00 %
13.12.2012 00:34 10,3 C -2,1 C -23,4 C -5,2 C 0,0 C 86 % 0 % 0 lf 1016,1 hPa 0,0 l/m 0 min 0 min 0,000 mm 0,0 UV-I 0 W/m 9,0 km/h (2 Bft) 0,00 %
13.12.2012 00:36 10,3 C -2,1 C -23,4 C -5,2 C 0,0 C 86 % 0 % 0 lf 1016,1 hPa 0,0 l/m 0 min 0 min 0,000 mm 0,0 UV-I 0 W/m 7,0 km/h (2 Bft) 0,00 %
13.12.2012 00:38 10,3 C -2,1 C -23,4 C -5,2 C 0,0 C 87 % 0 % 0 lf 1015,9 hPa 0,0 l/m 0 min 0 min 0,000 mm 0,0 UV-I 0 W/m 9,0 km/h (2 Bft) 0,00 %
13.12.2012 00:40 10,3 C -2,1 C -23,4 C -5,1 C 0,0 C 87 % 0 % 0 lf 1015,9 hPa 0,0 l/m 0 min 0 min 0,000 mm 0,0 UV-I 0 W/m 6,0 km/h (2 Bft) 0,00 %
13.12.2012 00:42 10,3 C -2,1 C -23,4 C -5,1 C 0,0 C 87 % 0 % 0 lf 1015,9 hPa 0,0 l/m 0 min 0 min 0,000 mm 0,0 UV-I 0 W/m 8,0 km/h (2 Bft) 0,00 %
13.12.2012 00:44 10,3 C -2,1 C -23,4 C -5,1 C 0,0 C 87 % 0 % 0 lf 1015,9 hPa 0,0 l/m 0 min 0 min 0,000 mm 0,0 UV-I 0 W/m 5,5 km/h (1 Bft) 0,00 %
13.12.2012 00:46 10,3 C -2,1 C -23,4 C -5,1 C 0,0 C 87 % 0 % 0 lf 1015,9 hPa 0,0 l/m 0 min 0 min 0,000 mm 0,0 UV-I 0 W/m 0,0 km/h (0 Bft) 0,00 %
13.12.2012 00:48 10,3 C -2,1 C -23,4 C -5,1 C 0,0 C 87 % 0 % 0 lf 1015,9 hPa 0,0 l/m 0 min 0 min 0,000 mm 0,0 UV-I 0 W/m 7,5 km/h (2 Bft) 0,00 %
13.12.2012 00:50 10,3 C -2,1 C -23,4 C -5,1 C 0,0 C 87 % 0 % 0 lf 1015,9 hPa 0,0 l/m 0 min 0 min 0,000 mm 0,0 UV-I 0 W/m 5,0 km/h (1 Bft) 0,00 %
13.12.2012 00:52 10,3 C -2,1 C -23,4 C -5,1 C 0,0 C 87 % 0 % 0 lf 1015,9 hPa 0,0 l/m 0 min 0 min 0,000 mm 0,0 UV-I 0 W/m 0,0 km/h (0 Bft) 0,00 %
13.12.2012 00:54 10,3 C -2,1 C -23,4 C -5,1 C 0,0 C 87 % 0 % 0 lf 1015,9 hPa 0,0 l/m 0 min 0 min 0,000 mm 0,0 UV-I 0 W/m 0,0 km/h (0 Bft) 0,00 %
13.12.2012 00:56 10,3 C -2,2 C -23,4 C -5,1 C 0,0 C 87 % 0 % 0 lf 1015,9 hPa 0,0 l/m 0 min 0 min 0,000 mm 0,0 UV-I 0 W/m 5,0 km/h (1 Bft) 0,00 %
13.12.2012 00:58 10,3 C -2,2 C -23,4 C -5,1 C 0,0 C 87 % 0 % 0 lf 1015,7 hPa 0,0 l/m 0 min 0 min 0,000 mm 0,0 UV-I 0 W/m 8,5 km/h (2 Bft) 0,00 %
13.12.2012 01:00 10,3 C -2,1 C -23,4 C -4,9 C 0,0 C 87 % 0 % 0 lf 1015,7 hPa 0,0 l/m 0 min 0 min 0,000 mm 0,0 UV-I 0 W/m 12,0 km/h (2 Bft) 0,00 %
13.12.2012 01:02 10,3 C -2,1 C -23,4 C -5,1 C 0,0 C 87 % 0 % 0 lf 1015,7 hPa 0,0 l/m 0 min 0 min 0,000 mm 0,0 UV-I 0 W/m 0,0 km/h (0 Bft) 0,00 %
13.12.2012 01:04 10,3 C -2,1 C -23,4 C -5,1 C 0,0 C 87 % 0 % 0 lf 1015,7 hPa 0,0 l/m 0 min 0 min 0,000 mm 0,0 UV-I 0 W/m 0,0 km/h (0 Bft) 0,00 %
13.12.2012 01:06 10,3 C -2,1 C -23,4 C -4,9 C 0,0 C 87 % 0 % 0 lf 1015,7 hPa 0,0 l/m 0 min 0 min 0,000 mm 0,0 UV-I 0 W/m 5,5 km/h (1 Bft) 0,00 %
13.12.2012 01:08 10,3 C -2,1 C -23,4 C -5,1 C 0,0 C 87 % 0 % 0 lf 1015,7 hPa 0,0 l/m 0 min 0 min 0,000 mm 0,0 UV-I 0 W/m 8,0 km/h (2 Bft) 0,00 %
13.12.2012 01:10 10,3 C -2,1 C -23,4 C -4,9 C 0,0 C 87 % 0 % 0 lf 1015,7 hPa 0,0 l/m 0 min 0 min 0,000 mm 0,0 UV-I 0 W/m 6,0 km/h (2 Bft) 0,00 %
13.12.2012 01:12 10,3 C -2,1 C -23,4 C -4,9 C 0,0 C 87 % 0 % 0 lf 1015,7 hPa 0,0 l/m 0 min 0 min 0,000 mm 0,0 UV-I 0 W/m 8,0 km/h (2 Bft) 0,00 %
13.12.2012 01:14 10,3 C -2,1 C -23,4 C -4,9 C 0,0 C 87 % 0 % 0 lf 1015,7 hPa 0,0 l/m 0 min 0 min 0,000 mm 0,0 UV-I 0 W/m 5,5 km/h (1 Bft) 0,00 %
13.12.2012 01:16 10,3 C -2,1 C -23,4 C -5,0 C 0,0 C 87 % 0 % 0 lf 1015,7 hPa 0,0 l/m 0 min 0 min 0,000 mm 0,0 UV-I 0 W/m 0,0 km/h (0 Bft) 0,00 %
13.12.2012 01:18 10,3 C -2,1 C -23,4 C -5,0 C 0,0 C 87 % 0 % 0 lf 1015,5 hPa 0,0 l/m 0 min 0 min 0,000 mm 0,0 UV-I 0 W/m 5,5 km/h (1 Bft) 0,00 %
13.12.2012 01:20 10,3 C -2,1 C -23,4 C -4,9 C 0,0 C 87 % 0 % 0 lf 1015,5 hPa 0,0 l/m 0 min 0 min 0,000 mm 0,0 UV-I 0 W/m 8,0 km/h (2 Bft) 0,00 %
13.12.2012 01:22 10,1 C -2,1 C -23,4 C -5,0 C 0,0 C 87 % 0 % 0 lf 1015,5 hPa 0,0 l/m 0 min 0 min 0,000 mm 0,0 UV-I 0 W/m 5,5 km/h (1 Bft) 0,00 %
13.12.2012 01:24 10,3 C -2,3 C -23,4 C -4,9 C 0,0 C 87 % 0 % 0 lf 1015,5 hPa 0,0 l/m 0 min 0 min 0,000 mm 0,0 UV-I 0 W/m 6,5 km/h (2 Bft) 0,00 %
13.12.2012 01:26 10,3 C -2,1 C -23,4 C -4,9 C 0,0 C 87 % 0 % 0 lf 1015,5 hPa 0,0 l/m 0 min 0 min 0,000 mm 0,0 UV-I 0 W/m 0,0 km/h (0 Bft) 0,00 %
13.12.2012 01:28 10,3 C -2,1 C -23,4 C -4,9 C 0,0 C 87 % 0 % 0 lf 1015,5 hPa 0,0 l/m 0 min 0 min 0,000 mm 0,0 UV-I 0 W/m 0,0 km/h (0 Bft) 0,00 %
13.12.2012 01:30 10,3 C -2,3 C -23,4 C -4,9 C 0,0 C 87 % 0 % 0 lf 1015,5 hPa 0,0 l/m 0 min 0 min 0,000 mm 0,0 UV-I 0 W/m 5,5 km/h (1 Bft) 0,00 %
13.12.2012 01:32 10,3 C -2,3 C -23,4 C -4,9 C 0,0 C 87 % 0 % 0 lf 1015,5 hPa 0,0 l/m 0 min 0 min 0,000 mm 0,0 UV-I 0 W/m 0,0 km/h (0 Bft) 0,00 %
13.12.2012 01:34 10,3 C -2,3 C -23,4 C -4,7 C 0,0 C 88 % 0 % 0 lf 1015,5 hPa 0,0 l/m 0 min 0 min 0,000 mm 0,0 UV-I 0 W/m 6,5 km/h (2 Bft) 0,00 %
13.12.2012 01:36 10,3 C -2,3 C -23,4 C -4,7 C 0,0 C 87 % 0 % 0 lf 1015,5 hPa 0,0 l/m 0 min 0 min 0,000 mm 0,0 UV-I 0 W/m 0,0 km/h (0 Bft) 0,00 %
13.12.2012 01:38 10,1 C -2,3 C -23,4 C -4,7 C 0,0 C 88 % 0 % 0 lf 1015,1 hPa 0,0 l/m 0 min 0 min 0,000 mm 0,0 UV-I 0 W/m 5,0 km/h (1 Bft) 0,00 %
13.12.2012 01:40 10,3 C -2,3 C -23,4 C -4,8 C 0,0 C 88 % 0 % 0 lf 1015,1 hPa 0,0 l/m 0 min 0 min 0,000 mm 0,0 UV-I 0 W/m 0,0 km/h (0 Bft) 0,00 %
13.12.2012 01:42 10,3 C -2,3 C -23,4 C -4,8 C 0,0 C 88 % 0 % 0 lf 1015,1 hPa 0,0 l/m 0 min 0 min 0,000 mm 0,0 UV-I 0 W/m 7,0 km/h (2 Bft) 0,00 %
13.12.2012 01:44 10,3 C -2,3 C -23,4 C -4,7 C 0,0 C 88 % 0 % 0 lf 1015,1 hPa 0,0 l/m 0 min 0 min 0,000 mm 0,0 UV-I 0 W/m 6,0 km/h (2 Bft) 0,00 %
13.12.2012 01:46 10,3 C -2,3 C -23,4 C -4,7 C 0,0 C 88 % 0 % 0 lf 1015,1 hPa 0,0 l/m 0 min 0 min 0,000 mm 0,0 UV-I 0 W/m 6,0 km/h (2 Bft) 0,00 %
13.12.2012 01:48 10,3 C -2,3 C -23,4 C -4,7 C 0,0 C 88 % 0 % 0 lf 1015,1 hPa 0,0 l/m 0 min 0 min 0,000 mm 0,0 UV-I 0 W/m 0,0 km/h (0 Bft) 0,00 %
13.12.2012 01:50 10,3 C -2,3 C -23,4 C -4,5 C 0,0 C 88 % 0 % 0 lf 1015,1 hPa 0,0 l/m 0 min 0 min 0,000 mm 0,0 UV-I 0 W/m 5,5 km/h (1 Bft) 0,00 %
13.12.2012 01:52 10,3 C -2,3 C -23,4 C -4,5 C 0,0 C 88 % 0 % 0 lf 1015,1 hPa 0,0 l/m 0 min 0 min 0,000 mm 0,0 UV-I 0 W/m 0,0 km/h (0 Bft) 0,00 %
13.12.2012 01:54 10,3 C -2,3 C -23,4 C -4,5 C 0,0 C 88 % 0 % 0 lf 1015,1 hPa 0,0 l/m 0 min 0 min 0,000 mm 0,0 UV-I 0 W/m 7,0 km/h (2 Bft) 0,00 %
13.12.2012 01:56 10,3 C -2,3 C -23,4 C -4,5 C 0,0 C 88 % 0 % 0 lf 1015,1 hPa 0,0 l/m 0 min 0 min 0,000 mm 0,0 UV-I 0 W/m 6,5 km/h (2 Bft) 0,00 %
13.12.2012 01:58 10,3 C -2,3 C -23,4 C -4,5 C 0,0 C 88 % 0 % 0 lf 1014,8 hPa 0,0 l/m 0 min 0 min 0,000 mm 0,0 UV-I 0 W/m 0,0 km/h (0 Bft) 0,00 %
13.12.2012 02:00 10,3 C -2,3 C -23,4 C -4,5 C 0,0 C 88 % 0 % 0 lf 1014,8 hPa 0,0 l/m 0 min 0 min 0,000 mm 0,0 UV-I 0 W/m 0,0 km/h (0 Bft) 0,00 %
13.12.2012 02:02 10,3 C -2,3 C -23,4 C -4,5 C 0,0 C 88 % 0 % 0 lf 1014,8 hPa 0,0 l/m 0 min 0 min 0,000 mm 0,0 UV-I 0 W/m 5,0 km/h (1 Bft) 0,00 %
13.12.2012 02:04 10,3 C -2,3 C -23,4 C -4,5 C 0,0 C 88 % 0 % 0 lf 1014,8 hPa 0,0 l/m 0 min 0 min 0,000 mm 0,0 UV-I 0 W/m 0,0 km/h (0 Bft) 0,00 %
13.12.2012 02:06 10,1 C -2,3 C -23,3 C -4,5 C 0,0 C 88 % 0 % 0 lf 1014,8 hPa 0,0 l/m 0 min 0 min 0,000 mm 0,0 UV-I 0 W/m 0,0 km/h (0 Bft) 0,00 %
13.12.2012 02:08 10,3 C -2,1 C -23,4 C -4,4 C 0,0 C 88 % 0 % 0 lf 1014,8 hPa 0,0 l/m 0 min 0 min 0,000 mm 0,0 UV-I 0 W/m 5,5 km/h (1 Bft) 0,00 %
13.12.2012 02:10 10,3 C -2,1 C -23,4 C -4,4 C 0,0 C 88 % 0 % 0 lf 1014,8 hPa 0,0 l/m 0 min 0 min 0,000 mm 0,0 UV-I 0 W/m 0,0 km/h (0 Bft) 0,00 %
13.12.2012 02:12 10,1 C -2,1 C -23,4 C -4,4 C 0,0 C 88 % 0 % 0 lf 1014,8 hPa 0,0 l/m 0 min 0 min 0,000 mm 0,0 UV-I 0 W/m 16,0 km/h (3 Bft) 0,00 %
13.12.2012 02:14 10,3 C -2,2 C -23,4 C -4,3 C 0,0 C 88 % 0 % 0 lf 1014,8 hPa 0,0 l/m 0 min 0 min 0,000 mm 0,0 UV-I 0 W/m 10,0 km/h (2 Bft) 0,00 %
13.12.2012 02:16 10,3 C -2,1 C -23,4 C -4,3 C 0,0 C 88 % 0 % 0 lf 1014,8 hPa 0,0 l/m 0 min 0 min 0,000 mm 0,0 UV-I 0 W/m 8,0 km/h (2 Bft) 0,00 %
13.12.2012 02:18 10,3 C -2,1 C -23,4 C -4,3 C 0,0 C 88 % 0 % 0 lf 1014,8 hPa 0,0 l/m 0 min 0 min 0,000 mm 0,0 UV-I 0 W/m 16,0 km/h (3 Bft) 0,00 %
13.12.2012 02:20 10,1 C -2,1 C -23,4 C -4,3 C 0,0 C 88 % 0 % 0 lf 1014,8 hPa 0,0 l/m 0 min 0 min 0,000 mm 0,0 UV-I 0 W/m 9,0 km/h (2 Bft) 0,00 %
13.12.2012 02:22 10,3 C -2,1 C -23,4 C -4,3 C 0,0 C 88 % 0 % 0 lf 1014,8 hPa 0,0 l/m 0 min 0 min 0,000 mm 0,0 UV-I 0 W/m 7,5 km/h (2 Bft) 0,00 %
13.12.2012 02:24 10,1 C -2,1 C -23,4 C -4,3 C 0,0 C 88 % 0 % 0 lf 1014,8 hPa 0,0 l/m 0 min 0 min 0,000 mm 0,0 UV-I 0 W/m 8,5 km/h (2 Bft) 0,00 %
13.12.2012 02:26 10,1 C -2,1 C -23,4 C -4,3 C 0,0 C 88 % 0 % 0 lf 1014,8 hPa 0,0 l/m 0 min 0 min 0,000 mm 0,0 UV-I 0 W/m 0,0 km/h (0 Bft) 0,00 %
13.12.2012 02:28 10,1 C -2,1 C -23,4 C -4,3 C 0,0 C 88 % 0 % 0 lf 1014,8 hPa 0,0 l/m 0 min 0 min 0,000 mm 0,0 UV-I 0 W/m 11,5 km/h (2 Bft) 0,00 %
13.12.2012 02:30 10,3 C -2,1 C -23,4 C -4,3 C 0,0 C 88 % 0 % 0 lf 1014,8 hPa 0,0 l/m 0 min 0 min 0,000 mm 0,0 UV-I 0 W/m 7,5 km/h (2 Bft) 0,00 %
13.12.2012 02:32 10,1 C -2,1 C -23,4 C -4,3 C 0,0 C 88 % 0 % 0 lf 1014,8 hPa 0,0 l/m 0 min 0 min 0,000 mm 0,0 UV-I 0 W/m 5,0 km/h (1 Bft) 0,00 %
13.12.2012 02:34 10,3 C -2,1 C -23,4 C -4,3 C 0,0 C 88 % 0 % 0 lf 1014,8 hPa 0,0 l/m 0 min 0 min 0,000 mm 0,0 UV-I 0 W/m 9,0 km/h (2 Bft) 0,00 %
13.12.2012 02:36 10,3 C -2,1 C -23,4 C -4,3 C 0,0 C 88 % 0 % 0 lf 1014,8 hPa 0,0 l/m 0 min 0 min 0,000 mm 0,0 UV-I 0 W/m 10,5 km/h (2 Bft) 0,00 %
13.12.2012 02:38 10,3 C -2,1 C -23,4 C -4,3 C 0,0 C 88 % 0 % 0 lf 1014,8 hPa 0,0 l/m 0 min 0 min 0,000 mm 0,0 UV-I 0 W/m 11,0 km/h (2 Bft) 0,00 %
13.12.2012 02:40 10,1 C -2,1 C -23,4 C -4,3 C 0,0 C 88 % 0 % 0 lf 1014,8 hPa 0,0 l/m 0 min 0 min 0,000 mm 0,0 UV-I 0 W/m 6,5 km/h (2 Bft) 0,00 %
13.12.2012 02:42 10,3 C -2,1 C -23,4 C -4,3 C 0,0 C 88 % 0 % 0 lf 1014,8 hPa 0,0 l/m 0 min 0 min 0,000 mm 0,0 UV-I 0 W/m 9,0 km/h (2 Bft) 0,00 %
13.12.2012 02:44 10,3 C -2,1 C -23,3 C -4,4 C 0,0 C 88 % 0 % 0 lf 1014,8 hPa 0,0 l/m 0 min 0 min 0,000 mm 0,0 UV-I 0 W/m 9,0 km/h (2 Bft) 0,00 %
13.12.2012 02:46 10,3 C -2,1 C -23,4 C -4,4 C 0,0 C 88 % 0 % 0 lf 1014,8 hPa 0,0 l/m 0 min 0 min 0,000 mm 0,0 UV-I 0 W/m 14,0 km/h (3 Bft) 0,00 %
13.12.2012 02:48 10,3 C -2,1 C -23,4 C -4,4 C 0,0 C 88 % 0 % 0 lf 1014,8 hPa 0,0 l/m 0 min 0 min 0,000 mm 0,0 UV-I 0 W/m 7,0 km/h (2 Bft) 0,00 %
13.12.2012 02:50 10,1 C -2,1 C -23,4 C -4,4 C 0,0 C 88 % 0 % 0 lf 1014,8 hPa 0,0 l/m 0 min 0 min 0,000 mm 0,0 UV-I 0 W/m 20,1 km/h (4 Bft) 0,00 %
13.12.2012 02:52 10,3 C -2,1 C -23,4 C -4,4 C 0,0 C 88 % 0 % 0 lf 1014,8 hPa 0,0 l/m 0 min 0 min 0,000 mm 0,0 UV-I 0 W/m 5,5 km/h (1 Bft) 0,00 %
13.12.2012 02:54 10,3 C -2,1 C -23,4 C -4,3 C 0,0 C 88 % 0 % 0 lf 1014,8 hPa 0,0 l/m 0 min 0 min 0,000 mm 0,0 UV-I 0 W/m 6,0 km/h (2 Bft) 0,00 %
13.12.2012 02:56 10,3 C -2,1 C -23,4 C -4,3 C 0,0 C 88 % 0 % 0 lf 1014,8 hPa 0,0 l/m 0 min 0 min 0,000 mm 0,0 UV-I 0 W/m 5,5 km/h (1 Bft) 0,00 %
13.12.2012 02:58 10,1 C -2,1 C -23,4 C -4,5 C 0,0 C 88 % 0 % 0 lf 1014,3 hPa 0,0 l/m 0 min 0 min 0,000 mm 0,0 UV-I 0 W/m 20,1 km/h (4 Bft) 0,00 %
13.12.2012 03:00 10,3 C -2,1 C -23,4 C -4,5 C 0,0 C 88 % 0 % 0 lf 1014,3 hPa 0,0 l/m 0 min 0 min 0,000 mm 0,0 UV-I 0 W/m 9,5 km/h (2 Bft) 0,00 %
13.12.2012 03:02 10,3 C -2,1 C -23,4 C -4,3 C 0,0 C 88 % 0 % 0 lf 1014,3 hPa 0,0 l/m 0 min 0 min 0,000 mm 0,0 UV-I 0 W/m 8,5 km/h (2 Bft) 0,00 %
13.12.2012 03:05 10,3 C -2,1 C -23,4 C -4,5 C 0,0 C 88 % 0 % 0 lf 1014,3 hPa 0,0 l/m 0 min 0 min 0,000 mm 0,0 UV-I 0 W/m 10,0 km/h (2 Bft) 0,00 %
13.12.2012 03:08 10,1 C -2,1 C -23,4 C -4,4 C 0,0 C 88 % 0 % 0 lf 1014,3 hPa 0,0 l/m 0 min 0 min 0,000 mm 0,0 UV-I 0 W/m 10,0 km/h (2 Bft) 0,00 %
13.12.2012 03:10 10,1 C -2,1 C -23,4 C -4,3 C 0,0 C 88 % 0 % 0 lf 1014,3 hPa 0,0 l/m 0 min 0 min 0,000 mm 0,0 UV-I 0 W/m 5,5 km/h (1 Bft) 0,00 %
13.12.2012 03:12 10,3 C -2,1 C -23,4 C -4,5 C 0,0 C 88 % 0 % 0 lf 1014,3 hPa 0,0 l/m 0 min 0 min 0,000 mm 0,0 UV-I 0 W/m 0,0 km/h (0 Bft) 0,00 %
13.12.2012 03:14 10,3 C -2,1 C -23,4 C -4,5 C 0,0 C 88 % 0 % 0 lf 1014,3 hPa 0,0 l/m 0 min 0 min 0,000 mm 0,0 UV-I 0 W/m 6,0 km/h (2 Bft) 0,00 %
13.12.2012 03:16 10,3 C -2,1 C -23,4 C -4,4 C 0,0 C 88 % 0 % 0 lf 1014,3 hPa 0,0 l/m 0 min 0 min 0,000 mm 0,0 UV-I 0 W/m 6,0 km/h (2 Bft) 0,00 %
13.12.2012 03:18 10,1 C -2,1 C -23,4 C -4,3 C 0,0 C 88 % 0 % 0 lf 1014,0 hPa 0,0 l/m 0 min 0 min 0,000 mm 0,0 UV-I 0 W/m 0,0 km/h (0 Bft) 0,00 %
13.12.2012 03:20 10,1 C -2,1 C -23,4 C -4,3 C 0,0 C 88 % 0 % 0 lf 1014,0 hPa 0,0 l/m 0 min 0 min 0,000 mm 0,0 UV-I 0 W/m 5,0 km/h (1 Bft) 0,00 %
13.12.2012 03:22 10,1 C -2,1 C -23,4 C -4,5 C 0,0 C 88 % 0 % 0 lf 1014,0 hPa 0,0 l/m 0 min 0 min 0,000 mm 0,0 UV-I 0 W/m 0,0 km/h (0 Bft) 0,00 %
13.12.2012 03:24 10,1 C -2,1 C -23,4 C -4,5 C 0,0 C 88 % 0 % 0 lf 1014,0 hPa 0,0 l/m 0 min 0 min 0,000 mm 0,0 UV-I 0 W/m 7,0 km/h (2 Bft) 0,00 %
13.12.2012 03:26 10,1 C -2,1 C -23,4 C -4,5 C 0,0 C 88 % 0 % 0 lf 1014,0 hPa 0,0 l/m 0 min 0 min 0,000 mm 0,0 UV-I 0 W/m 0,0 km/h (0 Bft) 0,00 %
13.12.2012 03:28 10,1 C -2,1 C -23,4 C -4,5 C 0,0 C 88 % 0 % 0 lf 1014,0 hPa 0,0 l/m 0 min 0 min 0,000 mm 0,0 UV-I 0 W/m 0,0 km/h (0 Bft) 0,00 %
13.12.2012 03:30 10,1 C -2,1 C -23,4 C -4,5 C 0,0 C 88 % 0 % 0 lf 1014,0 hPa 0,0 l/m 0 min 0 min 0,000 mm 0,0 UV-I 0 W/m 0,0 km/h (0 Bft) 0,00 %
13.12.2012 03:32 10,1 C -2,1 C -23,4 C -4,5 C 0,0 C 88 % 0 % 0 lf 1014,0 hPa 0,0 l/m 0 min 0 min 0,000 mm 0,0 UV-I 0 W/m 8,0 km/h (2 Bft) 0,00 %
13.12.2012 03:34 10,3 C -2,1 C -23,4 C -4,5 C 0,0 C 88 % 0 % 0 lf 1014,0 hPa 0,0 l/m 0 min 0 min 0,000 mm 0,0 UV-I 0 W/m 8,0 km/h (2 Bft) 0,00 %
13.12.2012 03:36 10,2 C -2,1 C -23,4 C -4,5 C 0,0 C 88 % 0 % 0 lf 1014,0 hPa 0,0 l/m 0 min 0 min 0,000 mm 0,0 UV-I 0 W/m 5,0 km/h (1 Bft) 0,00 %
13.12.2012 03:38 10,1 C -2,1 C -23,4 C -4,5 C 0,0 C 88 % 0 % 0 lf 1014,0 hPa 0,0 l/m 0 min 0 min 0,000 mm 0,0 UV-I 0 W/m 5,0 km/h (1 Bft) 0,00 %
13.12.2012 03:40 10,1 C -2,1 C -23,4 C -4,5 C 0,0 C 88 % 0 % 0 lf 1014,0 hPa 0,0 l/m 0 min 0 min 0,000 mm 0,0 UV-I 0 W/m 5,0 km/h (1 Bft) 0,00 %
13.12.2012 03:42 10,1 C -2,1 C -23,4 C -4,6 C 0,0 C 88 % 0 % 0 lf 1014,0 hPa 0,0 l/m 0 min 0 min 0,000 mm 0,0 UV-I 0 W/m 9,5 km/h (2 Bft) 0,00 %
13.12.2012 03:44 10,1 C -2,1 C -23,4 C -4,5 C 0,0 C 88 % 0 % 0 lf 1014,0 hPa 0,0 l/m 0 min 0 min 0,000 mm 0,0 UV-I 0 W/m 6,5 km/h (2 Bft) 0,00 %
13.12.2012 03:46 10,1 C -2,2 C -23,4 C -4,5 C 0,0 C 89 % 0 % 0 lf 1014,0 hPa 0,0 l/m 0 min 0 min 0,000 mm 0,0 UV-I 0 W/m 5,0 km/h (1 Bft) 0,00 %
13.12.2012 03:48 10,3 C -2,1 C -23,4 C -4,5 C 0,0 C 88 % 0 % 0 lf 1014,0 hPa 0,0 l/m 0 min 0 min 0,000 mm 0,0 UV-I 0 W/m 9,5 km/h (2 Bft) 0,00 %
13.12.2012 03:50 10,1 C -2,1 C -23,4 C -4,5 C 0,0 C 88 % 0 % 0 lf 1014,0 hPa 0,0 l/m 0 min 0 min 0,000 mm 0,0 UV-I 0 W/m 9,5 km/h (2 Bft) 0,00 %
13.12.2012 03:52 10,3 C -2,1 C -23,4 C -4,5 C 0,0 C 89 % 0 % 0 lf 1014,0 hPa 0,0 l/m 0 min 0 min 0,000 mm 0,0 UV-I 0 W/m 5,0 km/h (1 Bft) 0,00 %
13.12.2012 03:54 10,1 C -2,2 C -23,4 C -4,5 C 0,0 C 88 % 0 % 0 lf 1014,0 hPa 0,0 l/m 0 min 0 min 0,000 mm 0,0 UV-I 0 W/m 9,0 km/h (2 Bft) 0,00 %
13.12.2012 03:56 10,1 C -2,1 C -23,4 C -4,5 C 0,0 C 89 % 0 % 0 lf 1014,0 hPa 0,0 l/m 0 min 0 min 0,000 mm 0,0 UV-I 0 W/m 10,5 km/h (2 Bft) 0,00 %
13.12.2012 03:58 10,1 C -2,1 C -23,4 C -4,5 C 0,0 C 89 % 0 % 0 lf 1013,2 hPa 0,0 l/m 0 min 0 min 0,000 mm 0,0 UV-I 0 W/m 5,5 km/h (1 Bft) 0,00 %
13.12.2012 04:00 10,3 C -2,1 C -23,4 C -4,5 C 0,0 C 89 % 0 % 0 lf 1013,2 hPa 0,0 l/m 0 min 0 min 0,000 mm 0,0 UV-I 0 W/m 7,5 km/h (2 Bft) 0,00 %
13.12.2012 04:02 10,1 C -2,2 C -23,4 C -4,5 C 0,0 C 88 % 0 % 0 lf 1013,2 hPa 0,0 l/m 0 min 0 min 0,000 mm 0,0 UV-I 0 W/m 10,0 km/h (2 Bft) 0,00 %
13.12.2012 04:04 10,1 C -2,1 C -23,4 C -4,3 C 0,0 C 89 % 0 % 0 lf 1013,2 hPa 0,0 l/m 0 min 0 min 0,000 mm 0,0 UV-I 0 W/m 15,0 km/h (3 Bft) 0,00 %
13.12.2012 04:06 10,2 C -2,2 C -23,4 C -4,5 C 0,0 C 88 % 0 % 0 lf 1013,2 hPa 0,0 l/m 0 min 0 min 0,000 mm 0,0 UV-I 0 W/m 11,5 km/h (2 Bft) 0,00 %
13.12.2012 04:08 10,2 C -2,2 C -23,4 C -4,5 C 0,0 C 88 % 0 % 0 lf 1013,2 hPa 0,0 l/m 0 min 0 min 0,000 mm 0,0 UV-I 0 W/m 11,5 km/h (2 Bft) 0,00 %
13.12.2012 04:10 10,2 C -2,2 C -23,4 C -4,3 C 0,0 C 88 % 0 % 0 lf 1013,2 hPa 0,0 l/m 0 min 0 min 0,000 mm 0,0 UV-I 0 W/m 14,0 km/h (3 Bft) 0,00 %
13.12.2012 04:12 10,2 C -2,2 C -23,4 C -4,3 C 0,0 C 88 % 0 % 0 lf 1013,2 hPa 0,0 l/m 0 min 0 min 0,000 mm 0,0 UV-I 0 W/m 0,0 km/h (0 Bft) 0,00 %
13.12.2012 04:14 10,2 C -2,1 C -23,4 C -4,5 C 0,0 C 88 % 0 % 0 lf 1013,2 hPa 0,0 l/m 0 min 0 min 0,000 mm 0,0 UV-I 0 W/m 9,0 km/h (2 Bft) 0,00 %
13.12.2012 04:16 10,2 C -2,2 C -23,4 C -4,3 C 0,0 C 88 % 0 % 0 lf 1013,2 hPa 0,0 l/m 0 min 0 min 0,000 mm 0,0 UV-I 0 W/m 9,5 km/h (2 Bft) 0,00 %
13.12.2012 04:18 10,2 C -2,1 C -23,4 C -4,4 C 0,0 C 88 % 0 % 0 lf 1013,2 hPa 0,0 l/m 0 min 0 min 0,000 mm 0,0 UV-I 0 W/m 21,6 km/h (4 Bft) 0,00 %
13.12.2012 04:20 10,2 C -2,2 C -23,4 C -4,4 C 0,0 C 88 % 0 % 0 lf 1013,2 hPa 0,0 l/m 0 min 0 min 0,000 mm 0,0 UV-I 0 W/m 7,5 km/h (2 Bft) 0,00 %
13.12.2012 04:22 10,2 C -2,2 C -23,4 C -4,4 C 0,0 C 88 % 0 % 0 lf 1013,2 hPa 0,0 l/m 0 min 0 min 0,000 mm 0,0 UV-I 0 W/m 0,0 km/h (0 Bft) 0,00 %
13.12.2012 04:24 10,2 C -2,2 C -23,4 C -4,4 C 0,0 C 88 % 0 % 0 lf 1013,2 hPa 0,0 l/m 0 min 0 min 0,000 mm 0,0 UV-I 0 W/m 0,0 km/h (0 Bft) 0,00 %
13.12.2012 04:26 10,2 C -2,1 C -23,4 C -4,4 C 0,0 C 88 % 0 % 0 lf 1013,2 hPa 0,0 l/m 0 min 0 min 0,000 mm 0,0 UV-I 0 W/m 0,0 km/h (0 Bft) 0,00 %
13.12.2012 04:28 10,2 C -2,1 C -23,4 C -4,3 C 0,0 C 88 % 0 % 0 lf 1013,2 hPa 0,0 l/m 0 min 0 min 0,000 mm 0,0 UV-I 0 W/m 0,0 km/h (0 Bft) 0,00 %
13.12.2012 04:30 10,2 C -2,1 C -23,4 C -4,3 C 0,0 C 88 % 0 % 0 lf 1013,2 hPa 0,0 l/m 0 min 0 min 0,000 mm 0,0 UV-I 0 W/m 6,0 km/h (2 Bft) 0,00 %
13.12.2012 04:32 10,2 C -2,1 C -23,4 C -4,3 C 0,0 C 88 % 0 % 0 lf 1013,2 hPa 0,0 l/m 0 min 0 min 0,000 mm 0,0 UV-I 0 W/m 6,0 km/h (2 Bft) 0,00 %
13.12.2012 04:34 10,2 C -2,1 C -23,4 C -4,3 C 0,0 C 88 % 0 % 0 lf 1013,2 hPa 0,0 l/m 0 min 0 min 0,000 mm 0,0 UV-I 0 W/m 6,0 km/h (2 Bft) 0,00 %
13.12.2012 04:36 10,1 C -2,1 C -23,4 C -4,3 C 0,0 C 88 % 0 % 0 lf 1013,2 hPa 0,0 l/m 0 min 0 min 0,000 mm 0,0 UV-I 0 W/m 11,5 km/h (2 Bft) 0,00 %
13.12.2012 04:38 10,2 C -2,1 C -23,4 C -4,3 C 0,0 C 88 % 0 % 0 lf 1013,0 hPa 0,0 l/m 0 min 0 min 0,000 mm 0,0 UV-I 0 W/m 0,0 km/h (0 Bft) 0,00 %
13.12.2012 04:40 10,2 C -2,1 C -23,4 C -4,1 C 0,0 C 88 % 0 % 0 lf 1013,0 hPa 0,0 l/m 0 min 0 min 0,000 mm 0,0 UV-I 0 W/m 5,0 km/h (1 Bft) 0,00 %
13.12.2012 04:42 10,2 C -2,1 C -23,4 C -4,1 C 0,0 C 88 % 0 % 0 lf 1013,0 hPa 0,0 l/m 0 min 0 min 0,000 mm 0,0 UV-I 0 W/m 0,0 km/h (0 Bft) 0,00 %
13.12.2012 04:44 10,1 C -2,1 C -23,4 C -4,2 C 0,0 C 88 % 0 % 0 lf 1013,0 hPa 0,0 l/m 0 min 0 min 0,000 mm 0,0 UV-I 0 W/m 0,0 km/h (0 Bft) 0,00 %
13.12.2012 04:46 10,2 C -2,1 C -23,4 C -4,1 C 0,0 C 88 % 0 % 0 lf 1013,0 hPa 0,0 l/m 0 min 0 min 0,000 mm 0,0 UV-I 0 W/m 0,0 km/h (0 Bft) 0,00 %
13.12.2012 04:48 10,1 C -2,1 C -23,4 C -4,1 C 0,0 C 88 % 0 % 0 lf 1013,0 hPa 0,0 l/m 0 min 0 min 0,000 mm 0,0 UV-I 0 W/m 6,5 km/h (2 Bft) 0,00 %
13.12.2012 04:50 10,1 C -2,1 C -23,4 C -4,1 C 0,0 C 88 % 0 % 0 lf 1013,0 hPa 0,0 l/m 0 min 0 min 0,000 mm 0,0 UV-I 0 W/m 0,0 km/h (0 Bft) 0,00 %
13.12.2012 04:52 10,2 C -2,1 C -23,4 C -4,1 C 0,0 C 88 % 0 % 0 lf 1013,0 hPa 0,0 l/m 0 min 0 min 0,000 mm 0,0 UV-I 0 W/m 9,0 km/h (2 Bft) 0,00 %
13.12.2012 04:54 10,2 C -2,1 C -23,4 C -4,2 C 0,0 C 88 % 0 % 0 lf 1013,0 hPa 0,0 l/m 0 min 0 min 0,000 mm 0,0 UV-I 0 W/m 8,5 km/h (2 Bft) 0,00 %
13.12.2012 04:56 10,2 C -2,1 C -23,4 C -4,2 C 0,0 C 88 % 0 % 0 lf 1013,0 hPa 0,0 l/m 0 min 0 min 0,000 mm 0,0 UV-I 0 W/m 8,5 km/h (2 Bft) 0,00 %
13.12.2012 04:58 10,1 C -2,1 C -23,4 C -4,1 C 0,0 C 88 % 0 % 0 lf 1012,5 hPa 0,0 l/m 0 min 0 min 0,000 mm 0,0 UV-I 0 W/m 0,0 km/h (0 Bft) 0,00 %
13.12.2012 05:00 10,1 C -2,1 C -23,4 C -4,1 C 0,0 C 88 % 0 % 0 lf 1012,5 hPa 0,0 l/m 0 min 0 min 0,000 mm 0,0 UV-I 0 W/m 0,0 km/h (0 Bft) 0,00 %
13.12.2012 05:02 10,1 C -2,1 C -23,4 C -4,1 C 0,0 C 88 % 0 % 0 lf 1012,5 hPa 0,0 l/m 0 min 0 min 0,000 mm 0,0 UV-I 0 W/m 0,0 km/h (0 Bft) 0,00 %
13.12.2012 05:04 10,2 C -2,1 C -23,4 C -4,1 C 0,0 C 88 % 0 % 0 lf 1012,5 hPa 0,0 l/m 0 min 0 min 0,000 mm 0,0 UV-I 0 W/m 0,0 km/h (0 Bft) 0,00 %
13.12.2012 05:06 10,1 C -2,1 C -23,4 C -4,1 C 0,0 C 88 % 0 % 0 lf 1012,5 hPa 0,0 l/m 0 min 0 min 0,000 mm 0,0 UV-I 0 W/m 8,5 km/h (2 Bft) 0,00 %
13.12.2012 05:08 10,2 C -2,1 C -23,4 C -4,1 C 0,0 C 88 % 0 % 0 lf 1012,5 hPa 0,0 l/m 0 min 0 min 0,000 mm 0,0 UV-I 0 W/m 8,5 km/h (2 Bft) 0,00 %
13.12.2012 05:10 10,1 C -2,1 C -23,4 C -4,1 C 0,0 C 88 % 0 % 0 lf 1012,5 hPa 0,0 l/m 0 min 0 min 0,000 mm 0,0 UV-I 0 W/m 9,0 km/h (2 Bft) 0,00 %
13.12.2012 05:12 10,2 C -2,1 C -23,4 C -4,1 C 0,0 C 88 % 0 % 0 lf 1012,5 hPa 0,0 l/m 0 min 0 min 0,000 mm 0,0 UV-I 0 W/m 8,5 km/h (2 Bft) 0,00 %
13.12.2012 05:14 10,1 C -2,1 C -23,4 C -4,1 C 0,0 C 88 % 0 % 0 lf 1012,5 hPa 0,0 l/m 0 min 0 min 0,000 mm 0,0 UV-I 0 W/m 5,0 km/h (1 Bft) 0,00 %
13.12.2012 05:16 10,2 C -2,1 C -23,4 C -4,1 C 0,0 C 88 % 0 % 0 lf 1012,5 hPa 0,0 l/m 0 min 0 min 0,000 mm 0,0 UV-I 0 W/m 11,0 km/h (2 Bft) 0,00 %
13.12.2012 05:18 10,1 C -2,1 C -23,4 C -4,1 C 0,0 C 88 % 0 % 0 lf 1012,4 hPa 0,0 l/m 0 min 0 min 0,000 mm 0,0 UV-I 0 W/m 0,0 km/h (0 Bft) 0,00 %
13.12.2012 05:20 10,1 C -2,1 C -23,4 C -4,1 C 0,0 C 87 % 0 % 0 lf 1012,4 hPa 0,0 l/m 0 min 0 min 0,000 mm 0,0 UV-I 0 W/m 9,0 km/h (2 Bft) 0,00 %
13.12.2012 05:22 10,1 C -2,1 C -23,4 C -4,1 C 0,0 C 87 % 0 % 0 lf 1012,4 hPa 0,0 l/m 0 min 0 min 0,000 mm 0,0 UV-I 0 W/m 7,5 km/h (2 Bft) 0,00 %
13.12.2012 05:24 10,1 C -2,1 C -23,4 C -4,1 C 0,0 C 87 % 0 % 0 lf 1012,4 hPa 0,0 l/m 0 min 0 min 0,000 mm 0,0 UV-I 0 W/m 9,0 km/h (2 Bft) 0,00 %
13.12.2012 05:26 10,1 C -2,1 C -23,4 C -4,1 C 0,0 C 87 % 0 % 0 lf 1012,4 hPa 0,0 l/m 0 min 0 min 0,000 mm 0,0 UV-I 0 W/m 0,0 km/h (0 Bft) 0,00 %
13.12.2012 05:28 10,1 C -2,1 C -23,4 C -4,3 C 0,0 C 87 % 0 % 0 lf 1012,4 hPa 0,0 l/m 0 min 0 min 0,000 mm 0,0 UV-I 0 W/m 0,0 km/h (0 Bft) 0,00 %
13.12.2012 05:30 10,2 C -2,1 C -23,4 C -4,3 C 0,0 C 87 % 0 % 0 lf 1012,4 hPa 0,0 l/m 0 min 0 min 0,000 mm 0,0 UV-I 0 W/m 10,5 km/h (2 Bft) 0,00 %
13.12.2012 05:32 10,1 C -2,1 C -23,4 C -4,3 C 0,0 C 87 % 0 % 0 lf 1012,4 hPa 0,0 l/m 0 min 0 min 0,000 mm 0,0 UV-I 0 W/m 0,0 km/h (0 Bft) 0,00 %
13.12.2012 05:34 10,1 C -2,1 C -23,4 C -4,4 C 0,0 C 87 % 0 % 0 lf 1012,4 hPa 0,0 l/m 0 min 0 min 0,000 mm 0,0 UV-I 0 W/m 8,0 km/h (2 Bft) 0,00 %
13.12.2012 05:36 10,1 C -2,1 C -23,4 C -4,5 C 0,0 C 87 % 0 % 0 lf 1012,4 hPa 0,0 l/m 0 min 0 min 0,000 mm 0,0 UV-I 0 W/m 6,0 km/h (2 Bft) 0,00 %
13.12.2012 05:38 10,2 C -2,1 C -23,4 C -4,5 C 0,0 C 87 % 0 % 0 lf 1011,9 hPa 0,0 l/m 0 min 0 min 0,000 mm 0,0 UV-I 0 W/m 0,0 km/h (0 Bft) 0,00 %
13.12.2012 05:40 10,2 C -2,1 C -23,4 C -4,5 C 0,0 C 87 % 0 % 0 lf 1011,9 hPa 0,0 l/m 0 min 0 min 0,000 mm 0,0 UV-I 0 W/m 0,0 km/h (0 Bft) 0,00 %
13.12.2012 05:42 10,2 C -2,1 C -23,4 C -4,5 C 0,0 C 87 % 0 % 0 lf 1011,9 hPa 0,0 l/m 0 min 0 min 0,000 mm 0,0 UV-I 0 W/m 0,0 km/h (0 Bft) 0,00 %
13.12.2012 05:44 10,2 C -2,1 C -23,4 C -4,6 C 0,0 C 87 % 0 % 0 lf 1011,9 hPa 0,0 l/m 0 min 0 min 0,000 mm 0,0 UV-I 0 W/m 5,5 km/h (1 Bft) 0,00 %
13.12.2012 05:46 10,2 C -2,1 C -23,4 C -4,5 C 0,0 C 87 % 0 % 0 lf 1011,9 hPa 0,0 l/m 0 min 0 min 0,000 mm 0,0 UV-I 0 W/m 7,0 km/h (2 Bft) 0,00 %
13.12.2012 05:48 10,2 C -2,1 C -23,4 C -4,5 C 0,0 C 87 % 0 % 0 lf 1011,9 hPa 0,0 l/m 0 min 0 min 0,000 mm 0,0 UV-I 0 W/m 5,0 km/h (1 Bft) 0,00 %
13.12.2012 05:50 10,2 C -2,1 C -23,4 C -4,6 C 0,0 C 87 % 0 % 0 lf 1011,9 hPa 0,0 l/m 0 min 0 min 0,000 mm 0,0 UV-I 0 W/m 9,0 km/h (2 Bft) 0,00 %
13.12.2012 05:52 10,2 C -2,1 C -23,4 C -4,6 C 0,0 C 87 % 0 % 0 lf 1011,9 hPa 0,0 l/m 0 min 0 min 0,000 mm 0,0 UV-I 0 W/m 5,5 km/h (1 Bft) 0,00 %
13.12.2012 05:54 10,2 C -2,1 C -23,4 C -4,5 C 0,0 C 87 % 0 % 0 lf 1011,9 hPa 0,0 l/m 0 min 0 min 0,000 mm 0,0 UV-I 0 W/m 0,0 km/h (0 Bft) 0,00 %
13.12.2012 05:56 10,2 C -2,1 C -23,4 C -4,5 C 0,0 C 87 % 0 % 0 lf 1011,9 hPa 0,0 l/m 0 min 0 min 0,000 mm 0,0 UV-I 0 W/m 0,0 km/h (0 Bft) 0,00 %
13.12.2012 05:58 10,2 C -2,1 C -23,4 C -4,5 C 0,0 C 87 % 0 % 0 lf 1011,8 hPa 0,0 l/m 0 min 0 min 0,000 mm 0,0 UV-I 0 W/m 8,0 km/h (2 Bft) 0,00 %
13.12.2012 06:00 10,2 C -2,1 C -23,4 C -4,5 C 0,0 C 87 % 0 % 0 lf 1011,8 hPa 0,0 l/m 0 min 0 min 0,000 mm 0,0 UV-I 0 W/m 0,0 km/h (0 Bft) 0,00 %
13.12.2012 06:02 10,2 C -2,1 C -23,4 C -4,5 C 0,0 C 87 % 0 % 0 lf 1011,8 hPa 0,0 l/m 0 min 0 min 0,000 mm 0,0 UV-I 0 W/m 14,5 km/h (3 Bft) 0,00 %
13.12.2012 06:04 10,2 C -2,1 C -23,4 C -4,5 C 0,0 C 86 % 0 % 0 lf 1011,8 hPa 0,0 l/m 0 min 0 min 0,000 mm 0,0 UV-I 0 W/m 19,1 km/h (3 Bft) 0,00 %
13.12.2012 06:06 10,2 C -2,1 C -23,4 C -4,5 C 0,0 C 86 % 0 % 0 lf 1011,8 hPa 0,0 l/m 0 min 0 min 0,000 mm 0,0 UV-I 0 W/m 19,1 km/h (3 Bft) 0,00 %
13.12.2012 06:08 10,2 C -2,1 C -23,4 C -4,5 C 0,0 C 86 % 0 % 0 lf 1011,8 hPa 0,0 l/m 0 min 0 min 0,000 mm 0,0 UV-I 0 W/m 0,0 km/h (0 Bft) 0,00 %
13.12.2012 06:10 10,2 C -2,1 C -23,4 C -4,5 C 0,0 C 86 % 0 % 0 lf 1011,8 hPa 0,0 l/m 0 min 0 min 0,000 mm 0,0 UV-I 0 W/m 13,5 km/h (3 Bft) 0,00 %
13.12.2012 06:12 10,2 C -2,1 C -23,4 C -4,5 C 0,0 C 86 % 0 % 0 lf 1011,8 hPa 0,0 l/m 0 min 0 min 0,000 mm 0,0 UV-I 0 W/m 5,5 km/h (1 Bft) 0,00 %
13.12.2012 06:14 10,2 C -2,1 C -23,4 C -4,5 C 0,0 C 86 % 0 % 0 lf 1011,8 hPa 0,0 l/m 0 min 0 min 0,000 mm 0,0 UV-I 0 W/m 6,0 km/h (2 Bft) 0,00 %
13.12.2012 06:16 10,2 C -2,1 C -23,4 C -4,5 C 0,0 C 86 % 0 % 0 lf 1011,8 hPa 0,0 l/m 0 min 0 min 0,000 mm 0,0 UV-I 0 W/m 6,0 km/h (2 Bft) 0,00 %
13.12.2012 06:18 10,2 C -2,1 C -23,4 C -4,5 C 0,0 C 86 % 0 % 0 lf 1011,7 hPa 0,0 l/m 0 min 0 min 0,000 mm 0,0 UV-I 0 W/m 6,0 km/h (2 Bft) 0,00 %
13.12.2012 06:20 10,2 C -2,1 C -23,4 C -4,5 C 0,0 C 86 % 0 % 0 lf 1011,7 hPa 0,0 l/m 0 min 0 min 0,000 mm 0,0 UV-I 0 W/m 7,5 km/h (2 Bft) 0,00 %
13.12.2012 06:22 10,2 C -2,1 C -23,4 C -4,5 C 0,0 C 86 % 0 % 0 lf 1011,7 hPa 0,0 l/m 0 min 0 min 0,000 mm 0,0 UV-I 0 W/m 8,0 km/h (2 Bft) 0,00 %
13.12.2012 06:24 10,2 C -2,1 C -23,4 C -4,5 C 0,0 C 86 % 0 % 0 lf 1011,7 hPa 0,0 l/m 0 min 0 min 0,000 mm 0,0 UV-I 0 W/m 8,0 km/h (2 Bft) 0,00 %
13.12.2012 06:26 10,2 C -2,1 C -23,4 C -4,5 C 0,0 C 86 % 0 % 0 lf 1011,7 hPa 0,0 l/m 0 min 0 min 0,000 mm 0,0 UV-I 0 W/m 0,0 km/h (0 Bft) 0,00 %
13.12.2012 06:28 10,2 C -2,1 C -23,4 C -4,5 C 0,0 C 85 % 0 % 0 lf 1011,7 hPa 0,0 l/m 0 min 0 min 0,000 mm 0,0 UV-I 0 W/m 8,5 km/h (2 Bft) 0,00 %
13.12.2012 06:30 10,2 C -2,1 C -23,4 C -4,5 C 0,0 C 85 % 0 % 0 lf 1011,7 hPa 0,0 l/m 0 min 0 min 0,000 mm 0,0 UV-I 0 W/m 8,5 km/h (2 Bft) 0,00 %
13.12.2012 06:32 10,2 C -2,1 C -23,4 C -4,4 C 0,0 C 85 % 0 % 0 lf 1011,7 hPa 0,0 l/m 0 min 0 min 0,000 mm 0,0 UV-I 0 W/m 5,5 km/h (1 Bft) 0,00 %
13.12.2012 06:34 10,2 C -2,1 C -23,4 C -4,4 C 0,0 C 85 % 0 % 0 lf 1011,7 hPa 0,0 l/m 0 min 0 min 0,000 mm 0,0 UV-I 0 W/m 5,0 km/h (1 Bft) 0,00 %
13.12.2012 06:36 10,2 C -2,1 C -23,4 C -4,4 C 0,0 C 85 % 0 % 0 lf 1011,7 hPa 0,0 l/m 0 min 0 min 0,000 mm 0,0 UV-I 0 W/m 0,0 km/h (0 Bft) 0,00 %
13.12.2012 06:38 10,2 C -2,1 C -23,4 C -4,4 C 0,0 C 85 % 0 % 0 lf 1010,9 hPa 0,0 l/m 0 min 0 min 0,000 mm 0,0 UV-I 0 W/m 5,5 km/h (1 Bft) 0,00 %
13.12.2012 06:40 10,2 C -2,1 C -23,4 C -4,4 C 0,0 C 85 % 0 % 0 lf 1010,9 hPa 0,0 l/m 0 min 0 min 0,000 mm 0,0 UV-I 0 W/m 7,5 km/h (2 Bft) 0,00 %
13.12.2012 06:42 10,2 C -2,1 C -23,4 C -4,4 C 0,0 C 85 % 0 % 0 lf 1010,9 hPa 0,0 l/m 0 min 0 min 0,000 mm 0,0 UV-I 0 W/m 7,0 km/h (2 Bft) 0,00 %
13.12.2012 06:44 10,2 C -2,1 C -23,3 C -4,4 C 0,0 C 85 % 0 % 0 lf 1010,9 hPa 0,0 l/m 0 min 0 min 0,000 mm 0,0 UV-I 0 W/m 8,5 km/h (2 Bft) 0,00 %
13.12.2012 06:46 10,2 C -2,1 C -23,4 C -4,4 C 0,0 C 85 % 0 % 0 lf 1010,9 hPa 0,0 l/m 0 min 0 min 0,000 mm 0,0 UV-I 0 W/m 0,0 km/h (0 Bft) 0,00 %
13.12.2012 06:48 10,2 C -2,1 C -23,3 C -4,4 C 0,0 C 85 % 0 % 0 lf 1010,9 hPa 0,0 l/m 0 min 0 min 0,000 mm 0,0 UV-I 0 W/m 14,0 km/h (3 Bft) 0,00 %
13.12.2012 06:50 10,2 C -2,1 C -23,4 C -4,3 C 0,0 C 85 % 0 % 0 lf 1010,9 hPa 0,0 l/m 0 min 0 min 0,000 mm 0,0 UV-I 0 W/m 7,0 km/h (2 Bft) 0,00 %
13.12.2012 06:52 10,2 C -1,9 C -23,4 C -4,4 C 0,0 C 85 % 0 % 0 lf 1010,9 hPa 0,0 l/m 0 min 0 min 0,000 mm 0,0 UV-I 0 W/m 7,0 km/h (2 Bft) 0,00 %
13.12.2012 06:54 10,2 C -2,1 C -23,4 C -4,4 C 0,0 C 85 % 0 % 0 lf 1010,9 hPa 0,0 l/m 0 min 0 min 0,000 mm 0,0 UV-I 0 W/m 10,5 km/h (2 Bft) 0,00 %
13.12.2012 06:56 10,2 C -1,9 C -23,4 C -4,3 C 0,0 C 85 % 0 % 0 lf 1010,9 hPa 0,0 l/m 0 min 0 min 0,000 mm 0,0 UV-I 0 W/m 11,0 km/h (2 Bft) 0,00 %
13.12.2012 06:58 10,2 C -1,9 C -23,4 C -4,3 C 0,0 C 85 % 0 % 0 lf 1010,9 hPa 0,0 l/m 0 min 0 min 0,000 mm 0,0 UV-I 0 W/m 16,0 km/h (3 Bft) 0,00 %
13.12.2012 07:00 10,2 C -1,9 C -23,3 C -4,3 C 0,0 C 85 % 0 % 0 lf 1010,9 hPa 0,0 l/m 0 min 0 min 0,000 mm 0,0 UV-I 0 W/m 0,0 km/h (0 Bft) 0,00 %
13.12.2012 07:02 10,2 C -2,1 C -23,4 C -4,3 C 0,0 C 84 % 0 % 0 lf 1010,9 hPa 0,0 l/m 0 min 0 min 0,000 mm 0,0 UV-I 0 W/m 14,0 km/h (3 Bft) 0,00 %
13.12.2012 07:04 10,2 C -1,9 C -23,4 C -4,3 C 0,0 C 84 % 0 % 0 lf 1010,9 hPa 0,0 l/m 0 min 0 min 0,000 mm 0,0 UV-I 0 W/m 9,0 km/h (2 Bft) 0,00 %
13.12.2012 07:06 10,2 C -2,0 C -23,4 C -4,3 C 0,0 C 84 % 0 % 0 lf 1010,9 hPa 0,0 l/m 0 min 0 min 0,000 mm 0,0 UV-I 0 W/m 14,5 km/h (3 Bft) 0,00 %
13.12.2012 07:08 10,2 C -1,9 C -23,4 C -4,3 C 0,0 C 84 % 0 % 0 lf 1010,9 hPa 0,0 l/m 0 min 0 min 0,000 mm 0,0 UV-I 0 W/m 16,6 km/h (3 Bft) 0,00 %
13.12.2012 07:10 10,1 C -2,0 C -23,4 C -4,3 C 0,0 C 84 % 0 % 0 lf 1010,9 hPa 0,0 l/m 0 min 0 min 0,000 mm 0,0 UV-I 0 W/m 12,5 km/h (3 Bft) 0,00 %
13.12.2012 07:12 10,1 C -2,0 C -23,4 C -4,3 C 0,0 C 84 % 0 % 0 lf 1010,9 hPa 0,0 l/m 0 min 0 min 0,000 mm 0,0 UV-I 0 W/m 12,5 km/h (3 Bft) 0,00 %
13.12.2012 07:14 10,1 C -2,0 C -23,4 C -4,3 C 0,0 C 83 % 0 % 0 lf 1010,9 hPa 0,0 l/m 0 min 0 min 0,000 mm 0,0 UV-I 0 W/m 12,5 km/h (3 Bft) 0,00 %
13.12.2012 07:16 10,1 C -2,0 C -23,4 C -4,3 C 0,0 C 83 % 0 % 0 lf 1010,9 hPa 0,0 l/m 0 min 0 min 0,000 mm 0,0 UV-I 0 W/m 13,5 km/h (3 Bft) 0,00 %
13.12.2012 07:18 10,1 C -2,0 C -23,4 C -4,3 C 0,0 C 83 % 0 % 0 lf 1010,8 hPa 0,0 l/m 0 min 0 min 0,000 mm 0,0 UV-I 0 W/m 6,0 km/h (2 Bft) 0,00 %
13.12.2012 07:20 10,1 C -2,0 C -23,4 C -4,3 C 0,0 C 83 % 0 % 0 lf 1010,8 hPa 0,0 l/m 0 min 0 min 0,000 mm 0,0 UV-I 0 W/m 16,0 km/h (3 Bft) 0,00 %
13.12.2012 07:22 10,1 C -2,0 C -23,4 C -4,3 C 0,0 C 83 % 0 % 0 lf 1010,8 hPa 0,0 l/m 0 min 0 min 0,000 mm 0,0 UV-I 0 W/m 15,0 km/h (3 Bft) 0,00 %
13.12.2012 07:24 10,1 C -2,0 C -23,4 C -4,3 C 0,0 C 83 % 0 % 0 lf 1010,8 hPa 0,0 l/m 0 min 0 min 0,000 mm 0,0 UV-I 0 W/m 12,5 km/h (3 Bft) 0,00 %
13.12.2012 07:26 10,1 C -2,0 C -23,4 C -4,3 C 0,0 C 83 % 0 % 0 lf 1010,8 hPa 0,0 l/m 0 min 0 min 0,000 mm 0,0 UV-I 0 W/m 11,5 km/h (2 Bft) 0,00 %
13.12.2012 07:28 10,1 C -2,0 C -23,4 C -4,3 C 0,0 C 82 % 0 % 0 lf 1010,8 hPa 0,0 l/m 0 min 0 min 0,000 mm 0,0 UV-I 0 W/m 22,1 km/h (4 Bft) 0,00 %
13.12.2012 07:30 10,1 C -2,0 C -23,3 C -4,3 C 0,0 C 82 % 0 % 0 lf 1010,8 hPa 0,0 l/m 0 min 0 min 0,000 mm 0,0 UV-I 0 W/m 19,6 km/h (3 Bft) 0,00 %
13.12.2012 07:32 10,1 C -2,0 C -23,4 C -4,3 C 0,0 C 82 % 0 % 0 lf 1010,8 hPa 0,0 l/m 0 min 0 min 0,000 mm 0,0 UV-I 0 W/m 18,1 km/h (3 Bft) 0,00 %
13.12.2012 07:34 10,1 C -2,0 C -23,4 C -4,4 C 0,0 C 82 % 0 % 0 lf 1010,8 hPa 0,0 l/m 0 min 0 min 0,000 mm 0,0 UV-I 0 W/m 11,5 km/h (2 Bft) 0,00 %
13.12.2012 07:36 10,1 C -2,0 C -23,4 C -4,4 C 0,0 C 82 % 0 % 0 lf 1010,8 hPa 0,0 l/m 0 min 0 min 0,000 mm 0,0 UV-I 0 W/m 9,0 km/h (2 Bft) 0,00 %
13.12.2012 07:38 10,1 C -2,0 C -23,4 C -4,4 C 0,0 C 82 % 0 % 0 lf 1010,8 hPa 0,0 l/m 0 min 0 min 0,000 mm 0,0 UV-I 0 W/m 9,5 km/h (2 Bft) 0,00 %
13.12.2012 07:40 10,1 C -2,0 C -23,4 C -4,4 C 0,0 C 82 % 0 % 0 lf 1010,8 hPa 0,0 l/m 0 min 0 min 0,000 mm 0,0 UV-I 0 W/m 17,6 km/h (3 Bft) 0,00 %
13.12.2012 07:42 10,1 C -1,9 C -23,4 C -4,5 C 0,0 C 82 % 0 % 0 lf 1010,8 hPa 0,0 l/m 0 min 0 min 0,000 mm 0,0 UV-I 0 W/m 17,6 km/h (3 Bft) 0,00 %
13.12.2012 07:44 10,1 C -2,1 C -23,4 C -4,5 C 0,0 C 81 % 0 % 0 lf 1010,8 hPa 0,0 l/m 0 min 0 min 0,000 mm 0,0 UV-I 0 W/m 17,1 km/h (3 Bft) 0,00 %
13.12.2012 07:46 10,1 C -2,1 C -23,4 C -4,5 C 0,0 C 82 % 0 % 0 lf 1010,8 hPa 0,0 l/m 0 min 0 min 0,000 mm 0,0 UV-I 0 W/m 9,0 km/h (2 Bft) 0,00 %
13.12.2012 07:48 10,1 C -2,1 C -23,4 C -4,5 C 0,0 C 82 % 0 % 0 lf 1010,8 hPa 0,0 l/m 0 min 0 min 0,000 mm 0,0 UV-I 0 W/m 0,0 km/h (0 Bft) 0,00 %
13.12.2012 07:50 10,1 C -2,1 C -23,4 C -4,6 C 0,0 C 82 % 0 % 0 lf 1010,8 hPa 0,0 l/m 0 min 0 min 0,000 mm 0,0 UV-I 0 W/m 12,5 km/h (3 Bft) 0,00 %
13.12.2012 07:52 10,1 C -2,1 C -23,4 C -4,5 C 0,0 C 82 % 0 % 0 lf 1010,8 hPa 0,0 l/m 0 min 0 min 0,000 mm 0,0 UV-I 0 W/m 9,5 km/h (2 Bft) 0,00 %
13.12.2012 07:54 10,1 C -2,1 C -23,4 C -4,5 C 0,0 C 81 % 0 % 0 lf 1010,8 hPa 0,0 l/m 0 min 0 min 0,000 mm 0,0 UV-I 0 W/m 6,5 km/h (2 Bft) 0,00 %
13.12.2012 07:56 10,1 C -2,1 C -23,4 C -4,5 C 0,0 C 81 % 0 % 0 lf 1010,8 hPa 0,0 l/m 0 min 0 min 0,000 mm 0,0 UV-I 0 W/m 16,6 km/h (3 Bft) 0,00 %
13.12.2012 07:58 10,1 C -2,1 C -23,4 C -4,7 C 0,0 C 81 % 0 % 0 lf 1010,2 hPa 0,0 l/m 0 min 0 min 0,000 mm 0,0 UV-I 0 W/m 29,1 km/h (5 Bft) 0,00 %
13.12.2012 08:00 10,1 C -2,1 C -23,4 C -4,7 C 0,0 C 81 % 0 % 0 lf 1010,2 hPa 0,0 l/m 0 min 0 min 0,000 mm 0,0 UV-I 0 W/m 17,1 km/h (3 Bft) 0,00 %
13.12.2012 08:02 10,1 C -2,1 C -23,4 C -4,7 C 0,0 C 81 % 0 % 0 lf 1010,2 hPa 0,0 l/m 0 min 0 min 0,000 mm 0,0 UV-I 0 W/m 8,5 km/h (2 Bft) 0,00 %
13.12.2012 08:04 10,1 C -2,1 C -23,4 C -4,7 C 0,0 C 81 % 0 % 0 lf 1010,2 hPa 0,0 l/m 0 min 0 min 0,000 mm 0,0 UV-I 0 W/m 0,0 km/h (0 Bft) 0,00 %
13.12.2012 08:06 10,1 C -2,1 C -23,4 C -4,7 C 0,0 C 81 % 0 % 0 lf 1010,2 hPa 0,0 l/m 0 min 0 min 0,000 mm 0,0 UV-I 0 W/m 18,1 km/h (3 Bft) 0,00 %
13.12.2012 08:08 10,1 C -2,1 C -23,4 C -4,7 C 0,0 C 81 % 0 % 0 lf 1010,2 hPa 0,0 l/m 0 min 0 min 0,000 mm 0,0 UV-I 0 W/m 18,1 km/h (3 Bft) 0,00 %
13.12.2012 08:10 10,1 C -2,1 C -23,4 C -4,7 C 0,0 C 81 % 0 % 0 lf 1010,2 hPa 0,0 l/m 0 min 0 min 0,000 mm 0,0 UV-I 0 W/m 0,0 km/h (0 Bft) 0,00 %
13.12.2012 08:12 10,1 C -2,1 C -23,4 C -4,7 C 0,0 C 81 % 0 % 0 lf 1010,2 hPa 0,0 l/m 0 min 0 min 0,000 mm 0,0 UV-I 0 W/m 18,6 km/h (3 Bft) 0,00 %
13.12.2012 08:14 10,1 C -2,1 C -23,4 C -4,7 C 0,0 C 81 % 0 % 0 lf 1010,2 hPa 0,0 l/m 0 min 0 min 0,000 mm 0,0 UV-I 0 W/m 13,5 km/h (3 Bft) 0,00 %
13.12.2012 08:16 10,1 C -2,1 C -23,4 C -4,7 C 0,0 C 81 % 0 % 0 lf 1010,2 hPa 0,0 l/m 0 min 0 min 0,000 mm 0,0 UV-I 0 W/m 12,0 km/h (2 Bft) 0,00 %
13.12.2012 08:18 10,1 C -2,1 C -23,4 C -4,7 C 0,0 C 81 % 0 % 0 lf 1010,0 hPa 0,0 l/m 0 min 0 min 0,000 mm 0,0 UV-I 0 W/m 10,0 km/h (2 Bft) 0,00 %
13.12.2012 08:20 10,1 C -2,1 C -23,4 C -4,7 C 0,0 C 81 % 0 % 0 lf 1010,0 hPa 0,0 l/m 0 min 0 min 0,000 mm 0,0 UV-I 0 W/m 10,0 km/h (2 Bft) 0,00 %
13.12.2012 08:22 10,1 C -2,1 C -23,4 C -4,7 C 0,0 C 81 % 0 % 0 lf 1010,0 hPa 0,0 l/m 0 min 0 min 0,000 mm 0,0 UV-I 0 W/m 13,5 km/h (3 Bft) 0,00 %
13.12.2012 08:24 9,9 C -2,1 C -23,4 C -4,7 C 0,0 C 81 % 0 % 0 lf 1010,0 hPa 0,0 l/m 0 min 0 min 0,000 mm 0,0 UV-I 0 W/m 10,5 km/h (2 Bft) 0,00 %
13.12.2012 08:26 9,9 C -2,1 C -23,4 C -4,7 C 0,0 C 81 % 0 % 0 lf 1010,0 hPa 0,0 l/m 0 min 0 min 0,000 mm 0,0 UV-I 0 W/m 8,5 km/h (2 Bft) 0,00 %
13.12.2012 08:28 9,9 C -2,1 C -23,4 C -4,5 C 0,0 C 81 % 0 % 0 lf 1010,0 hPa 0,0 l/m 0 min 0 min 0,000 mm 0,0 UV-I 0 W/m 9,0 km/h (2 Bft) 0,00 %
13.12.2012 08:30 9,9 C -2,1 C -23,4 C -4,5 C 0,0 C 81 % 0 % 0 lf 1010,0 hPa 0,0 l/m 0 min 0 min 0,000 mm 0,0 UV-I 0 W/m 11,0 km/h (2 Bft) 0,00 %
13.12.2012 08:32 9,9 C -2,1 C -23,4 C -4,7 C 0,0 C 81 % 0 % 0 lf 1010,0 hPa 0,0 l/m 0 min 0 min 0,000 mm 0,0 UV-I 0 W/m 9,0 km/h (2 Bft) 0,00 %
13.12.2012 08:34 9,9 C -2,1 C -23,4 C -4,5 C 0,0 C 81 % 0 % 0 lf 1010,0 hPa 0,0 l/m 0 min 0 min 0,000 mm 0,0 UV-I 0 W/m 14,5 km/h (3 Bft) 0,00 %
13.12.2012 08:36 9,9 C -2,1 C -23,4 C -4,7 C 0,0 C 81 % 0 % 0 lf 1010,0 hPa 0,0 l/m 0 min 0 min 0,000 mm 0,0 UV-I 0 W/m 16,6 km/h (3 Bft) 0,00 %
13.12.2012 08:38 9,9 C -2,1 C -23,4 C -4,5 C 0,0 C 81 % 0 % 0 lf 1009,9 hPa 0,0 l/m 0 min 0 min 0,000 mm 0,0 UV-I 0 W/m 16,6 km/h (3 Bft) 0,00 %
13.12.2012 08:40 9,9 C -2,1 C -23,4 C -4,5 C 0,0 C 81 % 0 % 0 lf 1009,9 hPa 0,0 l/m 0 min 0 min 0,000 mm 0,0 UV-I 0 W/m 16,0 km/h (3 Bft) 0,00 %
13.12.2012 08:42 9,9 C -2,1 C -23,4 C -4,5 C 0,0 C 81 % 0 % 0 lf 1009,9 hPa 0,0 l/m 0 min 0 min 0,000 mm 0,0 UV-I 0 W/m 11,0 km/h (2 Bft) 0,00 %
13.12.2012 08:47 9,9 C -2,1 C -23,4 C -4,5 C 0,0 C 81 % 0 % 0 lf 1009,9 hPa 0,0 l/m 0 min 0 min 0,000 mm 0,0 UV-I 0 W/m 9,0 km/h (2 Bft) 0,00 %
13.12.2012 08:48 9,9 C -2,1 C -23,4 C -4,6 C 0,0 C 81 % 0 % 0 lf 1009,9 hPa 0,0 l/m 0 min 0 min 0,000 mm 0,0 UV-I 0 W/m 9,0 km/h (2 Bft) 0,00 %
13.12.2012 08:50 9,9 C -2,1 C -23,4 C -4,6 C 0,0 C 81 % 0 % 0 lf 1009,9 hPa 0,0 l/m 0 min 0 min 0,000 mm 0,0 UV-I 0 W/m 13,5 km/h (3 Bft) 0,00 %
13.12.2012 08:52 9,9 C -2,1 C -23,4 C -4,5 C 0,0 C 81 % 0 % 0 lf 1009,9 hPa 0,0 l/m 0 min 0 min 0,000 mm 0,0 UV-I 0 W/m 11,0 km/h (2 Bft) 0,00 %
13.12.2012 08:54 9,9 C -2,1 C -23,4 C -4,5 C 0,0 C 81 % 0 % 0 lf 1009,9 hPa 0,0 l/m 0 min 0 min 0,000 mm 0,0 UV-I 0 W/m 8,0 km/h (2 Bft) 0,00 %
13.12.2012 08:56 9,9 C -2,1 C -23,4 C -4,5 C 0,0 C 81 % 0 % 0 lf 1009,9 hPa 0,0 l/m 0 min 0 min 0,000 mm 0,0 UV-I 0 W/m 9,0 km/h (2 Bft) 0,00 %
13.12.2012 08:58 9,9 C -2,1 C -23,4 C -4,5 C 0,0 C 81 % 0 % 0 lf 1010,0 hPa 0,0 l/m 0 min 0 min 0,000 mm 0,0 UV-I 0 W/m 11,0 km/h (2 Bft) 0,00 %
13.12.2012 09:00 10,0 C -2,1 C -23,4 C -4,5 C 0,0 C 81 % 0 % 0 lf 1010,0 hPa 0,0 l/m 0 min 0 min 0,000 mm 0,0 UV-I 0 W/m 6,5 km/h (2 Bft) 0,00 %
13.12.2012 09:02 10,0 C -2,1 C -23,4 C -4,5 C 0,0 C 81 % 0 % 0 lf 1010,0 hPa 0,0 l/m 0 min 0 min 0,000 mm 0,0 UV-I 0 W/m 12,5 km/h (3 Bft) 0,00 %
13.12.2012 09:04 10,0 C -2,1 C -23,4 C -4,5 C 0,0 C 81 % 0 % 0 lf 1010,0 hPa 0,0 l/m 0 min 0 min 0,000 mm 0,0 UV-I 0 W/m 20,1 km/h (4 Bft) 0,00 %
13.12.2012 09:06 9,8 C -2,1 C -23,4 C -4,5 C 0,0 C 81 % 0 % 0 lf 1010,0 hPa 0,0 l/m 0 min 0 min 0,000 mm 0,0 UV-I 0 W/m 20,1 km/h (4 Bft) 0,00 %
13.12.2012 09:07 9,8 C -2,1 C -23,4 C -4,5 C 0,0 C 81 % 0 % 0 lf 1010,0 hPa 0,0 l/m 0 min 0 min 0,000 mm 0,0 UV-I 0 W/m 16,0 km/h (3 Bft) 0,00 %
13.12.2012 09:11 9,9 C -2,1 C -23,4 C -4,3 C 0,0 C 81 % 0 % 0 lf 1010,0 hPa 0,0 l/m 0 min 0 min 0,000 mm 0,0 UV-I 0 W/m 12,0 km/h (2 Bft) 0,00 %
13.12.2012 09:16 9,9 C -2,0 C -23,4 C -4,3 C 0,0 C 81 % 0 % 0 lf 1009,9 hPa 0,0 l/m 0 min 0 min 0,000 mm 0,0 UV-I 0 W/m 10,0 km/h (2 Bft) 0,00 %
13.12.2012 09:19 9,9 C -2,0 C -23,4 C -4,3 C 0,0 C 81 % 0 % 0 lf 1009,9 hPa 0,0 l/m 0 min 0 min 0,000 mm 0,0 UV-I 0 W/m 14,0 km/h (3 Bft) 0,00 %
13.12.2012 09:22 9,9 C -1,9 C -23,4 C -4,3 C 0,0 C 80 % 0 % 0 lf 1009,9 hPa 0,0 l/m 0 min 0 min 0,000 mm 0,0 UV-I 0 W/m 14,5 km/h (3 Bft) 0,00 %
13.12.2012 09:24 9,9 C -1,9 C -23,4 C -4,3 C 0,0 C 80 % 0 % 0 lf 1009,9 hPa 0,0 l/m 0 min 0 min 0,000 mm 0,0 UV-I 0 W/m 13,0 km/h (3 Bft) 0,00 %
13.12.2012 09:26 9,9 C -2,0 C -23,4 C -4,3 C 0,0 C 80 % 0 % 0 lf 1009,9 hPa 0,0 l/m 0 min 0 min 0,000 mm 0,0 UV-I 0 W/m 6,5 km/h (2 Bft) 0,00 %
13.12.2012 09:28 9,9 C -2,0 C -23,4 C -4,3 C 0,0 C 80 % 0 % 0 lf 1009,9 hPa 0,0 l/m 0 min 0 min 0,000 mm 0,0 UV-I 0 W/m 15,0 km/h (3 Bft) 0,00 %
13.12.2012 09:30 9,8 C -1,9 C -23,4 C -4,3 C 0,0 C 80 % 0 % 0 lf 1009,9 hPa 0,0 l/m 0 min 0 min 0,000 mm 0,0 UV-I 0 W/m 17,1 km/h (3 Bft) 0,00 %
13.12.2012 09:32 9,8 C -1,9 C -23,3 C -4,1 C 0,0 C 80 % 0 % 0 lf 1009,9 hPa 0,0 l/m 0 min 0 min 0,000 mm 0,0 UV-I 0 W/m 6,0 km/h (2 Bft) 0,00 %
13.12.2012 09:34 9,9 C -1,9 C -23,3 C -4,1 C 0,0 C 80 % 0 % 0 lf 1009,9 hPa 0,0 l/m 0 min 0 min 0,000 mm 0,0 UV-I 0 W/m 29,1 km/h (5 Bft) 0,00 %
13.12.2012 09:36 9,9 C -1,9 C -23,3 C -4,1 C 0,0 C 80 % 0 % 0 lf 1009,9 hPa 0,0 l/m 0 min 0 min 0,000 mm 0,0 UV-I 0 W/m 9,5 km/h (2 Bft) 0,00 %
13.12.2012 09:38 9,8 C -1,7 C -23,3 C -4,1 C 0,0 C 80 % 0 % 0 lf 1009,6 hPa 0,0 l/m 0 min 0 min 0,000 mm 0,0 UV-I 0 W/m 14,5 km/h (3 Bft) 0,00 %
13.12.2012 09:40 9,9 C -1,9 C -23,3 C -4,1 C 0,0 C 80 % 0 % 0 lf 1009,6 hPa 0,0 l/m 0 min 0 min 0,000 mm 0,0 UV-I 0 W/m 12,5 km/h (3 Bft) 0,00 %
13.12.2012 09:42 9,9 C -1,7 C -23,3 C -4,0 C 0,0 C 79 % 0 % 0 lf 1009,6 hPa 0,0 l/m 0 min 0 min 0,000 mm 0,0 UV-I 0 W/m 12,5 km/h (3 Bft) 0,00 %
13.12.2012 09:44 9,8 C -1,7 C -23,4 C -4,0 C 0,0 C 80 % 0 % 0 lf 1009,6 hPa 0,0 l/m 0 min 0 min 0,000 mm 0,0 UV-I 0 W/m 14,0 km/h (3 Bft) 0,00 %
13.12.2012 09:46 9,8 C -1,8 C -23,4 C -3,9 C 0,0 C 80 % 0 % 0 lf 1009,6 hPa 0,0 l/m 0 min 0 min 0,000 mm 0,0 UV-I 0 W/m 8,0 km/h (2 Bft) 0,00 %
13.12.2012 09:48 9,8 C -1,7 C -23,4 C -3,9 C 0,0 C 80 % 0 % 0 lf 1009,6 hPa 0,0 l/m 0 min 0 min 0,000 mm 0,0 UV-I 0 W/m 11,0 km/h (2 Bft) 0,00 %
13.12.2012 09:50 9,8 C -1,7 C -23,4 C -3,9 C 0,0 C 79 % 0 % 0 lf 1009,6 hPa 0,0 l/m 0 min 0 min 0,000 mm 0,0 UV-I 0 W/m 13,0 km/h (3 Bft) 0,00 %
13.12.2012 09:52 9,8 C -1,7 C -23,4 C -3,9 C 0,0 C 79 % 0 % 0 lf 1009,6 hPa 0,0 l/m 0 min 0 min 0,000 mm 0,0 UV-I 0 W/m 25,6 km/h (4 Bft) 0,00 %
13.12.2012 09:54 9,8 C -1,7 C -23,4 C -3,7 C 0,0 C 79 % 0 % 0 lf 1009,6 hPa 0,0 l/m 0 min 0 min 0,000 mm 0,0 UV-I 0 W/m 19,1 km/h (3 Bft) 0,00 %
13.12.2012 09:56 9,8 C -1,7 C -23,4 C -3,7 C 0,0 C 79 % 0 % 0 lf 1009,6 hPa 0,0 l/m 0 min 0 min 0,000 mm 0,0 UV-I 0 W/m 16,0 km/h (3 Bft) 0,00 %
13.12.2012 09:58 9,8 C -1,7 C -23,4 C -3,8 C 0,0 C 79 % 0 % 0 lf 1009,8 hPa 0,0 l/m 0 min 0 min 0,000 mm 0,0 UV-I 0 W/m 8,0 km/h (2 Bft) 0,00 %
13.12.2012 10:00 9,8 C -1,7 C -23,4 C -3,7 C 0,0 C 79 % 0 % 0 lf 1009,8 hPa 0,0 l/m 0 min 0 min 0,000 mm 0,0 UV-I 0 W/m 11,0 km/h (2 Bft) 0,00 %
13.12.2012 10:02 9,8 C -1,7 C -23,4 C -3,7 C 0,0 C 79 % 0 % 0 lf 1009,8 hPa 0,0 l/m 0 min 0 min 0,000 mm 0,0 UV-I 0 W/m 14,5 km/h (3 Bft) 0,00 %
13.12.2012 10:04 9,8 C -1,7 C -23,4 C -3,7 C 0,0 C 79 % 0 % 0 lf 1009,8 hPa 0,0 l/m 0 min 0 min 0,000 mm 0,0 UV-I 0 W/m 14,5 km/h (3 Bft) 0,00 %
13.12.2012 10:06 9,8 C -1,7 C -23,4 C -3,7 C 0,0 C 79 % 0 % 0 lf 1009,8 hPa 0,0 l/m 0 min 0 min 0,000 mm 0,0 UV-I 0 W/m 9,5 km/h (2 Bft) 0,00 %
13.12.2012 10:08 9,8 C -1,5 C -23,4 C -3,7 C 0,0 C 79 % 0 % 0 lf 1009,8 hPa 0,0 l/m 0 min 0 min 0,000 mm 0,0 UV-I 0 W/m 13,5 km/h (3 Bft) 0,00 %
13.12.2012 10:10 9,9 C -1,7 C -23,4 C -3,6 C 0,0 C 79 % 0 % 0 lf 1009,8 hPa 0,0 l/m 0 min 0 min 0,000 mm 0,0 UV-I 0 W/m 9,5 km/h (2 Bft) 0,00 %
13.12.2012 10:12 9,9 C -1,7 C -23,4 C -3,6 C 0,0 C 79 % 0 % 0 lf 1009,8 hPa 0,0 l/m 0 min 0 min 0,000 mm 0,0 UV-I 0 W/m 8,0 km/h (2 Bft) 0,00 %
13.12.2012 10:14 9,9 C -1,6 C -23,4 C -3,6 C 0,0 C 79 % 0 % 0 lf 1009,8 hPa 0,0 l/m 0 min 0 min 0,000 mm 0,0 UV-I 0 W/m 12,5 km/h (3 Bft) 0,00 %
13.12.2012 10:16 9,9 C -1,5 C -23,4 C -3,6 C 0,0 C 79 % 0 % 0 lf 1009,8 hPa 0,0 l/m 0 min 0 min 0,000 mm 0,0 UV-I 0 W/m 12,5 km/h (3 Bft) 0,00 %
13.12.2012 10:18 9,9 C -1,5 C -23,4 C -3,5 C 0,0 C 79 % 0 % 0 lf 1009,8 hPa 0,0 l/m 0 min 0 min 0,000 mm 0,0 UV-I 0 W/m 18,1 km/h (3 Bft) 0,00 %
13.12.2012 10:20 9,9 C -1,5 C -23,4 C -3,5 C 0,0 C 79 % 0 % 0 lf 1009,8 hPa 0,0 l/m 0 min 0 min 0,000 mm 0,0 UV-I 0 W/m 5,0 km/h (1 Bft) 0,00 %
13.12.2012 10:22 9,9 C -1,6 C -23,4 C -3,5 C 0,0 C 78 % 0 % 0 lf 1009,8 hPa 0,0 l/m 0 min 0 min 0,000 mm 0,0 UV-I 0 W/m 14,0 km/h (3 Bft) 0,00 %
13.12.2012 10:24 9,9 C -1,5 C -23,4 C -3,3 C 0,0 C 78 % 0 % 0 lf 1009,8 hPa 0,0 l/m 0 min 0 min 0,000 mm 0,0 UV-I 0 W/m 13,0 km/h (3 Bft) 0,00 %
13.12.2012 10:26 9,9 C -1,5 C -23,4 C -3,3 C 0,0 C 78 % 0 % 0 lf 1009,8 hPa 0,0 l/m 0 min 0 min 0,000 mm 0,0 UV-I 0 W/m 14,5 km/h (3 Bft) 0,00 %
13.12.2012 10:28 9,9 C -1,5 C -23,4 C -3,4 C 0,0 C 78 % 0 % 0 lf 1009,8 hPa 0,0 l/m 0 min 0 min 0,000 mm 0,0 UV-I 0 W/m 14,5 km/h (3 Bft) 0,00 %
13.12.2012 10:30 9,9 C -1,5 C -23,4 C -3,3 C 0,0 C 78 % 0 % 0 lf 1009,8 hPa 0,0 l/m 0 min 0 min 0,000 mm 0,0 UV-I 0 W/m 16,6 km/h (3 Bft) 0,00 %
13.12.2012 10:32 9,9 C -1,5 C -23,4 C -3,3 C 0,0 C 78 % 0 % 0 lf 1009,8 hPa 0,0 l/m 0 min 0 min 0,000 mm 0,0 UV-I 0 W/m 10,5 km/h (2 Bft) 0,00 %
13.12.2012 10:34 9,8 C -1,5 C -23,4 C -3,3 C 0,0 C 78 % 0 % 0 lf 1009,8 hPa 0,0 l/m 0 min 0 min 0,000 mm 0,0 UV-I 0 W/m 22,1 km/h (4 Bft) 0,00 %
13.12.2012 10:36 9,8 C -1,5 C -23,3 C -3,1 C 0,0 C 78 % 0 % 0 lf 1009,8 hPa 0,0 l/m 0 min 0 min 0,000 mm 0,0 UV-I 0 W/m 18,1 km/h (3 Bft) 0,00 %
13.12.2012 10:38 9,8 C -1,3 C -23,3 C -3,1 C 0,0 C 78 % 0 % 0 lf 1009,6 hPa 0,0 l/m 0 min 0 min 0,000 mm 0,0 UV-I 0 W/m 15,0 km/h (3 Bft) 0,00 %
13.12.2012 10:40 9,8 C -1,3 C -23,3 C -3,2 C 0,0 C 78 % 0 % 0 lf 1009,6 hPa 0,0 l/m 0 min 0 min 0,000 mm 0,0 UV-I 0 W/m 10,5 km/h (2 Bft) 0,00 %
13.12.2012 10:42 9,8 C -1,4 C -23,3 C -3,2 C 0,0 C 78 % 0 % 0 lf 1009,6 hPa 0,0 l/m 0 min 0 min 0,000 mm 0,0 UV-I 0 W/m 5,5 km/h (1 Bft) 0,00 %
13.12.2012 10:46 9,8 C -1,3 C -23,3 C -2,9 C 0,0 C 78 % 0 % 0 lf 1009,6 hPa 0,0 l/m 0 min 0 min 0,000 mm 0,0 UV-I 0 W/m 16,6 km/h (3 Bft) 0,00 %
13.12.2012 10:50 9,8 C -1,3 C -23,3 C -2,9 C 0,0 C 78 % 0 % 0 lf 1009,6 hPa 0,0 l/m 0 min 0 min 0,000 mm 0,0 UV-I 0 W/m 10,0 km/h (2 Bft) 0,00 %
13.12.2012 10:52 9,8 C -1,3 C -23,3 C -2,7 C 0,0 C 78 % 0 % 0 lf 1009,6 hPa 0,0 l/m 0 min 0 min 0,000 mm 0,0 UV-I 0 W/m 10,0 km/h (2 Bft) 0,00 %
13.12.2012 10:54 9,8 C -1,3 C -23,3 C -2,7 C 0,0 C 78 % 0 % 0 lf 1009,6 hPa 0,0 l/m 0 min 0 min 0,000 mm 0,0 UV-I 0 W/m 7,5 km/h (2 Bft) 0,00 %
13.12.2012 10:56 9,8 C -1,3 C -23,3 C -2,9 C 0,0 C 78 % 0 % 0 lf 1009,6 hPa 0,0 l/m 0 min 0 min 0,000 mm 0,0 UV-I 0 W/m 9,0 km/h (2 Bft) 0,00 %
13.12.2012 10:58 9,8 C -1,1 C -23,3 C -2,7 C 0,0 C 78 % 0 % 0 lf 1009,5 hPa 0,0 l/m 0 min 0 min 0,000 mm 0,0 UV-I 0 W/m 10,0 km/h (2 Bft) 0,00 %
13.12.2012 11:00 9,8 C -1,3 C -23,3 C -2,8 C 0,0 C 78 % 0 % 0 lf 1009,5 hPa 0,0 l/m 0 min 0 min 0,000 mm 0,0 UV-I 0 W/m 10,5 km/h (2 Bft) 0,00 %
13.12.2012 11:02 9,8 C -1,2 C -23,3 C -2,7 C 0,0 C 78 % 0 % 0 lf 1009,5 hPa 0,0 l/m 0 min 0 min 0,000 mm 0,0 UV-I 0 W/m 13,0 km/h (3 Bft) 0,00 %
13.12.2012 11:04 9,8 C -1,2 C -23,3 C -2,7 C 0,0 C 78 % 0 % 0 lf 1009,5 hPa 0,0 l/m 0 min 0 min 0,000 mm 0,0 UV-I 0 W/m 11,5 km/h (2 Bft) 0,00 %
13.12.2012 11:06 9,8 C -1,2 C -23,3 C -2,7 C 0,0 C 78 % 0 % 0 lf 1009,5 hPa 0,0 l/m 0 min 0 min 0,000 mm 0,0 UV-I 0 W/m 15,0 km/h (3 Bft) 0,00 %
13.12.2012 11:08 9,8 C -1,2 C -23,3 C -2,7 C 0,0 C 78 % 0 % 0 lf 1009,5 hPa 0,0 l/m 0 min 0 min 0,000 mm 0,0 UV-I 0 W/m 11,5 km/h (2 Bft) 0,00 %
13.12.2012 11:10 9,8 C -1,1 C -23,3 C -2,5 C 0,0 C 78 % 0 % 0 lf 1009,5 hPa 0,0 l/m 0 min 0 min 0,000 mm 0,0 UV-I 0 W/m 16,6 km/h (3 Bft) 0,00 %
13.12.2012 11:12 9,8 C -1,1 C -23,3 C -2,5 C 0,0 C 78 % 0 % 0 lf 1009,5 hPa 0,0 l/m 0 min 0 min 0,000 mm 0,0 UV-I 0 W/m 12,0 km/h (2 Bft) 0,00 %
13.12.2012 11:14 9,8 C -0,9 C -23,3 C -2,5 C 0,0 C 78 % 0 % 0 lf 1009,5 hPa 0,0 l/m 0 min 0 min 0,000 mm 0,0 UV-I 0 W/m 8,0 km/h (2 Bft) 0,00 %
13.12.2012 11:16 9,8 C -0,9 C -23,3 C -2,5 C 0,0 C 77 % 0 % 0 lf 1009,5 hPa 0,0 l/m 0 min 0 min 0,000 mm 0,0 UV-I 0 W/m 17,1 km/h (3 Bft) 0,00 %
13.12.2012 11:18 9,8 C -0,9 C -23,3 C -2,5 C 0,0 C 77 % 0 % 0 lf 1009,1 hPa 0,0 l/m 0 min 0 min 0,000 mm 0,0 UV-I 0 W/m 10,5 km/h (2 Bft) 0,00 %
13.12.2012 11:20 9,8 C -0,9 C -23,3 C -2,5 C 0,0 C 77 % 0 % 0 lf 1009,1 hPa 0,0 l/m 0 min 0 min 0,000 mm 0,0 UV-I 0 W/m 13,5 km/h (3 Bft) 0,00 %
13.12.2012 11:22 9,8 C -0,9 C -23,2 C -2,5 C 0,0 C 77 % 0 % 0 lf 1009,1 hPa 0,0 l/m 0 min 0 min 0,000 mm 0,0 UV-I 0 W/m 11,5 km/h (2 Bft) 0,00 %
13.12.2012 11:24 9,8 C -1,0 C -23,3 C -2,7 C 0,0 C 77 % 0 % 0 lf 1009,1 hPa 0,0 l/m 0 min 0 min 0,000 mm 0,0 UV-I 0 W/m 11,0 km/h (2 Bft) 0,00 %
13.12.2012 11:26 9,9 C -0,9 C -23,2 C -2,7 C 0,0 C 77 % 0 % 0 lf 1009,1 hPa 0,0 l/m 0 min 0 min 0,000 mm 0,0 UV-I 0 W/m 10,5 km/h (2 Bft) 0,00 %
13.12.2012 11:28 9,9 C -0,9 C -23,2 C -2,7 C 0,0 C 77 % 0 % 0 lf 1009,1 hPa 0,0 l/m 0 min 0 min 0,000 mm 0,0 UV-I 0 W/m 32,1 km/h (5 Bft) 0,00 %
13.12.2012 11:30 9,9 C -0,9 C -23,2 C -2,8 C 0,0 C 77 % 0 % 0 lf 1009,1 hPa 0,0 l/m 0 min 0 min 0,000 mm 0,0 UV-I 0 W/m 40,1 km/h (6 Bft) 0,00 %
13.12.2012 11:32 9,8 C -0,9 C -23,2 C -2,8 C 0,1 C 77 % 0 % 0 lf 1009,1 hPa 0,0 l/m 0 min 0 min 0,000 mm 0,1 UV-I 0 W/m 18,1 km/h (3 Bft) 0,00 %
13.12.2012 11:34 10,0 C -0,9 C -23,2 C -2,9 C 0,1 C 77 % 0 % 0 lf 1009,1 hPa 0,0 l/m 0 min 0 min 0,000 mm 0,1 UV-I 0 W/m 11,0 km/h (2 Bft) 0,00 %
13.12.2012 11:36 10,0 C -0,9 C -23,2 C -2,7 C 0,1 C 77 % 0 % 0 lf 1009,1 hPa 0,0 l/m 0 min 0 min 0,000 mm 0,1 UV-I 0 W/m 21,6 km/h (4 Bft) 0,00 %
13.12.2012 11:38 10,0 C -0,8 C -23,2 C -2,9 C 0,1 C 77 % 0 % 0 lf 1009,0 hPa 0,0 l/m 0 min 0 min 0,000 mm 0,1 UV-I 0 W/m 40,1 km/h (6 Bft) 0,00 %
13.12.2012 11:40 10,0 C -0,8 C -23,2 C -2,8 C 0,1 C 77 % 0 % 0 lf 1009,0 hPa 0,0 l/m 0 min 0 min 0,000 mm 0,1 UV-I 0 W/m 10,5 km/h (2 Bft) 0,00 %
13.12.2012 11:42 10,0 C -0,7 C -23,2 C -2,8 C 0,1 C 77 % 0 % 0 lf 1009,0 hPa 0,0 l/m 0 min 0 min 0,000 mm 0,1 UV-I 0 W/m 5,0 km/h (1 Bft) 0,00 %
13.12.2012 11:44 10,0 C -0,7 C -23,2 C -2,7 C 0,1 C 77 % 0 % 0 lf 1009,0 hPa 0,0 l/m 0 min 0 min 0,000 mm 0,1 UV-I 0 W/m 5,0 km/h (1 Bft) 0,00 %
13.12.2012 11:46 9,9 C -0,7 C -23,2 C -2,7 C 0,1 C 77 % 0 % 0 lf 1009,0 hPa 0,0 l/m 0 min 0 min 0,000 mm 0,1 UV-I 0 W/m 25,1 km/h (4 Bft) 0,00 %
13.12.2012 11:48 9,9 C -0,5 C -23,2 C -2,5 C 0,2 C 76 % 0 % 0 lf 1009,0 hPa 0,0 l/m 0 min 0 min 0,000 mm 0,2 UV-I 0 W/m 16,6 km/h (3 Bft) 0,00 %
13.12.2012 11:50 9,9 C -0,6 C -23,2 C -2,5 C 0,2 C 76 % 0 % 0 lf 1009,0 hPa 0,0 l/m 0 min 0 min 0,000 mm 0,2 UV-I 0 W/m 7,0 km/h (2 Bft) 0,00 %
13.12.2012 11:52 9,9 C -0,5 C -23,2 C -2,4 C 0,2 C 76 % 0 % 0 lf 1009,0 hPa 0,0 l/m 0 min 0 min 0,000 mm 0,2 UV-I 0 W/m 18,6 km/h (3 Bft) 0,00 %
13.12.2012 11:54 10,1 C -0,5 C -23,2 C -2,4 C 0,2 C 76 % 0 % 0 lf 1009,0 hPa 0,0 l/m 0 min 0 min 0,000 mm 0,2 UV-I 0 W/m 16,0 km/h (3 Bft) 0,00 %
13.12.2012 11:56 10,1 C -0,5 C -23,2 C -2,3 C 0,2 C 76 % 0 % 0 lf 1009,0 hPa 0,0 l/m 0 min 0 min 0,000 mm 0,2 UV-I 0 W/m 11,5 km/h (2 Bft) 0,00 %
13.12.2012 11:58 10,1 C -0,4 C -23,2 C -2,1 C 0,2 C 76 % 0 % 0 lf 1009,0 hPa 0,0 l/m 0 min 0 min 0,000 mm 0,2 UV-I 0 W/m 11,5 km/h (2 Bft) 0,00 %
13.12.2012 12:00 10,1 C -0,1 C -23,2 C -2,1 C 0,2 C 76 % 0 % 0 lf 1009,0 hPa 0,0 l/m 0 min 0 min 0,000 mm 0,2 UV-I 0 W/m 19,1 km/h (3 Bft) 0,00 %
13.12.2012 12:02 10,2 C -0,1 C -23,2 C -2,1 C 0,2 C 76 % 0 % 0 lf 1009,0 hPa 0,0 l/m 0 min 0 min 0,000 mm 0,2 UV-I 0 W/m 14,5 km/h (3 Bft) 0,00 %
13.12.2012 12:04 10,2 C -0,1 C -23,2 C -2,1 C 0,2 C 76 % 0 % 0 lf 1009,0 hPa 0,0 l/m 0 min 0 min 0,000 mm 0,2 UV-I 0 W/m 14,5 km/h (3 Bft) 0,00 %
13.12.2012 12:06 10,2 C -0,1 C -23,2 C -2,1 C 0,2 C 76 % 0 % 0 lf 1009,0 hPa 0,0 l/m 0 min 0 min 0,000 mm 0,2 UV-I 0 W/m 15,0 km/h (3 Bft) 0,00 %
13.12.2012 12:08 10,1 C 0,0 C -23,2 C -2,1 C 0,1 C 76 % 0 % 0 lf 1009,0 hPa 0,0 l/m 0 min 0 min 0,000 mm 0,1 UV-I 0 W/m 20,1 km/h (4 Bft) 0,00 %
13.12.2012 12:10 10,3 C 0,0 C -23,2 C -2,1 C 0,1 C 76 % 0 % 0 lf 1009,0 hPa 0,0 l/m 0 min 0 min 0,000 mm 0,1 UV-I 0 W/m 20,1 km/h (4 Bft) 0,00 %
13.12.2012 12:12 10,3 C 0,1 C -23,2 C -2,1 C 0,0 C 75 % 0 % 0 lf 1009,0 hPa 0,0 l/m 0 min 0 min 0,000 mm 0,0 UV-I 0 W/m 16,0 km/h (3 Bft) 0,00 %
13.12.2012 12:14 10,3 C 0,0 C -23,2 C -1,9 C 0,0 C 75 % 0 % 0 lf 1009,0 hPa 0,0 l/m 0 min 0 min 0,000 mm 0,0 UV-I 0 W/m 24,1 km/h (4 Bft) 0,00 %
13.12.2012 12:16 10,3 C 0,0 C -23,2 C -2,0 C 0,0 C 75 % 0 % 0 lf 1009,0 hPa 0,0 l/m 0 min 0 min 0,000 mm 0,0 UV-I 0 W/m 10,0 km/h (2 Bft) 0,00 %
13.12.2012 12:18 10,2 C -0,1 C -23,2 C -2,0 C 0,0 C 75 % 0 % 0 lf 1008,9 hPa 0,0 l/m 0 min 0 min 0,000 mm 0,0 UV-I 0 W/m 19,1 km/h (3 Bft) 0,00 %
13.12.2012 12:20 10,3 C -0,1 C -23,2 C -2,9 C 0,0 C 75 % 0 % 0 lf 1008,9 hPa 0,0 l/m 0 min 0 min 0,000 mm 0,0 UV-I 0 W/m 19,1 km/h (3 Bft) 0,00 %
13.12.2012 12:22 10,3 C 0,1 C -23,2 C -2,8 C 0,0 C 75 % 0 % 0 lf 1008,9 hPa 0,0 l/m 0 min 0 min 0,000 mm 0,0 UV-I 0 W/m 19,1 km/h (3 Bft) 0,00 %
13.12.2012 12:24 10,1 C -0,1 C -23,2 C -2,7 C 0,0 C 75 % 0 % 0 lf 1008,9 hPa 0,0 l/m 0 min 0 min 0,000 mm 0,0 UV-I 0 W/m 7,5 km/h (2 Bft) 0,00 %
13.12.2012 12:26 10,1 C -0,1 C -23,2 C -2,5 C 0,0 C 75 % 0 % 0 lf 1008,9 hPa 0,0 l/m 0 min 0 min 0,000 mm 0,0 UV-I 0 W/m 14,0 km/h (3 Bft) 0,00 %
13.12.2012 12:28 10,1 C 0,0 C -23,2 C -2,4 C 0,0 C 75 % 0 % 0 lf 1008,9 hPa 0,0 l/m 0 min 0 min 0,000 mm 0,0 UV-I 0 W/m 15,0 km/h (3 Bft) 0,00 %
13.12.2012 12:30 10,3 C 0,0 C -23,2 C -2,3 C 0,0 C 75 % 0 % 0 lf 1008,9 hPa 0,0 l/m 0 min 0 min 0,000 mm 0,0 UV-I 0 W/m 15,0 km/h (3 Bft) 0,00 %
13.12.2012 12:32 10,1 C 0,1 C -23,2 C -2,3 C 0,0 C 75 % 0 % 0 lf 1008,9 hPa 0,0 l/m 0 min 0 min 0,000 mm 0,0 UV-I 0 W/m 23,1 km/h (4 Bft) 0,00 %
13.12.2012 12:34 10,3 C 0,1 C -23,2 C -2,1 C 0,0 C 75 % 0 % 0 lf 1008,9 hPa 0,0 l/m 0 min 0 min 0,000 mm 0,0 UV-I 0 W/m 11,5 km/h (2 Bft) 0,00 %
13.12.2012 12:36 10,1 C 0,1 C -23,2 C -2,1 C 0,0 C 74 % 0 % 0 lf 1008,9 hPa 0,0 l/m 0 min 0 min 0,000 mm 0,0 UV-I 0 W/m 20,1 km/h (4 Bft) 0,00 %
13.12.2012 12:38 10,3 C 0,0 C -23,2 C -2,2 C 0,0 C 74 % 0 % 0 lf 1008,5 hPa 0,0 l/m 0 min 0 min 0,000 mm 0,0 UV-I 0 W/m 14,0 km/h (3 Bft) 0,00 %
13.12.2012 12:40 10,3 C 0,1 C -23,2 C -2,1 C 0,0 C 75 % 0 % 0 lf 1008,5 hPa 0,0 l/m 0 min 0 min 0,000 mm 0,0 UV-I 0 W/m 23,1 km/h (4 Bft) 0,00 %
13.12.2012 12:42 10,3 C 0,3 C -23,2 C -2,1 C 0,1 C 75 % 0 % 0 lf 1008,5 hPa 0,0 l/m 0 min 0 min 0,000 mm 0,1 UV-I 0 W/m 15,5 km/h (3 Bft) 0,00 %
13.12.2012 12:44 10,3 C 0,1 C -23,2 C -2,0 C 0,1 C 75 % 0 % 0 lf 1008,5 hPa 0,0 l/m 0 min 0 min 0,000 mm 0,1 UV-I 0 W/m 6,5 km/h (2 Bft) 0,00 %
13.12.2012 12:46 10,3 C 0,2 C -23,2 C -2,0 C 0,1 C 75 % 0 % 0 lf 1008,5 hPa 0,0 l/m 0 min 0 min 0,000 mm 0,1 UV-I 0 W/m 30,1 km/h (5 Bft) 0,00 %
13.12.2012 12:48 10,3 C 0,3 C -23,2 C -1,9 C 0,1 C 75 % 0 % 0 lf 1008,5 hPa 0,0 l/m 0 min 0 min 0,000 mm 0,1 UV-I 0 W/m 32,1 km/h (5 Bft) 0,00 %
13.12.2012 12:50 10,2 C 0,3 C -23,2 C -1,9 C 0,1 C 74 % 0 % 0 lf 1008,5 hPa 0,0 l/m 0 min 0 min 0,000 mm 0,1 UV-I 0 W/m 26,6 km/h (4 Bft) 0,00 %
13.12.2012 12:52 10,2 C 0,3 C -23,2 C -1,9 C 0,1 C 74 % 0 % 0 lf 1008,5 hPa 0,0 l/m 0 min 0 min 0,000 mm 0,1 UV-I 0 W/m 13,0 km/h (3 Bft) 0,00 %
13.12.2012 12:54 10,4 C 0,3 C -23,2 C -1,8 C 0,1 C 74 % 0 % 0 lf 1008,5 hPa 0,0 l/m 0 min 0 min 0,000 mm 0,1 UV-I 0 W/m 16,6 km/h (3 Bft) 0,00 %
13.12.2012 12:56 10,2 C 0,3 C -23,2 C -1,7 C 0,1 C 75 % 0 % 0 lf 1008,5 hPa 0,0 l/m 0 min 0 min 0,000 mm 0,1 UV-I 0 W/m 17,6 km/h (3 Bft) 0,00 %
13.12.2012 12:58 10,4 C 0,3 C -23,2 C -1,8 C 0,0 C 75 % 0 % 0 lf 1008,1 hPa 0,0 l/m 0 min 0 min 0,000 mm 0,0 UV-I 0 W/m 28,6 km/h (4 Bft) 0,00 %
13.12.2012 13:00 10,4 C 0,3 C -23,2 C -1,7 C 0,0 C 75 % 0 % 0 lf 1008,1 hPa 0,0 l/m 0 min 0 min 0,000 mm 0,0 UV-I 0 W/m 17,1 km/h (3 Bft) 0,00 %
13.12.2012 13:02 10,4 C 0,3 C -23,2 C -1,7 C 0,0 C 75 % 0 % 0 lf 1008,1 hPa 0,0 l/m 0 min 0 min 0,000 mm 0,0 UV-I 0 W/m 13,5 km/h (3 Bft) 0,00 %
13.12.2012 13:04 10,4 C 0,3 C -23,2 C -1,8 C 0,0 C 75 % 0 % 0 lf 1008,1 hPa 0,0 l/m 0 min 0 min 0,000 mm 0,0 UV-I 0 W/m 8,5 km/h (2 Bft) 0,00 %
13.12.2012 13:06 10,4 C 0,3 C -23,2 C -1,7 C 0,0 C 74 % 0 % 0 lf 1008,1 hPa 0,0 l/m 0 min 0 min 0,000 mm 0,0 UV-I 0 W/m 27,6 km/h (4 Bft) 0,00 %
13.12.2012 13:08 10,4 C 0,3 C -23,2 C -1,7 C 0,0 C 74 % 0 % 0 lf 1008,1 hPa 0,0 l/m 0 min 0 min 0,000 mm 0,0 UV-I 0 W/m 17,1 km/h (3 Bft) 0,00 %
13.12.2012 13:10 10,4 C 0,3 C -23,2 C -1,7 C 0,0 C 74 % 0 % 0 lf 1008,1 hPa 0,0 l/m 0 min 0 min 0,000 mm 0,0 UV-I 0 W/m 19,6 km/h (3 Bft) 0,00 %
13.12.2012 13:12 10,4 C 0,3 C -23,2 C -1,7 C 0,0 C 74 % 0 % 0 lf 1008,1 hPa 0,0 l/m 0 min 0 min 0,000 mm 0,0 UV-I 0 W/m 14,0 km/h (3 Bft) 0,00 %
13.12.2012 13:14 10,4 C 0,3 C -23,2 C -1,6 C 0,0 C 74 % 0 % 0 lf 1008,1 hPa 0,0 l/m 0 min 0 min 0,000 mm 0,0 UV-I 0 W/m 20,1 km/h (4 Bft) 0,00 %
13.12.2012 13:16 10,4 C 0,3 C -23,2 C -1,6 C 0,0 C 75 % 0 % 0 lf 1008,1 hPa 0,0 l/m 0 min 0 min 0,000 mm 0,0 UV-I 0 W/m 26,6 km/h (4 Bft) 0,00 %
13.12.2012 13:18 10,4 C 0,3 C -23,2 C -1,7 C 0,0 C 75 % 0 % 0 lf 1007,8 hPa 0,0 l/m 0 min 0 min 0,000 mm 0,0 UV-I 0 W/m 9,0 km/h (2 Bft) 0,00 %
13.12.2012 13:20 10,4 C 0,4 C -23,2 C -1,6 C 0,0 C 75 % 0 % 0 lf 1007,8 hPa 0,0 l/m 0 min 0 min 0,000 mm 0,0 UV-I 0 W/m 9,0 km/h (2 Bft) 0,00 %
13.12.2012 13:22 10,4 C 0,4 C -23,2 C -1,6 C 0,0 C 74 % 0 % 0 lf 1007,8 hPa 0,0 l/m 0 min 0 min 0,000 mm 0,0 UV-I 0 W/m 33,1 km/h (5 Bft) 0,00 %
13.12.2012 13:24 10,4 C 0,3 C -23,2 C -1,6 C 0,0 C 74 % 0 % 0 lf 1007,8 hPa 0,0 l/m 0 min 0 min 0,000 mm 0,0 UV-I 0 W/m 27,6 km/h (4 Bft) 0,00 %
13.12.2012 13:26 10,4 C 0,3 C -23,2 C -1,6 C 0,0 C 74 % 0 % 0 lf 1007,8 hPa 0,0 l/m 0 min 0 min 0,000 mm 0,0 UV-I 0 W/m 35,1 km/h (5 Bft) 0,00 %
13.12.2012 13:28 10,4 C 0,3 C -23,2 C -1,5 C 0,0 C 74 % 0 % 0 lf 1007,8 hPa 0,0 l/m 0 min 0 min 0,000 mm 0,0 UV-I 0 W/m 18,6 km/h (3 Bft) 0,00 %
13.12.2012 13:30 10,4 C 0,3 C -23,2 C -1,6 C 0,0 C 74 % 0 % 0 lf 1007,8 hPa 0,0 l/m 0 min 0 min 0,000 mm 0,0 UV-I 0 W/m 33,1 km/h (5 Bft) 0,00 %
13.12.2012 13:32 10,4 C 0,3 C -23,2 C -1,6 C 0,0 C 75 % 0 % 0 lf 1007,8 hPa 0,0 l/m 0 min 0 min 0,000 mm 0,0 UV-I 0 W/m 13,5 km/h (3 Bft) 0,00 %
13.12.2012 13:34 10,4 C 0,3 C -23,2 C -1,6 C 0,0 C 75 % 0 % 0 lf 1007,8 hPa 0,0 l/m 0 min 0 min 0,000 mm 0,0 UV-I 0 W/m 18,6 km/h (3 Bft) 0,00 %
13.12.2012 13:36 10,4 C 0,3 C -23,2 C -1,6 C 0,0 C 75 % 0 % 0 lf 1007,8 hPa 0,0 l/m 0 min 0 min 0,000 mm 0,0 UV-I 0 W/m 20,1 km/h (4 Bft) 0,00 %
13.12.2012 13:38 10,4 C 0,4 C -23,2 C -1,6 C 0,0 C 75 % 0 % 0 lf 1007,9 hPa 0,0 l/m 0 min 0 min 0,000 mm 0,0 UV-I 0 W/m 12,0 km/h (2 Bft) 0,00 %
13.12.2012 13:40 10,4 C 0,4 C -23,2 C -1,6 C 0,0 C 75 % 0 % 0 lf 1007,9 hPa 0,0 l/m 0 min 0 min 0,000 mm 0,0 UV-I 0 W/m 10,5 km/h (2 Bft) 0,00 %
13.12.2012 13:42 10,3 C 0,4 C -23,2 C -1,5 C 0,0 C 75 % 0 % 0 lf 1007,9 hPa 0,0 l/m 0 min 0 min 0,000 mm 0,0 UV-I 0 W/m 18,1 km/h (3 Bft) 0,00 %
13.12.2012 13:44 10,3 C 0,4 C -23,2 C -1,6 C 0,0 C 75 % 0 % 0 lf 1007,9 hPa 0,0 l/m 0 min 0 min 0,000 mm 0,0 UV-I 0 W/m 34,1 km/h (5 Bft) 0,00 %
13.12.2012 13:46 10,4 C 0,4 C -23,2 C -1,6 C 0,0 C 75 % 0 % 0 lf 1007,9 hPa 0,0 l/m 0 min 0 min 0,000 mm 0,0 UV-I 0 W/m 10,5 km/h (2 Bft) 0,00 %
13.12.2012 13:48 10,3 C 0,5 C -23,2 C -1,5 C 0,0 C 75 % 0 % 0 lf 1007,9 hPa 0,0 l/m 0 min 0 min 0,000 mm 0,0 UV-I 0 W/m 13,0 km/h (3 Bft) 0,00 %
13.12.2012 13:50 10,3 C 0,5 C -23,2 C -1,6 C 0,0 C 75 % 0 % 0 lf 1007,9 hPa 0,0 l/m 0 min 0 min 0,000 mm 0,0 UV-I 0 W/m 13,0 km/h (3 Bft) 0,00 %
13.12.2012 13:52 10,3 C 0,4 C -23,2 C -1,6 C 0,0 C 75 % 0 % 0 lf 1007,9 hPa 0,0 l/m 0 min 0 min 0,000 mm 0,0 UV-I 0 W/m 34,6 km/h (5 Bft) 0,00 %
13.12.2012 13:54 10,3 C 0,4 C -23,2 C -1,5 C 0,0 C 75 % 0 % 0 lf 1007,9 hPa 0,0 l/m 0 min 0 min 0,000 mm 0,0 UV-I 0 W/m 24,1 km/h (4 Bft) 0,00 %
13.12.2012 13:56 10,5 C 0,5 C -23,2 C -1,6 C 0,0 C 75 % 0 % 0 lf 1007,9 hPa 0,0 l/m 0 min 0 min 0,000 mm 0,0 UV-I 0 W/m 21,1 km/h (4 Bft) 0,00 %
13.12.2012 13:58 10,3 C 0,4 C -23,2 C -1,6 C 0,0 C 75 % 0 % 0 lf 1007,4 hPa 0,0 l/m 0 min 0 min 0,000 mm 0,0 UV-I 0 W/m 19,1 km/h (3 Bft) 0,00 %
13.12.2012 14:00 10,5 C 0,5 C -23,2 C -1,6 C 0,0 C 75 % 0 % 0 lf 1007,4 hPa 0,0 l/m 0 min 0 min 0,000 mm 0,0 UV-I 0 W/m 28,6 km/h (4 Bft) 0,00 %
13.12.2012 14:02 10,3 C 0,4 C -23,2 C -1,6 C 0,0 C 75 % 0 % 0 lf 1007,4 hPa 0,0 l/m 0 min 0 min 0,000 mm 0,0 UV-I 0 W/m 22,1 km/h (4 Bft) 0,00 %
13.12.2012 14:04 10,5 C 0,4 C -23,2 C -1,6 C 0,0 C 75 % 0 % 0 lf 1007,4 hPa 0,0 l/m 0 min 0 min 0,000 mm 0,0 UV-I 0 W/m 14,0 km/h (3 Bft) 0,00 %
13.12.2012 14:06 10,3 C 0,4 C -23,2 C -1,6 C 0,0 C 75 % 0 % 0 lf 1007,4 hPa 0,0 l/m 0 min 0 min 0,000 mm 0,0 UV-I 0 W/m 31,1 km/h (5 Bft) 0,00 %
13.12.2012 14:08 10,5 C 0,5 C -23,2 C -1,6 C 0,0 C 75 % 0 % 0 lf 1007,4 hPa 0,0 l/m 0 min 0 min 0,000 mm 0,0 UV-I 0 W/m 13,5 km/h (3 Bft) 0,00 %
13.12.2012 14:10 10,5 C 0,4 C -23,2 C -1,5 C 0,0 C 75 % 0 % 0 lf 1007,4 hPa 0,0 l/m 0 min 0 min 0,000 mm 0,0 UV-I 0 W/m 26,6 km/h (4 Bft) 0,00 %
13.12.2012 14:12 10,3 C 0,4 C -23,2 C -1,5 C 0,0 C 76 % 0 % 0 lf 1007,4 hPa 0,0 l/m 0 min 0 min 0,000 mm 0,0 UV-I 0 W/m 10,5 km/h (2 Bft) 0,00 %
13.12.2012 14:14 10,5 C 0,5 C -23,2 C -1,6 C 0,0 C 76 % 0 % 0 lf 1007,4 hPa 0,0 l/m 0 min 0 min 0,000 mm 0,0 UV-I 0 W/m 17,6 km/h (3 Bft) 0,00 %
13.12.2012 14:16 10,5 C 0,5 C -23,2 C -1,6 C 0,0 C 76 % 0 % 0 lf 1007,4 hPa 0,0 l/m 0 min 0 min 0,000 mm 0,0 UV-I 0 W/m 20,1 km/h (4 Bft) 0,00 %
13.12.2012 14:18 10,5 C 0,5 C -23,2 C -1,6 C 0,0 C 76 % 0 % 0 lf 1007,5 hPa 0,0 l/m 0 min 0 min 0,000 mm 0,0 UV-I 0 W/m 20,1 km/h (4 Bft) 0,00 %
13.12.2012 14:20 10,5 C 0,4 C -23,2 C -1,6 C 0,0 C 76 % 0 % 0 lf 1007,5 hPa 0,0 l/m 0 min 0 min 0,000 mm 0,0 UV-I 0 W/m 12,5 km/h (3 Bft) 0,00 %
13.12.2012 14:22 10,5 C 0,4 C -23,2 C -1,6 C 0,0 C 76 % 0 % 0 lf 1007,5 hPa 0,0 l/m 0 min 0 min 0,000 mm 0,0 UV-I 0 W/m 24,6 km/h (4 Bft) 0,00 %
13.12.2012 14:24 10,5 C 0,4 C -23,2 C -1,6 C 0,0 C 76 % 0 % 0 lf 1007,5 hPa 0,0 l/m 0 min 0 min 0,000 mm 0,0 UV-I 0 W/m 24,6 km/h (4 Bft) 0,00 %
13.12.2012 14:26 10,5 C 0,5 C -23,2 C -1,6 C 0,0 C 76 % 0 % 0 lf 1007,5 hPa 0,0 l/m 0 min 0 min 0,000 mm 0,0 UV-I 0 W/m 15,5 km/h (3 Bft) 0,00 %
13.12.2012 14:28 10,4 C 0,4 C -23,2 C -1,6 C 0,0 C 76 % 0 % 0 lf 1007,5 hPa 0,0 l/m 0 min 0 min 0,000 mm 0,0 UV-I 0 W/m 13,0 km/h (3 Bft) 0,00 %
13.12.2012 14:30 10,4 C 0,4 C -23,2 C -1,6 C 0,0 C 76 % 0 % 0 lf 1007,5 hPa 0,0 l/m 0 min 0 min 0,000 mm 0,0 UV-I 0 W/m 8,5 km/h (2 Bft) 0,00 %
13.12.2012 14:32 10,4 C 0,5 C -23,2 C -1,6 C 0,0 C 76 % 0 % 0 lf 1007,5 hPa 0,0 l/m 0 min 0 min 0,000 mm 0,0 UV-I 0 W/m 24,1 km/h (4 Bft) 0,00 %
13.12.2012 14:34 10,4 C 0,5 C -23,2 C -1,6 C 0,0 C 76 % 0 % 0 lf 1007,5 hPa 0,0 l/m 0 min 0 min 0,000 mm 0,0 UV-I 0 W/m 11,0 km/h (2 Bft) 0,00 %
13.12.2012 14:36 10,4 C 0,5 C -23,2 C -1,7 C 0,0 C 76 % 0 % 0 lf 1007,5 hPa 0,0 l/m 0 min 0 min 0,000 mm 0,0 UV-I 0 W/m 20,1 km/h (4 Bft) 0,00 %
13.12.2012 14:38 10,4 C 0,5 C -23,2 C -1,7 C 0,0 C 76 % 0 % 0 lf 1007,1 hPa 0,0 l/m 0 min 0 min 0,000 mm 0,0 UV-I 0 W/m 20,6 km/h (4 Bft) 0,00 %
13.12.2012 14:40 10,4 C 0,5 C -23,2 C -1,8 C 0,0 C 76 % 0 % 0 lf 1007,1 hPa 0,0 l/m 0 min 0 min 0,000 mm 0,0 UV-I 0 W/m 7,0 km/h (2 Bft) 0,00 %
13.12.2012 14:42 10,4 C 0,5 C -23,2 C -1,8 C 0,0 C 77 % 0 % 0 lf 1007,1 hPa 0,0 l/m 0 min 0 min 0,000 mm 0,0 UV-I 0 W/m 9,0 km/h (2 Bft) 0,00 %
13.12.2012 14:44 10,4 C 0,5 C -23,2 C -1,8 C 0,0 C 77 % 0 % 0 lf 1007,1 hPa 0,0 l/m 0 min 0 min 0,000 mm 0,0 UV-I 0 W/m 16,0 km/h (3 Bft) 0,00 %
13.12.2012 14:46 10,4 C 0,5 C -23,2 C -1,7 C 0,0 C 76 % 0 % 0 lf 1007,1 hPa 0,0 l/m 0 min 0 min 0,000 mm 0,0 UV-I 0 W/m 16,6 km/h (3 Bft) 0,00 %
13.12.2012 14:48 10,4 C 0,5 C -23,2 C -1,7 C 0,0 C 77 % 0 % 0 lf 1007,1 hPa 0,0 l/m 0 min 0 min 0,000 mm 0,0 UV-I 0 W/m 25,6 km/h (4 Bft) 0,00 %
13.12.2012 14:50 10,4 C 0,5 C -23,2 C -1,9 C 0,0 C 77 % 0 % 0 lf 1007,1 hPa 0,0 l/m 0 min 0 min 0,000 mm 0,0 UV-I 0 W/m 10,0 km/h (2 Bft) 0,00 %
13.12.2012 14:52 10,4 C 0,5 C -23,2 C -1,7 C 0,0 C 77 % 0 % 0 lf 1007,1 hPa 0,0 l/m 0 min 0 min 0,000 mm 0,0 UV-I 0 W/m 14,5 km/h (3 Bft) 0,00 %
13.12.2012 14:54 10,4 C 0,5 C -23,2 C -1,7 C 0,0 C 77 % 0 % 0 lf 1007,1 hPa 0,0 l/m 0 min 0 min 0,000 mm 0,0 UV-I 0 W/m 14,0 km/h (3 Bft) 0,00 %
13.12.2012 14:56 10,4 C 0,5 C -23,2 C -1,9 C 0,0 C 77 % 0 % 0 lf 1007,1 hPa 0,0 l/m 0 min 0 min 0,000 mm 0,0 UV-I 0 W/m 14,0 km/h (3 Bft) 0,00 %
13.12.2012 14:58 10,4 C 0,5 C -23,2 C -1,8 C 0,0 C 77 % 0 % 0 lf 1007,1 hPa 0,0 l/m 0 min 0 min 0,000 mm 0,0 UV-I 0 W/m 13,0 km/h (3 Bft) 0,00 %
13.12.2012 15:00 10,4 C 0,5 C -23,2 C -1,9 C 0,0 C 77 % 0 % 0 lf 1007,1 hPa 0,0 l/m 0 min 0 min 0,000 mm 0,0 UV-I 0 W/m 8,0 km/h (2 Bft) 0,00 %
13.12.2012 15:02 10,4 C 0,5 C -23,2 C -1,9 C 0,0 C 77 % 0 % 0 lf 1007,1 hPa 0,0 l/m 0 min 0 min 0,000 mm 0,0 UV-I 0 W/m 16,6 km/h (3 Bft) 0,00 %
13.12.2012 15:04 10,4 C 0,5 C -23,2 C -1,9 C 0,0 C 77 % 0 % 0 lf 1007,1 hPa 0,0 l/m 0 min 0 min 0,000 mm 0,0 UV-I 0 W/m 15,0 km/h (3 Bft) 0,00 %
13.12.2012 15:06 10,4 C 0,6 C -23,2 C -2,0 C 0,0 C 77 % 0 % 0 lf 1007,1 hPa 0,0 l/m 0 min 0 min 0,000 mm 0,0 UV-I 0 W/m 11,5 km/h (2 Bft) 0,00 %
13.12.2012 15:08 10,4 C 0,6 C -23,2 C -2,0 C 0,0 C 77 % 0 % 0 lf 1007,1 hPa 0,0 l/m 0 min 0 min 0,000 mm 0,0 UV-I 0 W/m 5,0 km/h (1 Bft) 0,00 %
13.12.2012 15:10 10,4 C 0,5 C -23,2 C -2,0 C 0,0 C 77 % 0 % 0 lf 1007,1 hPa 0,0 l/m 0 min 0 min 0,000 mm 0,0 UV-I 0 W/m 6,0 km/h (2 Bft) 0,00 %
13.12.2012 15:12 10,4 C 0,7 C -23,2 C -2,0 C 0,0 C 77 % 0 % 0 lf 1007,1 hPa 0,0 l/m 0 min 0 min 0,000 mm 0,0 UV-I 0 W/m 9,0 km/h (2 Bft) 0,00 %
13.12.2012 15:14 10,4 C 0,6 C -23,2 C -2,0 C 0,0 C 77 % 0 % 0 lf 1007,1 hPa 0,0 l/m 0 min 0 min 0,000 mm 0,0 UV-I 0 W/m 14,0 km/h (3 Bft) 0,00 %
13.12.2012 15:16 10,4 C 0,5 C -23,2 C -1,9 C 0,0 C 77 % 0 % 0 lf 1007,1 hPa 0,0 l/m 0 min 0 min 0,000 mm 0,0 UV-I 0 W/m 19,6 km/h (3 Bft) 0,00 %
13.12.2012 15:18 10,4 C 0,6 C -23,2 C -2,1 C 0,0 C 77 % 0 % 0 lf 1006,9 hPa 0,0 l/m 0 min 0 min 0,000 mm 0,0 UV-I 0 W/m 10,5 km/h (2 Bft) 0,00 %
13.12.2012 15:20 10,4 C 0,5 C -23,2 C -2,1 C 0,0 C 77 % 0 % 0 lf 1006,9 hPa 0,0 l/m 0 min 0 min 0,000 mm 0,0 UV-I 0 W/m 9,0 km/h (2 Bft) 0,00 %
13.12.2012 15:22 10,4 C 0,5 C -23,2 C -2,1 C 0,0 C 77 % 0 % 0 lf 1006,9 hPa 0,0 l/m 0 min 0 min 0,000 mm 0,0 UV-I 0 W/m 13,5 km/h (3 Bft) 0,00 %
13.12.2012 15:24 10,4 C 0,6 C -23,2 C -2,1 C 0,0 C 77 % 0 % 0 lf 1006,9 hPa 0,0 l/m 0 min 0 min 0,000 mm 0,0 UV-I 0 W/m 24,1 km/h (4 Bft) 0,00 %
13.12.2012 15:26 10,4 C 0,5 C -23,2 C -2,1 C 0,0 C 77 % 0 % 0 lf 1006,9 hPa 0,0 l/m 0 min 0 min 0,000 mm 0,0 UV-I 0 W/m 9,5 km/h (2 Bft) 0,00 %
13.12.2012 15:28 10,4 C 0,5 C -23,2 C -2,1 C 0,0 C 77 % 0 % 0 lf 1006,9 hPa 0,0 l/m 0 min 0 min 0,000 mm 0,0 UV-I 0 W/m 9,5 km/h (2 Bft) 0,00 %
13.12.2012 15:30 10,4 C 0,5 C -23,2 C -2,1 C 0,0 C 77 % 0 % 0 lf 1006,9 hPa 0,0 l/m 0 min 0 min 0,000 mm 0,0 UV-I 0 W/m 15,5 km/h (3 Bft) 0,00 %
13.12.2012 15:32 10,4 C 0,5 C -23,2 C -2,1 C 0,0 C 77 % 0 % 0 lf 1006,9 hPa 0,0 l/m 0 min 0 min 0,000 mm 0,0 UV-I 0 W/m 8,5 km/h (2 Bft) 0,00 %
13.12.2012 15:34 10,4 C 0,5 C -23,2 C -2,3 C 0,0 C 77 % 0 % 0 lf 1006,9 hPa 0,0 l/m 0 min 0 min 0,000 mm 0,0 UV-I 0 W/m 12,5 km/h (3 Bft) 0,00 %
13.12.2012 15:36 10,4 C 0,5 C -23,2 C -2,3 C 0,0 C 77 % 0 % 0 lf 1006,9 hPa 0,0 l/m 0 min 0 min 0,000 mm 0,0 UV-I 0 W/m 13,5 km/h (3 Bft) 0,00 %
13.12.2012 15:38 10,5 C 0,5 C -23,2 C -2,3 C 0,0 C 77 % 0 % 0 lf 1006,7 hPa 0,0 l/m 0 min 0 min 0,000 mm 0,0 UV-I 0 W/m 24,6 km/h (4 Bft) 0,00 %
13.12.2012 15:40 10,5 C 0,5 C -23,2 C -2,3 C 0,0 C 77 % 0 % 0 lf 1006,7 hPa 0,0 l/m 0 min 0 min 0,000 mm 0,0 UV-I 0 W/m 14,0 km/h (3 Bft) 0,00 %
13.12.2012 15:42 10,5 C 0,5 C -23,2 C -2,4 C 0,0 C 77 % 0 % 0 lf 1006,7 hPa 0,0 l/m 0 min 0 min 0,000 mm 0,0 UV-I 0 W/m 20,6 km/h (4 Bft) 0,00 %
13.12.2012 15:44 10,5 C 0,5 C -23,2 C -2,3 C 0,0 C 77 % 0 % 0 lf 1006,7 hPa 0,0 l/m 0 min 0 min 0,000 mm 0,0 UV-I 0 W/m 15,5 km/h (3 Bft) 0,00 %
13.12.2012 15:46 10,3 C 0,5 C -23,2 C -2,5 C 0,0 C 78 % 0 % 0 lf 1006,7 hPa 0,0 l/m 0 min 0 min 0,000 mm 0,0 UV-I 0 W/m 15,5 km/h (3 Bft) 0,00 %
13.12.2012 15:48 10,3 C 0,4 C -23,2 C -2,5 C 0,0 C 78 % 0 % 0 lf 1006,7 hPa 0,0 l/m 0 min 0 min 0,000 mm 0,0 UV-I 0 W/m 15,0 km/h (3 Bft) 0,00 %
13.12.2012 15:50 10,3 C 0,4 C -23,2 C -2,5 C 0,0 C 78 % 0 % 0 lf 1006,7 hPa 0,0 l/m 0 min 0 min 0,000 mm 0,0 UV-I 0 W/m 19,6 km/h (3 Bft) 0,00 %
13.12.2012 15:52 10,3 C 0,4 C -23,2 C -2,5 C 0,0 C 78 % 0 % 0 lf 1006,7 hPa 0,0 l/m 0 min 0 min 0,000 mm 0,0 UV-I 0 W/m 13,5 km/h (3 Bft) 0,00 %
13.12.2012 15:54 10,3 C 0,4 C -23,2 C -2,5 C 0,0 C 78 % 0 % 0 lf 1006,7 hPa 0,0 l/m 0 min 0 min 0,000 mm 0,0 UV-I 0 W/m 13,5 km/h (3 Bft) 0,00 %
13.12.2012 15:56 10,3 C 0,4 C -23,2 C -2,5 C 0,0 C 78 % 0 % 0 lf 1006,7 hPa 0,0 l/m 0 min 0 min 0,000 mm 0,0 UV-I 0 W/m 13,5 km/h (3 Bft) 0,00 %
13.12.2012 15:58 10,3 C 0,4 C -23,2 C -2,5 C 0,0 C 78 % 0 % 0 lf 1006,6 hPa 0,0 l/m 0 min 0 min 0,000 mm 0,0 UV-I 0 W/m 13,5 km/h (3 Bft) 0,00 %
13.12.2012 16:00 10,3 C 0,4 C -23,2 C -2,5 C 0,0 C 78 % 0 % 0 lf 1006,6 hPa 0,0 l/m 0 min 0 min 0,000 mm 0,0 UV-I 0 W/m 9,5 km/h (2 Bft) 0,00 %
13.12.2012 16:02 10,3 C 0,5 C -23,2 C -2,5 C 0,0 C 78 % 0 % 0 lf 1006,6 hPa 0,0 l/m 0 min 0 min 0,000 mm 0,0 UV-I 0 W/m 14,0 km/h (3 Bft) 0,00 %
13.12.2012 16:04 10,3 C 0,4 C -23,2 C -2,5 C 0,0 C 78 % 0 % 0 lf 1006,6 hPa 0,0 l/m 0 min 0 min 0,000 mm 0,0 UV-I 0 W/m 13,0 km/h (3 Bft) 0,00 %
13.12.2012 16:06 10,3 C 0,4 C -23,2 C -2,5 C 0,0 C 78 % 0 % 0 lf 1006,6 hPa 0,0 l/m 0 min 0 min 0,000 mm 0,0 UV-I 0 W/m 15,0 km/h (3 Bft) 0,00 %
13.12.2012 16:08 10,3 C 0,4 C -23,2 C -2,5 C 0,0 C 78 % 0 % 0 lf 1006,6 hPa 0,0 l/m 0 min 0 min 0,000 mm 0,0 UV-I 0 W/m 15,0 km/h (3 Bft) 0,00 %
13.12.2012 16:10 10,3 C 0,3 C -23,2 C -2,5 C 0,0 C 78 % 0 % 0 lf 1006,6 hPa 0,0 l/m 0 min 0 min 0,000 mm 0,0 UV-I 0 W/m 12,0 km/h (2 Bft) 0,00 %
13.12.2012 16:12 10,3 C 0,4 C -23,2 C -3,3 C 0,0 C 78 % 0 % 0 lf 1006,6 hPa 0,0 l/m 0 min 0 min 0,000 mm 0,0 UV-I 0 W/m 14,0 km/h (3 Bft) 0,00 %
13.12.2012 16:14 10,3 C 0,3 C -23,2 C -3,3 C 0,0 C 78 % 0 % 0 lf 1006,6 hPa 0,0 l/m 0 min 0 min 0,000 mm 0,0 UV-I 0 W/m 14,5 km/h (3 Bft) 0,00 %
13.12.2012 16:16 10,3 C 0,3 C -23,2 C -3,3 C 0,0 C 78 % 0 % 0 lf 1006,6 hPa 0,0 l/m 0 min 0 min 0,000 mm 0,0 UV-I 0 W/m 10,0 km/h (2 Bft) 0,00 %
13.12.2012 16:18 10,3 C 0,4 C -23,2 C -3,1 C 0,0 C 79 % 0 % 0 lf 1006,3 hPa 0,0 l/m 0 min 0 min 0,000 mm 0,0 UV-I 0 W/m 15,0 km/h (3 Bft) 0,00 %
13.12.2012 16:20 10,3 C 0,3 C -23,2 C -2,9 C 0,0 C 79 % 0 % 0 lf 1006,3 hPa 0,0 l/m 0 min 0 min 0,000 mm 0,0 UV-I 0 W/m 18,1 km/h (3 Bft) 0,00 %
13.12.2012 16:22 10,4 C 0,3 C -23,2 C -2,7 C 0,0 C 79 % 0 % 0 lf 1006,3 hPa 0,0 l/m 0 min 0 min 0,000 mm 0,0 UV-I 0 W/m 18,1 km/h (3 Bft) 0,00 %
13.12.2012 16:24 10,3 C 0,3 C -23,2 C -2,5 C 0,0 C 79 % 0 % 0 lf 1006,3 hPa 0,0 l/m 0 min 0 min 0,000 mm 0,0 UV-I 0 W/m 9,5 km/h (2 Bft) 0,00 %
13.12.2012 16:26 10,4 C 0,3 C -23,2 C -2,4 C 0,0 C 79 % 0 % 0 lf 1006,3 hPa 0,0 l/m 0 min 0 min 0,000 mm 0,0 UV-I 0 W/m 6,0 km/h (2 Bft) 0,00 %
13.12.2012 16:28 10,4 C 0,3 C -23,2 C -2,5 C 0,0 C 79 % 0 % 0 lf 1006,3 hPa 0,0 l/m 0 min 0 min 0,000 mm 0,0 UV-I 0 W/m 15,0 km/h (3 Bft) 0,00 %
13.12.2012 16:30 10,4 C 0,3 C -23,2 C -2,1 C 0,0 C 79 % 0 % 0 lf 1006,3 hPa 0,0 l/m 0 min 0 min 0,000 mm 0,0 UV-I 0 W/m 14,5 km/h (3 Bft) 0,00 %
13.12.2012 16:32 10,4 C 0,3 C -23,2 C -2,2 C 0,0 C 79 % 0 % 0 lf 1006,3 hPa 0,0 l/m 0 min 0 min 0,000 mm 0,0 UV-I 0 W/m 17,1 km/h (3 Bft) 0,00 %
13.12.2012 16:34 10,4 C 0,3 C -23,2 C -2,1 C 0,0 C 79 % 0 % 0 lf 1006,3 hPa 0,0 l/m 0 min 0 min 0,000 mm 0,0 UV-I 0 W/m 24,6 km/h (4 Bft) 0,00 %
13.12.2012 16:36 10,4 C 0,3 C -23,2 C -2,1 C 0,0 C 79 % 0 % 0 lf 1006,3 hPa 0,0 l/m 0 min 0 min 0,000 mm 0,0 UV-I 0 W/m 14,0 km/h (3 Bft) 0,00 %
13.12.2012 16:38 10,4 C 0,3 C -23,2 C -2,1 C 0,0 C 79 % 0 % 0 lf 1006,6 hPa 0,0 l/m 0 min 0 min 0,000 mm 0,0 UV-I 0 W/m 22,1 km/h (4 Bft) 0,00 %
13.12.2012 16:40 10,4 C 0,3 C -23,2 C -2,1 C 0,0 C 79 % 0 % 0 lf 1006,6 hPa 0,0 l/m 0 min 0 min 0,000 mm 0,0 UV-I 0 W/m 22,1 km/h (4 Bft) 0,00 %
13.12.2012 16:42 10,4 C 0,3 C -23,2 C -2,3 C 0,0 C 79 % 0 % 0 lf 1006,6 hPa 0,0 l/m 0 min 0 min 0,000 mm 0,0 UV-I 0 W/m 12,5 km/h (3 Bft) 0,00 %
13.12.2012 16:44 10,4 C 0,3 C -23,2 C -2,3 C 0,0 C 80 % 0 % 0 lf 1006,6 hPa 0,0 l/m 0 min 0 min 0,000 mm 0,0 UV-I 0 W/m 12,5 km/h (3 Bft) 0,00 %
13.12.2012 16:46 10,4 C 0,3 C -23,2 C -2,3 C 0,0 C 80 % 0 % 0 lf 1006,6 hPa 0,0 l/m 0 min 0 min 0,000 mm 0,0 UV-I 0 W/m 15,0 km/h (3 Bft) 0,00 %
13.12.2012 16:48 10,4 C 0,3 C -23,2 C -2,3 C 0,0 C 80 % 0 % 0 lf 1006,6 hPa 0,0 l/m 0 min 0 min 0,000 mm 0,0 UV-I 0 W/m 7,5 km/h (2 Bft) 0,00 %
13.12.2012 16:50 10,2 C 0,3 C -23,2 C -2,3 C 0,0 C 80 % 0 % 0 lf 1006,6 hPa 0,0 l/m 0 min 0 min 0,000 mm 0,0 UV-I 0 W/m 13,5 km/h (3 Bft) 0,00 %
13.12.2012 16:52 10,4 C 0,3 C -23,2 C -2,3 C 0,0 C 80 % 0 % 0 lf 1006,6 hPa 0,0 l/m 0 min 0 min 0,000 mm 0,0 UV-I 0 W/m 15,0 km/h (3 Bft) 0,00 %
13.12.2012 16:54 10,2 C 0,3 C -23,2 C -2,3 C 0,0 C 80 % 0 % 0 lf 1006,6 hPa 0,0 l/m 0 min 0 min 0,000 mm 0,0 UV-I 0 W/m 19,1 km/h (3 Bft) 0,00 %
13.12.2012 16:56 10,4 C 0,3 C -23,2 C -2,4 C 0,0 C 80 % 0 % 0 lf 1006,6 hPa 0,0 l/m 0 min 0 min 0,000 mm 0,0 UV-I 0 W/m 19,1 km/h (3 Bft) 0,00 %
13.12.2012 16:58 10,4 C 0,3 C -23,2 C -2,3 C 0,0 C 80 % 0 % 0 lf 1006,3 hPa 0,0 l/m 0 min 0 min 0,000 mm 0,0 UV-I 0 W/m 13,5 km/h (3 Bft) 0,00 %
13.12.2012 17:00 10,2 C 0,3 C -23,2 C -2,4 C 0,0 C 80 % 0 % 0 lf 1006,3 hPa 0,0 l/m 0 min 0 min 0,000 mm 0,0 UV-I 0 W/m 12,0 km/h (2 Bft) 0,00 %
13.12.2012 17:02 10,3 C 0,3 C -23,2 C -2,3 C 0,0 C 80 % 0 % 0 lf 1006,3 hPa 0,0 l/m 0 min 0 min 0,000 mm 0,0 UV-I 0 W/m 14,0 km/h (3 Bft) 0,00 %
13.12.2012 17:04 10,2 C 0,3 C -23,2 C -2,4 C 0,0 C 80 % 0 % 0 lf 1006,3 hPa 0,0 l/m 0 min 0 min 0,000 mm 0,0 UV-I 0 W/m 15,0 km/h (3 Bft) 0,00 %
13.12.2012 17:06 10,3 C 0,3 C -23,2 C -2,4 C 0,0 C 80 % 0 % 0 lf 1006,3 hPa 0,0 l/m 0 min 0 min 0,000 mm 0,0 UV-I 0 W/m 28,6 km/h (4 Bft) 0,00 %
13.12.2012 17:08 10,3 C 0,3 C -23,2 C -2,4 C 0,0 C 80 % 0 % 0 lf 1006,3 hPa 0,0 l/m 0 min 0 min 0,000 mm 0,0 UV-I 0 W/m 15,5 km/h (3 Bft) 0,00 %
13.12.2012 17:10 10,3 C 0,3 C -23,2 C -2,4 C 0,0 C 80 % 0 % 0 lf 1006,3 hPa 0,0 l/m 0 min 0 min 0,000 mm 0,0 UV-I 0 W/m 23,1 km/h (4 Bft) 0,00 %
13.12.2012 17:12 10,3 C 0,3 C -23,2 C -2,3 C 0,0 C 80 % 0 % 0 lf 1006,3 hPa 0,0 l/m 0 min 0 min 0,000 mm 0,0 UV-I 0 W/m 17,1 km/h (3 Bft) 0,00 %
13.12.2012 17:14 10,3 C 0,3 C -23,2 C -2,5 C 0,0 C 80 % 0 % 0 lf 1006,3 hPa 0,0 l/m 0 min 0 min 0,000 mm 0,0 UV-I 0 W/m 18,1 km/h (3 Bft) 0,00 %
13.12.2012 17:16 10,3 C 0,2 C -23,2 C -2,5 C 0,0 C 80 % 0 % 0 lf 1006,3 hPa 0,0 l/m 0 min 0 min 0,000 mm 0,0 UV-I 0 W/m 19,6 km/h (3 Bft) 0,00 %
13.12.2012 17:18 10,3 C 0,3 C -23,2 C -2,5 C 0,0 C 80 % 0 % 0 lf 1006,2 hPa 0,0 l/m 0 min 0 min 0,000 mm 0,0 UV-I 0 W/m 11,0 km/h (2 Bft) 0,00 %
13.12.2012 17:20 10,3 C 0,2 C -23,2 C -2,5 C 0,0 C 80 % 0 % 0 lf 1006,2 hPa 0,0 l/m 0 min 0 min 0,000 mm 0,0 UV-I 0 W/m 9,5 km/h (2 Bft) 0,00 %
13.12.2012 17:22 10,3 C 0,2 C -23,2 C -2,5 C 0,0 C 80 % 0 % 0 lf 1006,2 hPa 0,0 l/m 0 min 0 min 0,000 mm 0,0 UV-I 0 W/m 18,6 km/h (3 Bft) 0,00 %
13.12.2012 17:24 10,3 C 0,3 C -23,2 C -2,5 C 0,0 C 80 % 0 % 0 lf 1006,2 hPa 0,0 l/m 0 min 0 min 0,000 mm 0,0 UV-I 0 W/m 24,6 km/h (4 Bft) 0,00 %
13.12.2012 17:26 10,1 C 0,3 C -23,2 C -2,5 C 0,0 C 80 % 0 % 0 lf 1006,2 hPa 0,0 l/m 0 min 0 min 0,000 mm 0,0 UV-I 0 W/m 24,6 km/h (4 Bft) 0,00 %
13.12.2012 17:28 10,3 C 0,3 C -23,2 C -2,7 C 0,0 C 80 % 0 % 0 lf 1006,2 hPa 0,0 l/m 0 min 0 min 0,000 mm 0,0 UV-I 0 W/m 12,0 km/h (2 Bft) 0,00 %
13.12.2012 17:30 10,1 C 0,3 C -23,2 C -2,7 C 0,0 C 80 % 0 % 0 lf 1006,2 hPa 0,0 l/m 0 min 0 min 0,000 mm 0,0 UV-I 0 W/m 16,0 km/h (3 Bft) 0,00 %
13.12.2012 17:32 10,1 C 0,3 C -23,2 C -2,7 C 0,0 C 80 % 0 % 0 lf 1006,2 hPa 0,0 l/m 0 min 0 min 0,000 mm 0,0 UV-I 0 W/m 16,0 km/h (3 Bft) 0,00 %
13.12.2012 17:34 10,3 C 0,2 C -23,2 C -2,7 C 0,0 C 80 % 0 % 0 lf 1006,2 hPa 0,0 l/m 0 min 0 min 0,000 mm 0,0 UV-I 0 W/m 12,0 km/h (2 Bft) 0,00 %
13.12.2012 17:36 10,1 C 0,1 C -23,2 C -2,7 C 0,0 C 80 % 0 % 0 lf 1006,2 hPa 0,0 l/m 0 min 0 min 0,000 mm 0,0 UV-I 0 W/m 21,6 km/h (4 Bft) 0,00 %
13.12.2012 17:38 10,1 C 0,2 C -23,2 C -2,7 C 0,0 C 80 % 0 % 0 lf 1006,2 hPa 0,0 l/m 0 min 0 min 0,000 mm 0,0 UV-I 0 W/m 11,5 km/h (2 Bft) 0,00 %
13.12.2012 17:40 10,1 C 0,1 C -23,2 C -2,8 C 0,0 C 81 % 0 % 0 lf 1006,2 hPa 0,0 l/m 0 min 0 min 0,000 mm 0,0 UV-I 0 W/m 13,5 km/h (3 Bft) 0,00 %
13.12.2012 17:42 10,1 C 0,1 C -23,2 C -2,8 C 0,0 C 81 % 0 % 0 lf 1006,2 hPa 0,0 l/m 0 min 0 min 0,000 mm 0,0 UV-I 0 W/m 18,1 km/h (3 Bft) 0,00 %
13.12.2012 17:44 10,1 C 0,1 C -23,2 C -2,7 C 0,0 C 81 % 0 % 0 lf 1006,2 hPa 0,0 l/m 0 min 0 min 0,000 mm 0,0 UV-I 0 W/m 6,5 km/h (2 Bft) 0,00 %
13.12.2012 17:46 10,2 C 0,1 C -23,2 C -2,9 C 0,0 C 81 % 0 % 0 lf 1006,2 hPa 0,0 l/m 0 min 0 min 0,000 mm 0,0 UV-I 0 W/m 17,6 km/h (3 Bft) 0,00 %
13.12.2012 17:48 10,2 C 0,1 C -23,2 C -2,9 C 0,0 C 81 % 0 % 0 lf 1006,2 hPa 0,0 l/m 0 min 0 min 0,000 mm 0,0 UV-I 0 W/m 16,6 km/h (3 Bft) 0,00 %
13.12.2012 17:50 10,2 C 0,1 C -23,2 C -2,9 C 0,0 C 81 % 0 % 0 lf 1006,2 hPa 0,0 l/m 0 min 0 min 0,000 mm 0,0 UV-I 0 W/m 18,6 km/h (3 Bft) 0,00 %
13.12.2012 17:52 10,2 C 0,1 C -23,2 C -2,9 C 0,0 C 81 % 0 % 0 lf 1006,2 hPa 0,0 l/m 0 min 0 min 0,000 mm 0,0 UV-I 0 W/m 16,6 km/h (3 Bft) 0,00 %
13.12.2012 17:54 10,2 C 0,1 C 28,5 C -2,9 C 0,0 C 81 % 0 % 0 lf 1006,2 hPa 0,0 l/m 0 min 0 min 0,000 mm 0,0 UV-I 0 W/m 17,6 km/h (3 Bft) 0,00 %
13.12.2012 17:56 10,2 C 0,0 C 28,5 C -2,9 C 0,0 C 81 % 0 % 0 lf 1006,2 hPa 0,0 l/m 0 min 0 min 0,000 mm 0,0 UV-I 0 W/m 17,6 km/h (3 Bft) 0,00 %
13.12.2012 17:58 10,2 C 0,0 C -23,3 C -2,9 C 0,0 C 81 % 0 % 0 lf 1005,9 hPa 0,0 l/m 0 min 0 min 0,000 mm 0,0 UV-I 0 W/m 24,6 km/h (4 Bft) 0,00 %
13.12.2012 18:00 10,2 C 0,0 C -23,3 C -3,0 C 0,0 C 81 % 0 % 0 lf 1005,9 hPa 0,0 l/m 0 min 0 min 0,000 mm 0,0 UV-I 0 W/m 11,0 km/h (2 Bft) 0,00 %
13.12.2012 18:02 10,2 C 0,0 C -23,3 C -3,1 C 0,0 C 81 % 0 % 0 lf 1005,9 hPa 0,0 l/m 0 min 0 min 0,000 mm 0,0 UV-I 0 W/m 9,5 km/h (2 Bft) 0,00 %
13.12.2012 18:04 10,2 C 0,1 C -23,3 C -3,1 C 0,0 C 81 % 0 % 0 lf 1005,9 hPa 0,0 l/m 0 min 0 min 0,000 mm 0,0 UV-I 0 W/m 14,0 km/h (3 Bft) 0,00 %
13.12.2012 18:06 10,2 C -0,1 C -23,3 C -3,1 C 0,0 C 81 % 0 % 0 lf 1005,9 hPa 0,0 l/m 0 min 0 min 0,000 mm 0,0 UV-I 0 W/m 15,0 km/h (3 Bft) 0,00 %
13.12.2012 18:08 10,2 C -0,1 C -23,3 C -3,2 C 0,0 C 81 % 0 % 0 lf 1005,9 hPa 0,0 l/m 0 min 0 min 0,000 mm 0,0 UV-I 0 W/m 15,0 km/h (3 Bft) 0,00 %
13.12.2012 18:10 10,2 C -0,1 C -23,3 C -3,2 C 0,0 C 81 % 0 % 0 lf 1005,9 hPa 0,0 l/m 0 min 0 min 0,000 mm 0,0 UV-I 0 W/m 21,6 km/h (4 Bft) 0,00 %
13.12.2012 18:12 10,2 C -0,1 C -23,3 C -3,1 C 0,0 C 82 % 0 % 0 lf 1005,9 hPa 0,0 l/m 0 min 0 min 0,000 mm 0,0 UV-I 0 W/m 15,0 km/h (3 Bft) 0,00 %
13.12.2012 18:14 10,2 C -0,1 C -23,3 C -3,3 C 0,0 C 82 % 0 % 0 lf 1005,9 hPa 0,0 l/m 0 min 0 min 0,000 mm 0,0 UV-I 0 W/m 15,0 km/h (3 Bft) 0,00 %
13.12.2012 18:16 10,2 C -0,1 C -23,3 C -3,3 C 0,0 C 82 % 0 % 0 lf 1005,9 hPa 0,0 l/m 0 min 0 min 0,000 mm 0,0 UV-I 0 W/m 15,0 km/h (3 Bft) 0,00 %
13.12.2012 18:18 10,2 C -0,1 C -23,3 C -3,3 C 0,0 C 82 % 0 % 0 lf 1006,1 hPa 0,0 l/m 0 min 0 min 0,000 mm 0,0 UV-I 0 W/m 24,6 km/h (4 Bft) 0,00 %
13.12.2012 18:20 10,2 C -0,1 C -23,2 C -3,1 C 0,0 C 82 % 0 % 0 lf 1006,1 hPa 0,0 l/m 0 min 0 min 0,000 mm 0,0 UV-I 0 W/m 24,6 km/h (4 Bft) 0,00 %
13.12.2012 18:22 10,2 C -0,1 C -23,2 C -3,2 C 0,0 C 82 % 0 % 0 lf 1006,1 hPa 0,0 l/m 0 min 0 min 0,000 mm 0,0 UV-I 0 W/m 17,1 km/h (3 Bft) 0,00 %
13.12.2012 18:24 10,2 C -0,1 C -23,3 C -3,1 C 0,0 C 82 % 0 % 0 lf 1006,1 hPa 0,0 l/m 0 min 0 min 0,000 mm 0,0 UV-I 0 W/m 16,0 km/h (3 Bft) 0,00 %
13.12.2012 18:26 10,2 C -0,1 C -23,3 C -3,1 C 0,0 C 82 % 0 % 0 lf 1006,1 hPa 0,0 l/m 0 min 0 min 0,000 mm 0,0 UV-I 0 W/m 20,6 km/h (4 Bft) 0,00 %
13.12.2012 18:28 10,2 C -0,1 C -23,2 C -2,9 C 0,0 C 82 % 0 % 0 lf 1006,1 hPa 0,0 l/m 0 min 0 min 0,000 mm 0,0 UV-I 0 W/m 6,5 km/h (2 Bft) 0,00 %
13.12.2012 18:30 10,2 C -0,1 C -23,2 C -2,9 C 0,0 C 82 % 0 % 0 lf 1006,1 hPa 0,0 l/m 0 min 0 min 0,000 mm 0,0 UV-I 0 W/m 5,5 km/h (1 Bft) 0,00 %
13.12.2012 18:32 10,1 C -0,1 C -23,2 C -2,9 C 0,0 C 82 % 0 % 0 lf 1006,1 hPa 0,0 l/m 0 min 0 min 0,000 mm 0,0 UV-I 0 W/m 13,0 km/h (3 Bft) 0,00 %
13.12.2012 18:34 10,2 C -0,1 C -23,2 C -2,9 C 0,0 C 82 % 0 % 0 lf 1006,1 hPa 0,0 l/m 0 min 0 min 0,000 mm 0,0 UV-I 0 W/m 15,5 km/h (3 Bft) 0,00 %
13.12.2012 18:36 10,2 C -0,1 C 28,5 C -2,9 C 0,0 C 82 % 0 % 0 lf 1006,1 hPa 0,0 l/m 0 min 0 min 0,000 mm 0,0 UV-I 0 W/m 14,5 km/h (3 Bft) 0,00 %
13.12.2012 18:38 10,1 C 0,1 C -23,2 C -2,8 C 0,0 C 82 % 0 % 0 lf 1005,8 hPa 0,0 l/m 0 min 0 min 0,000 mm 0,0 UV-I 0 W/m 22,1 km/h (4 Bft) 0,00 %
13.12.2012 18:40 10,2 C 0,0 C -23,2 C -2,8 C 0,0 C 82 % 0 % 0 lf 1005,8 hPa 0,0 l/m 0 min 0 min 0,000 mm 0,0 UV-I 0 W/m 15,5 km/h (3 Bft) 0,00 %
13.12.2012 18:42 10,2 C 0,1 C -23,2 C -2,7 C 0,0 C 83 % 0 % 0 lf 1005,8 hPa 0,0 l/m 0 min 0 min 0,000 mm 0,0 UV-I 0 W/m 12,0 km/h (2 Bft) 0,00 %
13.12.2012 18:44 10,2 C 0,1 C -23,2 C -2,7 C 0,0 C 82 % 0 % 0 lf 1005,8 hPa 0,0 l/m 0 min 0 min 0,000 mm 0,0 UV-I 0 W/m 20,6 km/h (4 Bft) 0,00 %
13.12.2012 18:46 10,1 C 0,1 C -23,2 C -2,7 C 0,0 C 82 % 0 % 0 lf 1005,8 hPa 0,0 l/m 0 min 0 min 0,000 mm 0,0 UV-I 0 W/m 23,1 km/h (4 Bft) 0,00 %
13.12.2012 18:48 10,1 C 0,1 C -23,2 C -2,7 C 0,0 C 82 % 0 % 0 lf 1005,8 hPa 0,0 l/m 0 min 0 min 0,000 mm 0,0 UV-I 0 W/m 23,1 km/h (4 Bft) 0,00 %
13.12.2012 18:50 10,1 C 0,1 C -23,2 C -2,7 C 0,0 C 83 % 0 % 0 lf 1005,8 hPa 0,0 l/m 0 min 0 min 0,000 mm 0,0 UV-I 0 W/m 15,0 km/h (3 Bft) 0,00 %
13.12.2012 18:52 10,1 C 0,1 C -23,2 C -2,7 C 0,0 C 83 % 0 % 0 lf 1005,8 hPa 0,0 l/m 0 min 0 min 0,000 mm 0,0 UV-I 0 W/m 18,1 km/h (3 Bft) 0,00 %
13.12.2012 18:54 10,2 C 0,0 C -23,2 C -2,5 C 0,0 C 83 % 0 % 0 lf 1005,8 hPa 0,0 l/m 0 min 0 min 0,000 mm 0,0 UV-I 0 W/m 18,1 km/h (3 Bft) 0,00 %
13.12.2012 18:56 10,2 C 0,0 C -23,2 C -2,5 C 0,0 C 83 % 0 % 0 lf 1005,8 hPa 0,0 l/m 0 min 0 min 0,000 mm 0,0 UV-I 0 W/m 19,6 km/h (3 Bft) 0,00 %
13.12.2012 18:58 10,2 C 0,0 C 28,5 C -2,5 C 0,0 C 83 % 0 % 0 lf 1005,7 hPa 0,0 l/m 0 min 0 min 0,000 mm 0,0 UV-I 0 W/m 27,6 km/h (4 Bft) 0,00 %
13.12.2012 19:00 10,2 C 0,0 C -23,2 C -2,5 C 0,0 C 83 % 0 % 0 lf 1005,7 hPa 0,0 l/m 0 min 0 min 0,000 mm 0,0 UV-I 0 W/m 12,0 km/h (2 Bft) 0,00 %
13.12.2012 19:02 10,1 C 0,0 C -23,2 C -2,5 C 0,0 C 83 % 0 % 0 lf 1005,7 hPa 0,0 l/m 0 min 0 min 0,000 mm 0,0 UV-I 0 W/m 12,5 km/h (3 Bft) 0,00 %
13.12.2012 19:04 10,1 C 0,0 C -23,2 C -2,3 C 0,0 C 83 % 0 % 0 lf 1005,7 hPa 0,0 l/m 0 min 0 min 0,000 mm 0,0 UV-I 0 W/m 11,0 km/h (2 Bft) 0,00 %
13.12.2012 19:06 10,1 C 0,0 C -23,2 C -2,4 C 0,0 C 83 % 0 % 0 lf 1005,7 hPa 0,0 l/m 0 min 0 min 0,000 mm 0,0 UV-I 0 W/m 11,0 km/h (2 Bft) 0,00 %
13.12.2012 19:08 10,2 C 0,0 C -23,2 C -2,3 C 0,0 C 83 % 0 % 0 lf 1005,7 hPa 0,0 l/m 0 min 0 min 0,000 mm 0,0 UV-I 0 W/m 11,5 km/h (2 Bft) 0,00 %
13.12.2012 19:10 10,1 C 0,1 C -23,2 C -2,3 C 0,0 C 83 % 0 % 0 lf 1005,7 hPa 0,0 l/m 0 min 0 min 0,000 mm 0,0 UV-I 0 W/m 20,1 km/h (4 Bft) 0,00 %
13.12.2012 19:12 10,1 C 0,1 C -23,2 C -2,3 C 0,0 C 83 % 0 % 0 lf 1005,7 hPa 0,0 l/m 0 min 0 min 0,000 mm 0,0 UV-I 0 W/m 29,6 km/h (5 Bft) 0,00 %
13.12.2012 19:14 10,2 C 0,1 C -23,2 C -2,1 C 0,0 C 83 % 0 % 0 lf 1005,7 hPa 0,0 l/m 0 min 0 min 0,000 mm 0,0 UV-I 0 W/m 26,6 km/h (4 Bft) 0,00 %
13.12.2012 19:16 10,1 C 0,1 C -23,2 C -2,1 C 0,0 C 83 % 0 % 0 lf 1005,7 hPa 0,0 l/m 0 min 0 min 0,000 mm 0,0 UV-I 0 W/m 20,1 km/h (4 Bft) 0,00 %
13.12.2012 19:18 10,1 C 0,1 C -23,2 C -2,1 C 0,0 C 83 % 0 % 0 lf 1005,6 hPa 0,0 l/m 0 min 0 min 0,000 mm 0,0 UV-I 0 W/m 18,1 km/h (3 Bft) 0,00 %
13.12.2012 19:20 10,1 C 0,1 C -23,2 C -2,1 C 0,0 C 83 % 0 % 0 lf 1005,6 hPa 0,0 l/m 0 min 0 min 0,000 mm 0,0 UV-I 0 W/m 21,1 km/h (4 Bft) 0,00 %
13.12.2012 19:22 10,1 C 0,1 C -23,2 C -2,1 C 0,0 C 83 % 0 % 0 lf 1005,6 hPa 0,0 l/m 0 min 0 min 0,000 mm 0,0 UV-I 0 W/m 13,0 km/h (3 Bft) 0,00 %
13.12.2012 19:24 10,1 C 0,2 C -23,2 C -2,1 C 0,0 C 83 % 0 % 0 lf 1005,6 hPa 0,0 l/m 0 min 0 min 0,000 mm 0,0 UV-I 0 W/m 9,0 km/h (2 Bft) 0,00 %
13.12.2012 19:26 10,1 C 0,2 C -23,2 C -2,1 C 0,0 C 83 % 0 % 0 lf 1005,6 hPa 0,0 l/m 0 min 0 min 0,000 mm 0,0 UV-I 0 W/m 9,0 km/h (2 Bft) 0,00 %
13.12.2012 19:28 10,1 C 0,3 C -23,2 C -2,1 C 0,0 C 82 % 0 % 0 lf 1005,6 hPa 0,0 l/m 0 min 0 min 0,000 mm 0,0 UV-I 0 W/m 30,1 km/h (5 Bft) 0,00 %
13.12.2012 19:30 10,1 C 0,3 C -23,2 C -2,1 C 0,0 C 82 % 0 % 0 lf 1005,6 hPa 0,0 l/m 0 min 0 min 0,000 mm 0,0 UV-I 0 W/m 28,6 km/h (4 Bft) 0,00 %
13.12.2012 19:32 10,1 C 0,3 C -23,2 C -2,1 C 0,0 C 82 % 0 % 0 lf 1005,6 hPa 0,0 l/m 0 min 0 min 0,000 mm 0,0 UV-I 0 W/m 21,6 km/h (4 Bft) 0,00 %
13.12.2012 19:34 10,1 C 0,3 C -23,2 C -2,1 C 0,0 C 83 % 0 % 0 lf 1005,6 hPa 0,0 l/m 0 min 0 min 0,000 mm 0,0 UV-I 0 W/m 18,1 km/h (3 Bft) 0,00 %
13.12.2012 19:36 10,2 C 0,3 C -23,2 C -2,1 C 0,0 C 82 % 0 % 0 lf 1005,6 hPa 0,0 l/m 0 min 0 min 0,000 mm 0,0 UV-I 0 W/m 14,5 km/h (3 Bft) 0,00 %
13.12.2012 19:38 10,1 C 0,3 C -23,2 C -2,1 C 0,0 C 82 % 0 % 0 lf 1005,7 hPa 0,0 l/m 0 min 0 min 0,000 mm 0,0 UV-I 0 W/m 33,1 km/h (5 Bft) 0,00 %
13.12.2012 19:40 10,1 C 0,3 C -23,2 C -2,1 C 0,0 C 83 % 0 % 0 lf 1005,7 hPa 0,0 l/m 0 min 0 min 0,000 mm 0,0 UV-I 0 W/m 21,6 km/h (4 Bft) 0,00 %
13.12.2012 19:42 10,2 C 0,3 C -23,2 C -1,9 C 0,0 C 82 % 0 % 0 lf 1005,7 hPa 0,0 l/m 0 min 0 min 0,000 mm 0,0 UV-I 0 W/m 21,6 km/h (4 Bft) 0,00 %
13.12.2012 19:44 10,1 C 0,3 C -23,2 C -2,1 C 0,0 C 83 % 0 % 0 lf 1005,7 hPa 0,0 l/m 0 min 0 min 0,000 mm 0,0 UV-I 0 W/m 18,1 km/h (3 Bft) 0,00 %
13.12.2012 19:46 10,1 C 0,3 C -23,2 C -2,1 C 0,0 C 83 % 0 % 0 lf 1005,7 hPa 0,0 l/m 0 min 0 min 0,000 mm 0,0 UV-I 0 W/m 17,6 km/h (3 Bft) 0,00 %
13.12.2012 19:48 10,1 C 0,3 C -23,2 C -2,1 C 0,0 C 83 % 0 % 0 lf 1005,7 hPa 0,0 l/m 0 min 0 min 0,000 mm 0,0 UV-I 0 W/m 43,1 km/h (6 Bft) 0,00 %
13.12.2012 19:50 10,1 C 0,2 C -23,2 C -2,1 C 0,0 C 83 % 0 % 0 lf 1005,7 hPa 0,0 l/m 0 min 0 min 0,000 mm 0,0 UV-I 0 W/m 20,1 km/h (4 Bft) 0,00 %
13.12.2012 19:52 10,1 C 0,2 C -23,2 C -2,1 C 0,0 C 83 % 0 % 0 lf 1005,7 hPa 0,0 l/m 0 min 0 min 0,000 mm 0,0 UV-I 0 W/m 22,1 km/h (4 Bft) 0,00 %
13.12.2012 19:54 10,1 C 0,3 C -23,2 C -2,2 C 0,0 C 83 % 0 % 0 lf 1005,7 hPa 0,0 l/m 0 min 0 min 0,000 mm 0,0 UV-I 0 W/m 22,1 km/h (4 Bft) 0,00 %
13.12.2012 19:56 10,2 C 0,3 C -23,2 C -2,1 C 0,0 C 83 % 0 % 0 lf 1005,7 hPa 0,0 l/m 0 min 0 min 0,000 mm 0,0 UV-I 0 W/m 23,1 km/h (4 Bft) 0,00 %
13.12.2012 19:58 10,1 C 0,2 C -23,2 C -2,3 C 0,0 C 83 % 0 % 0 lf 1005,6 hPa 0,0 l/m 0 min 0 min 0,000 mm 0,0 UV-I 0 W/m 23,1 km/h (4 Bft) 0,00 %
13.12.2012 20:00 10,2 C 0,3 C -23,2 C -2,4 C 0,0 C 83 % 0 % 0 lf 1005,6 hPa 0,0 l/m 0 min 0 min 0,000 mm 0,0 UV-I 0 W/m 16,6 km/h (3 Bft) 0,00 %
13.12.2012 20:02 10,2 C 0,3 C -23,2 C -2,5 C 0,0 C 83 % 0 % 0 lf 1005,6 hPa 0,0 l/m 0 min 0 min 0,000 mm 0,0 UV-I 0 W/m 18,1 km/h (3 Bft) 0,00 %
13.12.2012 20:04 10,2 C 0,3 C -23,2 C -2,5 C 0,0 C 83 % 0 % 0 lf 1005,6 hPa 0,0 l/m 0 min 0 min 0,000 mm 0,0 UV-I 0 W/m 14,0 km/h (3 Bft) 0,00 %
13.12.2012 20:06 10,2 C 0,3 C -23,2 C -2,8 C 0,0 C 83 % 0 % 0 lf 1005,6 hPa 0,0 l/m 0 min 0 min 0,000 mm 0,0 UV-I 0 W/m 26,6 km/h (4 Bft) 0,00 %
13.12.2012 20:08 10,1 C 0,3 C -23,2 C -2,9 C 0,0 C 83 % 0 % 0 lf 1005,6 hPa 0,0 l/m 0 min 0 min 0,000 mm 0,0 UV-I 0 W/m 13,0 km/h (3 Bft) 0,00 %
13.12.2012 20:10 10,2 C 0,3 C -23,2 C -2,9 C 0,0 C 83 % 0 % 0 lf 1005,6 hPa 0,0 l/m 0 min 0 min 0,000 mm 0,0 UV-I 0 W/m 13,0 km/h (3 Bft) 0,00 %
13.12.2012 20:12 10,2 C 0,3 C -23,2 C -2,9 C 0,0 C 83 % 0 % 0 lf 1005,6 hPa 0,0 l/m 0 min 0 min 0,000 mm 0,0 UV-I 0 W/m 16,6 km/h (3 Bft) 0,00 %
13.12.2012 20:14 10,1 C 0,3 C -23,2 C -3,1 C 0,0 C 83 % 0 % 0 lf 1005,6 hPa 0,0 l/m 0 min 0 min 0,000 mm 0,0 UV-I 0 W/m 10,0 km/h (2 Bft) 0,00 %
13.12.2012 20:16 10,2 C 0,3 C -23,2 C -3,1 C 0,0 C 83 % 0 % 0 lf 1005,6 hPa 0,0 l/m 0 min 0 min 0,000 mm 0,0 UV-I 0 W/m 18,1 km/h (3 Bft) 0,00 %
13.12.2012 20:18 10,2 C 0,3 C -23,2 C -3,2 C 0,0 C 83 % 0 % 0 lf 1005,4 hPa 0,0 l/m 0 min 0 min 0,000 mm 0,0 UV-I 0 W/m 21,1 km/h (4 Bft) 0,00 %
13.12.2012 20:20 10,2 C 0,3 C -23,2 C -3,2 C 0,0 C 83 % 0 % 0 lf 1005,4 hPa 0,0 l/m 0 min 0 min 0,000 mm 0,0 UV-I 0 W/m 24,1 km/h (4 Bft) 0,00 %
13.12.2012 20:22 10,2 C 0,3 C -23,2 C -3,1 C 0,0 C 83 % 0 % 0 lf 1005,4 hPa 0,0 l/m 0 min 0 min 0,000 mm 0,0 UV-I 0 W/m 24,1 km/h (4 Bft) 0,00 %
13.12.2012 20:24 10,1 C 0,3 C -23,2 C -3,3 C 0,0 C 83 % 0 % 0 lf 1005,4 hPa 0,0 l/m 0 min 0 min 0,000 mm 0,0 UV-I 0 W/m 24,1 km/h (4 Bft) 0,00 %
13.12.2012 20:26 10,2 C 0,3 C 28,5 C -3,3 C 0,0 C 83 % 0 % 0 lf 1005,4 hPa 0,0 l/m 0 min 0 min 0,000 mm 0,0 UV-I 0 W/m 17,6 km/h (3 Bft) 0,00 %
13.12.2012 20:28 10,2 C 0,3 C -23,2 C -3,3 C 0,0 C 83 % 0 % 0 lf 1005,4 hPa 0,0 l/m 0 min 0 min 0,000 mm 0,0 UV-I 0 W/m 10,5 km/h (2 Bft) 0,00 %
13.12.2012 20:30 10,1 C 0,3 C -23,2 C -3,3 C 0,0 C 83 % 0 % 0 lf 1005,4 hPa 0,0 l/m 0 min 0 min 0,000 mm 0,0 UV-I 0 W/m 20,1 km/h (4 Bft) 0,00 %
13.12.2012 20:32 10,1 C 0,3 C -23,2 C -3,3 C 0,0 C 83 % 0 % 0 lf 1005,4 hPa 0,0 l/m 0 min 0 min 0,000 mm 0,0 UV-I 0 W/m 10,5 km/h (2 Bft) 0,00 %
13.12.2012 20:34 10,1 C 0,3 C -23,2 C -3,1 C 0,0 C 83 % 0 % 0 lf 1005,4 hPa 0,0 l/m 0 min 0 min 0,000 mm 0,0 UV-I 0 W/m 19,6 km/h (3 Bft) 0,00 %
13.12.2012 20:36 10,2 C 0,3 C -23,2 C -3,1 C 0,0 C 83 % 0 % 0 lf 1005,4 hPa 0,0 l/m 0 min 0 min 0,000 mm 0,0 UV-I 0 W/m 28,6 km/h (4 Bft) 0,00 %
13.12.2012 20:38 10,1 C 0,3 C -23,2 C -3,2 C 0,0 C 83 % 0 % 0 lf 1005,2 hPa 0,0 l/m 0 min 0 min 0,000 mm 0,0 UV-I 0 W/m 26,6 km/h (4 Bft) 0,00 %
13.12.2012 20:40 10,1 C 0,3 C 28,5 C -3,2 C 0,0 C 83 % 0 % 0 lf 1005,2 hPa 0,0 l/m 0 min 0 min 0,000 mm 0,0 UV-I 0 W/m 18,1 km/h (3 Bft) 0,00 %
13.12.2012 20:42 10,2 C 0,3 C -23,2 C -3,2 C 0,0 C 83 % 0 % 0 lf 1005,2 hPa 0,0 l/m 0 min 0 min 0,000 mm 0,0 UV-I 0 W/m 16,0 km/h (3 Bft) 0,00 %
13.12.2012 20:44 10,2 C 0,3 C -23,2 C -3,2 C 0,0 C 83 % 0 % 0 lf 1005,2 hPa 0,0 l/m 0 min 0 min 0,000 mm 0,0 UV-I 0 W/m 17,1 km/h (3 Bft) 0,00 %
13.12.2012 20:46 10,2 C 0,4 C -23,2 C -3,1 C 0,0 C 83 % 0 % 0 lf 1005,2 hPa 0,0 l/m 0 min 0 min 0,000 mm 0,0 UV-I 0 W/m 17,1 km/h (3 Bft) 0,00 %
13.12.2012 20:48 10,2 C 0,4 C -23,2 C -3,1 C 0,0 C 84 % 0 % 0 lf 1005,2 hPa 0,0 l/m 0 min 0 min 0,000 mm 0,0 UV-I 0 W/m 17,6 km/h (3 Bft) 0,00 %
13.12.2012 20:50 10,2 C 0,4 C 28,5 C -3,1 C 0,0 C 84 % 0 % 0 lf 1005,2 hPa 0,0 l/m 0 min 0 min 0,000 mm 0,0 UV-I 0 W/m 17,6 km/h (3 Bft) 0,00 %
13.12.2012 20:52 10,2 C 0,4 C 28,5 C -3,1 C 0,0 C 84 % 0 % 0 lf 1005,2 hPa 0,0 l/m 0 min 0 min 0,000 mm 0,0 UV-I 0 W/m 17,1 km/h (3 Bft) 0,00 %
13.12.2012 20:54 10,1 C 0,4 C -23,1 C -3,1 C 0,0 C 84 % 0 % 0 lf 1005,2 hPa 0,0 l/m 0 min 0 min 0,000 mm 0,0 UV-I 0 W/m 17,6 km/h (3 Bft) 0,00 %
13.12.2012 20:56 10,2 C 0,4 C -23,1 C -3,1 C 0,0 C 84 % 0 % 0 lf 1005,2 hPa 0,0 l/m 0 min 0 min 0,000 mm 0,0 UV-I 0 W/m 15,5 km/h (3 Bft) 0,00 %
13.12.2012 20:58 10,2 C 0,4 C 28,5 C -3,1 C 0,0 C 84 % 0 % 0 lf 1005,5 hPa 0,0 l/m 0 min 0 min 0,000 mm 0,0 UV-I 0 W/m 19,6 km/h (3 Bft) 0,00 %
13.12.2012 21:00 10,2 C 0,4 C 28,5 C -3,1 C 0,0 C 84 % 0 % 0 lf 1005,5 hPa 0,0 l/m 0 min 0 min 0,000 mm 0,0 UV-I 0 W/m 8,5 km/h (2 Bft) 0,00 %
13.12.2012 21:02 10,1 C 0,4 C 28,5 C -3,1 C 0,0 C 84 % 0 % 0 lf 1005,5 hPa 0,0 l/m 0 min 0 min 0,000 mm 0,0 UV-I 0 W/m 18,6 km/h (3 Bft) 0,00 %
13.12.2012 21:04 10,2 C 0,4 C 28,5 C -2,9 C 0,0 C 84 % 0 % 0 lf 1005,5 hPa 0,0 l/m 0 min 0 min 0,000 mm 0,0 UV-I 0 W/m 7,0 km/h (2 Bft) 0,00 %
13.12.2012 21:06 10,2 C 0,5 C 28,5 C -2,9 C 0,0 C 84 % 0 % 0 lf 1005,5 hPa 0,0 l/m 0 min 0 min 0,000 mm 0,0 UV-I 0 W/m 13,0 km/h (3 Bft) 0,00 %
13.12.2012 21:08 10,2 C 0,5 C 28,5 C -2,9 C 0,0 C 84 % 0 % 0 lf 1005,5 hPa 0,0 l/m 0 min 0 min 0,000 mm 0,0 UV-I 0 W/m 12,5 km/h (3 Bft) 0,00 %
13.12.2012 21:10 10,2 C 0,4 C 28,5 C -2,9 C 0,0 C 84 % 0 % 0 lf 1005,5 hPa 0,0 l/m 0 min 0 min 0,000 mm 0,0 UV-I 0 W/m 12,0 km/h (2 Bft) 0,00 %
13.12.2012 21:12 10,2 C 0,4 C -23,0 C -3,1 C 0,0 C 84 % 0 % 0 lf 1005,5 hPa 0,0 l/m 0 min 0 min 0,000 mm 0,0 UV-I 0 W/m 17,1 km/h (3 Bft) 0,00 %
13.12.2012 21:14 10,2 C 0,4 C 28,5 C -2,9 C 0,0 C 85 % 0 % 0 lf 1005,5 hPa 0,0 l/m 0 min 0 min 0,000 mm 0,0 UV-I 0 W/m 19,6 km/h (3 Bft) 0,00 %
13.12.2012 21:16 10,2 C 0,5 C 28,5 C -3,1 C 0,0 C 85 % 0 % 0 lf 1005,5 hPa 0,0 l/m 0 min 0 min 0,000 mm 0,0 UV-I 0 W/m 19,6 km/h (3 Bft) 0,00 %
13.12.2012 21:18 10,2 C 0,5 C -23,0 C -3,1 C 0,0 C 85 % 0 % 0 lf 1005,6 hPa 0,0 l/m 0 min 0 min 0,000 mm 0,0 UV-I 0 W/m 28,1 km/h (4 Bft) 0,00 %
13.12.2012 21:20 10,2 C 0,5 C -23,0 C -3,1 C 0,0 C 85 % 0 % 0 lf 1005,6 hPa 0,0 l/m 0 min 0 min 0,000 mm 0,0 UV-I 0 W/m 14,5 km/h (3 Bft) 0,00 %
13.12.2012 21:22 10,2 C 0,5 C -23,0 C -2,9 C 0,0 C 85 % 0 % 0 lf 1005,6 hPa 0,0 l/m 0 min 0 min 0,000 mm 0,0 UV-I 0 W/m 24,6 km/h (4 Bft) 0,00 %
13.12.2012 21:24 10,2 C 0,4 C 28,5 C -2,9 C 0,0 C 85 % 0 % 0 lf 1005,6 hPa 0,0 l/m 0 min 0 min 0,000 mm 0,0 UV-I 0 W/m 15,5 km/h (3 Bft) 0,00 %
13.12.2012 21:26 10,2 C 0,4 C -23,0 C -2,9 C 0,0 C 85 % 0 % 0 lf 1005,6 hPa 0,0 l/m 0 min 0 min 0,000 mm 0,0 UV-I 0 W/m 10,5 km/h (2 Bft) 0,00 %
13.12.2012 21:28 10,2 C 0,4 C 28,5 C -2,9 C 0,0 C 85 % 0 % 0 lf 1005,6 hPa 0,0 l/m 0 min 0 min 0,000 mm 0,0 UV-I 0 W/m 17,1 km/h (3 Bft) 0,00 %
13.12.2012 21:30 10,2 C 0,4 C -23,0 C -2,9 C 0,0 C 85 % 0 % 0 lf 1005,6 hPa 0,0 l/m 0 min 0 min 0,000 mm 0,0 UV-I 0 W/m 16,0 km/h (3 Bft) 0,00 %
13.12.2012 21:32 10,2 C 0,4 C -23,0 C -2,9 C 0,0 C 85 % 0 % 0 lf 1005,6 hPa 0,0 l/m 0 min 0 min 0,000 mm 0,0 UV-I 0 W/m 16,0 km/h (3 Bft) 0,00 %
13.12.2012 21:34 10,2 C 0,4 C -23,1 C -2,9 C 0,0 C 85 % 0 % 0 lf 1005,6 hPa 0,0 l/m 0 min 0 min 0,000 mm 0,0 UV-I 0 W/m 19,6 km/h (3 Bft) 0,00 %
13.12.2012 21:36 10,2 C 0,4 C -23,1 C -2,9 C 0,0 C 85 % 0 % 0 lf 1005,6 hPa 0,0 l/m 0 min 0 min 0,000 mm 0,0 UV-I 0 W/m 16,0 km/h (3 Bft) 0,00 %
13.12.2012 21:38 10,2 C 0,4 C 28,5 C -3,0 C 0,0 C 85 % 0 % 0 lf 1005,4 hPa 0,0 l/m 0 min 0 min 0,000 mm 0,0 UV-I 0 W/m 13,5 km/h (3 Bft) 0,00 %
13.12.2012 21:40 10,2 C 0,4 C 28,5 C -3,0 C 0,0 C 86 % 0 % 0 lf 1005,4 hPa 0,0 l/m 0 min 0 min 0,000 mm 0,0 UV-I 0 W/m 18,6 km/h (3 Bft) 0,00 %
13.12.2012 21:42 10,2 C 0,4 C -23,1 C -3,0 C 0,0 C 86 % 0 % 0 lf 1005,4 hPa 0,0 l/m 0 min 0 min 0,000 mm 0,0 UV-I 0 W/m 16,0 km/h (3 Bft) 0,00 %
13.12.2012 21:44 10,2 C 0,4 C -23,1 C -3,0 C 0,0 C 86 % 0 % 0 lf 1005,4 hPa 0,0 l/m 0 min 0 min 0,000 mm 0,0 UV-I 0 W/m 14,0 km/h (3 Bft) 0,00 %
13.12.2012 21:46 10,2 C 0,4 C -23,1 C -2,9 C 0,0 C 86 % 0 % 0 lf 1005,4 hPa 0,0 l/m 0 min 0 min 0,000 mm 0,0 UV-I 0 W/m 16,6 km/h (3 Bft) 0,00 %
13.12.2012 21:48 10,2 C 0,4 C 28,5 C -2,9 C 0,0 C 86 % 0 % 0 lf 1005,4 hPa 0,0 l/m 0 min 0 min 0,000 mm 0,0 UV-I 0 W/m 26,1 km/h (4 Bft) 0,00 %
13.12.2012 21:50 10,2 C 0,4 C -23,1 C -2,9 C 0,0 C 86 % 0 % 0 lf 1005,4 hPa 0,0 l/m 0 min 0 min 0,000 mm 0,0 UV-I 0 W/m 14,0 km/h (3 Bft) 0,00 %
13.12.2012 21:52 10,2 C 0,4 C -23,1 C -2,9 C 0,0 C 86 % 0 % 0 lf 1005,4 hPa 0,0 l/m 0 min 0 min 0,000 mm 0,0 UV-I 0 W/m 15,0 km/h (3 Bft) 0,00 %
13.12.2012 21:54 10,2 C 0,5 C -23,2 C -2,9 C 0,0 C 86 % 0 % 0 lf 1005,4 hPa 0,0 l/m 0 min 0 min 0,000 mm 0,0 UV-I 0 W/m 17,1 km/h (3 Bft) 0,00 %
13.12.2012 21:56 10,2 C 0,5 C 28,5 C -2,9 C 0,0 C 86 % 0 % 0 lf 1005,4 hPa 0,0 l/m 0 min 0 min 0,000 mm 0,0 UV-I 0 W/m 23,1 km/h (4 Bft) 0,00 %
13.12.2012 21:58 10,2 C 0,4 C -23,1 C -2,7 C 0,0 C 86 % 0 % 0 lf 1005,2 hPa 0,0 l/m 0 min 0 min 0,000 mm 0,0 UV-I 0 W/m 18,6 km/h (3 Bft) 0,00 %
13.12.2012 22:00 10,2 C 0,5 C -23,1 C -2,8 C 0,0 C 86 % 0 % 0 lf 1005,2 hPa 0,0 l/m 0 min 0 min 0,000 mm 0,0 UV-I 0 W/m 17,1 km/h (3 Bft) 0,00 %
13.12.2012 22:02 10,2 C 0,5 C -23,1 C -2,8 C 0,0 C 86 % 0 % 0 lf 1005,2 hPa 0,0 l/m 0 min 0 min 0,000 mm 0,0 UV-I 0 W/m 14,0 km/h (3 Bft) 0,00 %
13.12.2012 22:04 10,2 C 0,5 C -23,2 C -2,7 C 0,0 C 86 % 0 % 0 lf 1005,2 hPa 0,0 l/m 0 min 0 min 0,000 mm 0,0 UV-I 0 W/m 14,5 km/h (3 Bft) 0,00 %
13.12.2012 22:06 10,2 C 0,4 C -23,2 C -2,7 C 0,0 C 86 % 0 % 0 lf 1005,2 hPa 0,0 l/m 0 min 0 min 0,000 mm 0,0 UV-I 0 W/m 16,6 km/h (3 Bft) 0,00 %
13.12.2012 22:08 10,2 C 0,4 C -23,2 C -2,5 C 0,0 C 86 % 0 % 0 lf 1005,2 hPa 0,0 l/m 0 min 0 min 0,000 mm 0,0 UV-I 0 W/m 14,0 km/h (3 Bft) 0,00 %
13.12.2012 22:10 10,1 C 0,4 C -23,2 C -2,7 C 0,0 C 86 % 0 % 0 lf 1005,2 hPa 0,0 l/m 0 min 0 min 0,000 mm 0,0 UV-I 0 W/m 13,0 km/h (3 Bft) 0,00 %
13.12.2012 22:12 10,1 C 0,4 C -23,2 C -2,5 C 0,0 C 86 % 0 % 0 lf 1005,2 hPa 0,0 l/m 0 min 0 min 0,000 mm 0,0 UV-I 0 W/m 16,6 km/h (3 Bft) 0,00 %
13.12.2012 22:14 10,1 C 0,4 C -23,2 C -2,5 C 0,0 C 86 % 0 % 0 lf 1005,2 hPa 0,0 l/m 0 min 0 min 0,000 mm 0,0 UV-I 0 W/m 12,0 km/h (2 Bft) 0,00 %
13.12.2012 22:16 10,1 C 0,4 C -23,2 C -2,6 C 0,0 C 86 % 0 % 0 lf 1005,2 hPa 0,0 l/m 0 min 0 min 0,000 mm 0,0 UV-I 0 W/m 18,1 km/h (3 Bft) 0,00 %
13.12.2012 22:18 10,3 C 0,4 C -23,2 C -2,5 C 0,0 C 86 % 0 % 0 lf 1005,4 hPa 0,0 l/m 0 min 0 min 0,000 mm 0,0 UV-I 0 W/m 18,1 km/h (3 Bft) 0,00 %
13.12.2012 22:20 10,3 C 0,5 C -23,2 C -2,5 C 0,0 C 86 % 0 % 0 lf 1005,4 hPa 0,0 l/m 0 min 0 min 0,000 mm 0,0 UV-I 0 W/m 17,1 km/h (3 Bft) 0,00 %
13.12.2012 22:22 10,1 C 0,5 C -23,2 C -2,5 C 0,0 C 86 % 0 % 0 lf 1005,4 hPa 0,0 l/m 0 min 0 min 0,000 mm 0,0 UV-I 0 W/m 16,6 km/h (3 Bft) 0,00 %
13.12.2012 22:24 10,3 C 0,5 C -23,2 C -2,5 C 0,0 C 86 % 0 % 0 lf 1005,4 hPa 0,0 l/m 0 min 0 min 0,000 mm 0,0 UV-I 0 W/m 15,0 km/h (3 Bft) 0,00 %
13.12.2012 22:26 10,3 C 0,5 C -23,2 C -2,5 C 0,0 C 86 % 0 % 0 lf 1005,4 hPa 0,0 l/m 0 min 0 min 0,000 mm 0,0 UV-I 0 W/m 15,0 km/h (3 Bft) 0,00 %
13.12.2012 22:28 10,3 C 0,5 C -23,2 C -2,5 C 0,0 C 86 % 0 % 0 lf 1005,4 hPa 0,0 l/m 0 min 0 min 0,000 mm 0,0 UV-I 0 W/m 21,1 km/h (4 Bft) 0,00 %
13.12.2012 22:30 10,3 C 0,5 C -23,2 C -2,4 C 0,0 C 86 % 0 % 0 lf 1005,4 hPa 0,0 l/m 0 min 0 min 0,000 mm 0,0 UV-I 0 W/m 15,5 km/h (3 Bft) 0,00 %
13.12.2012 22:32 10,1 C 0,5 C 28,5 C -2,3 C 0,0 C 86 % 0 % 0 lf 1005,4 hPa 0,0 l/m 0 min 0 min 0,000 mm 0,0 UV-I 0 W/m 15,5 km/h (3 Bft) 0,00 %
13.12.2012 22:34 10,3 C 0,5 C -23,2 C -2,3 C 0,0 C 86 % 0 % 0 lf 1005,4 hPa 0,0 l/m 0 min 0 min 0,000 mm 0,0 UV-I 0 W/m 17,1 km/h (3 Bft) 0,00 %
13.12.2012 22:36 10,3 C 0,5 C -23,2 C -2,1 C 0,0 C 86 % 0 % 0 lf 1005,4 hPa 0,0 l/m 0 min 0 min 0,000 mm 0,0 UV-I 0 W/m 17,1 km/h (3 Bft) 0,00 %
13.12.2012 22:38 10,3 C 0,5 C -23,2 C -2,1 C 0,0 C 86 % 0 % 0 lf 1005,1 hPa 0,0 l/m 0 min 0 min 0,000 mm 0,0 UV-I 0 W/m 11,5 km/h (2 Bft) 0,00 %
13.12.2012 22:40 10,3 C 0,6 C -23,2 C -2,1 C 0,0 C 86 % 0 % 0 lf 1005,1 hPa 0,0 l/m 0 min 0 min 0,000 mm 0,0 UV-I 0 W/m 15,0 km/h (3 Bft) 0,00 %
13.12.2012 22:42 10,3 C 0,7 C -23,2 C -2,1 C 0,0 C 86 % 0 % 0 lf 1005,1 hPa 0,0 l/m 0 min 0 min 0,000 mm 0,0 UV-I 0 W/m 15,5 km/h (3 Bft) 0,00 %
13.12.2012 22:44 10,3 C 0,6 C -23,2 C -2,0 C 0,0 C 86 % 0 % 0 lf 1005,1 hPa 0,0 l/m 0 min 0 min 0,000 mm 0,0 UV-I 0 W/m 15,5 km/h (3 Bft) 0,00 %
13.12.2012 22:46 10,3 C 0,6 C -23,2 C -2,0 C 0,0 C 86 % 0 % 0 lf 1005,1 hPa 0,0 l/m 0 min 0 min 0,000 mm 0,0 UV-I 0 W/m 21,1 km/h (4 Bft) 0,00 %
13.12.2012 22:48 10,3 C 0,7 C -23,2 C -1,9 C 0,0 C 86 % 0 % 0 lf 1005,1 hPa 0,0 l/m 0 min 0 min 0,000 mm 0,0 UV-I 0 W/m 21,1 km/h (4 Bft) 0,00 %
13.12.2012 22:50 10,3 C 0,7 C -23,2 C -1,7 C 0,0 C 86 % 0 % 0 lf 1005,1 hPa 0,0 l/m 0 min 0 min 0,000 mm 0,0 UV-I 0 W/m 15,0 km/h (3 Bft) 0,00 %
13.12.2012 22:52 10,3 C 0,7 C -23,2 C -1,7 C 0,0 C 86 % 0 % 0 lf 1005,1 hPa 0,0 l/m 0 min 0 min 0,000 mm 0,0 UV-I 0 W/m 19,1 km/h (3 Bft) 0,00 %
13.12.2012 22:54 10,3 C 0,7 C 28,5 C -1,7 C 0,0 C 86 % 0 % 0 lf 1005,1 hPa 0,0 l/m 0 min 0 min 0,000 mm 0,0 UV-I 0 W/m 13,0 km/h (3 Bft) 0,00 %
13.12.2012 22:56 10,3 C 0,6 C 28,5 C -1,6 C 0,0 C 86 % 0 % 0 lf 1005,1 hPa 0,0 l/m 0 min 0 min 0,000 mm 0,0 UV-I 0 W/m 6,5 km/h (2 Bft) 0,00 %
13.12.2012 22:58 10,3 C 0,7 C 28,5 C -1,5 C 0,0 C 86 % 0 % 0 lf 1005,1 hPa 0,0 l/m 0 min 0 min 0,000 mm 0,0 UV-I 0 W/m 16,6 km/h (3 Bft) 0,00 %
13.12.2012 23:00 10,3 C 0,6 C 28,5 C -1,6 C 0,0 C 86 % 0 % 0 lf 1005,1 hPa 0,0 l/m 0 min 0 min 0,000 mm 0,0 UV-I 0 W/m 12,0 km/h (2 Bft) 0,00 %
13.12.2012 23:02 10,3 C 0,6 C 28,5 C -1,5 C 0,0 C 86 % 0 % 0 lf 1005,1 hPa 0,0 l/m 0 min 0 min 0,000 mm 0,0 UV-I 0 W/m 10,5 km/h (2 Bft) 0,00 %
13.12.2012 23:04 10,3 C 0,6 C -23,1 C -1,5 C 0,0 C 86 % 0 % 0 lf 1005,1 hPa 0,0 l/m 0 min 0 min 0,000 mm 0,0 UV-I 0 W/m 15,5 km/h (3 Bft) 0,00 %
13.12.2012 23:06 10,3 C 0,6 C -23,1 C -1,6 C 0,0 C 86 % 0 % 0 lf 1005,1 hPa 0,0 l/m 0 min 0 min 0,000 mm 0,0 UV-I 0 W/m 12,5 km/h (3 Bft) 0,00 %
13.12.2012 23:08 10,3 C 0,7 C -23,1 C -1,6 C 0,0 C 86 % 0 % 0 lf 1005,1 hPa 0,0 l/m 0 min 0 min 0,000 mm 0,0 UV-I 0 W/m 20,6 km/h (4 Bft) 0,00 %
13.12.2012 23:10 10,3 C 0,7 C -23,1 C -1,6 C 0,0 C 86 % 0 % 0 lf 1005,1 hPa 0,0 l/m 0 min 0 min 0,000 mm 0,0 UV-I 0 W/m 19,6 km/h (3 Bft) 0,00 %
13.12.2012 23:12 10,3 C 0,7 C -23,1 C -1,6 C 0,0 C 86 % 0 % 0 lf 1005,1 hPa 0,0 l/m 0 min 0 min 0,000 mm 0,0 UV-I 0 W/m 19,6 km/h (3 Bft) 0,00 %
13.12.2012 23:14 10,3 C 0,7 C 28,5 C -1,7 C 0,0 C 87 % 0 % 0 lf 1005,1 hPa 0,0 l/m 0 min 0 min 0,000 mm 0,0 UV-I 0 W/m 13,5 km/h (3 Bft) 0,00 %
13.12.2012 23:16 10,3 C 0,7 C -23,1 C -1,7 C 0,0 C 87 % 0 % 0 lf 1005,1 hPa 0,0 l/m 0 min 0 min 0,000 mm 0,0 UV-I 0 W/m 14,0 km/h (3 Bft) 0,00 %
13.12.2012 23:18 10,3 C 0,7 C -23,1 C -1,8 C 0,0 C 87 % 0 % 0 lf 1005,1 hPa 0,0 l/m 0 min 0 min 0,000 mm 0,0 UV-I 0 W/m 13,0 km/h (3 Bft) 0,00 %
13.12.2012 23:20 10,3 C 0,7 C -23,1 C -1,9 C 0,0 C 87 % 0 % 0 lf 1005,1 hPa 0,0 l/m 0 min 0 min 0,000 mm 0,0 UV-I 0 W/m 21,1 km/h (4 Bft) 0,00 %
13.12.2012 23:22 10,3 C 0,7 C -23,1 C -1,9 C 0,0 C 87 % 0 % 0 lf 1005,1 hPa 0,0 l/m 0 min 0 min 0,000 mm 0,0 UV-I 0 W/m 11,0 km/h (2 Bft) 0,00 %
13.12.2012 23:24 10,3 C 0,7 C -23,1 C -2,1 C 0,0 C 87 % 0 % 0 lf 1005,1 hPa 0,0 l/m 0 min 0 min 0,000 mm 0,0 UV-I 0 W/m 11,0 km/h (2 Bft) 0,00 %
13.12.2012 23:26 10,3 C 0,7 C -23,1 C -2,1 C 0,0 C 87 % 0 % 0 lf 1005,1 hPa 0,0 l/m 0 min 0 min 0,000 mm 0,0 UV-I 0 W/m 13,5 km/h (3 Bft) 0,00 %
13.12.2012 23:28 10,3 C 0,6 C 28,5 C -2,1 C 0,0 C 87 % 0 % 0 lf 1005,1 hPa 0,0 l/m 0 min 0 min 0,000 mm 0,0 UV-I 0 W/m 11,0 km/h (2 Bft) 0,00 %
13.12.2012 23:30 10,3 C 0,7 C 28,5 C -2,3 C 0,0 C 87 % 0 % 0 lf 1005,1 hPa 0,0 l/m 0 min 0 min 0,000 mm 0,0 UV-I 0 W/m 0,0 km/h (0 Bft) 0,00 %
13.12.2012 23:32 10,2 C 0,7 C -23,1 C -2,3 C 0,0 C 87 % 0 % 0 lf 1005,1 hPa 0,0 l/m 0 min 0 min 0,000 mm 0,0 UV-I 0 W/m 14,5 km/h (3 Bft) 0,00 %
13.12.2012 23:34 10,2 C 0,6 C -23,1 C -2,3 C 0,0 C 87 % 0 % 0 lf 1005,1 hPa 0,0 l/m 0 min 0 min 0,000 mm 0,0 UV-I 0 W/m 13,0 km/h (3 Bft) 0,00 %
13.12.2012 23:36 10,2 C 0,7 C -23,1 C -2,5 C 0,0 C 87 % 0 % 0 lf 1005,1 hPa 0,0 l/m 0 min 0 min 0,000 mm 0,0 UV-I 0 W/m 12,0 km/h (2 Bft) 0,00 %
13.12.2012 23:38 10,4 C 0,7 C -23,1 C -2,5 C 0,0 C 88 % 0 % 0 lf 1004,9 hPa 0,0 l/m 0 min 0 min 0,000 mm 0,0 UV-I 0 W/m 12,5 km/h (3 Bft) 0,00 %
13.12.2012 23:40 10,2 C 0,7 C -23,1 C -2,5 C 0,0 C 88 % 0 % 0 lf 1004,9 hPa 0,0 l/m 0 min 0 min 0,000 mm 0,0 UV-I 0 W/m 10,5 km/h (2 Bft) 0,00 %
13.12.2012 23:42 10,2 C 0,7 C -23,1 C -2,5 C 0,0 C 88 % 0 % 0 lf 1004,9 hPa 0,0 l/m 0 min 0 min 0,000 mm 0,0 UV-I 0 W/m 10,5 km/h (2 Bft) 0,00 %
13.12.2012 23:44 10,4 C 0,7 C -23,2 C -2,5 C 0,0 C 88 % 0 % 0 lf 1004,9 hPa 0,0 l/m 0 min 0 min 0,000 mm 0,0 UV-I 0 W/m 13,0 km/h (3 Bft) 0,00 %
13.12.2012 23:46 10,2 C 0,7 C 28,5 C -2,5 C 0,0 C 88 % 0 % 0 lf 1004,9 hPa 0,0 l/m 0 min 0 min 0,000 mm 0,0 UV-I 0 W/m 18,1 km/h (3 Bft) 0,00 %
13.12.2012 23:48 10,4 C 0,7 C -23,2 C -2,5 C 0,0 C 88 % 0 % 0 lf 1004,9 hPa 0,0 l/m 0 min 0 min 0,000 mm 0,0 UV-I 0 W/m 18,1 km/h (3 Bft) 0,00 %
13.12.2012 23:50 10,4 C 0,7 C 28,5 C -2,5 C 0,0 C 88 % 0 % 0 lf 1004,9 hPa 0,0 l/m 0 min 0 min 0,000 mm 0,0 UV-I 0 W/m 12,0 km/h (2 Bft) 0,00 %
13.12.2012 23:52 10,4 C 0,7 C -23,2 C -2,5 C 0,0 C 88 % 0 % 0 lf 1004,9 hPa 0,0 l/m 0 min 0 min 0,000 mm 0,0 UV-I 0 W/m 17,1 km/h (3 Bft) 0,00 %
13.12.2012 23:54 10,4 C 0,7 C -23,2 C -2,5 C 0,0 C 88 % 0 % 0 lf 1004,9 hPa 0,0 l/m 0 min 0 min 0,000 mm 0,0 UV-I 0 W/m 17,1 km/h (3 Bft) 0,00 %
13.12.2012 23:56 10,4 C 0,7 C -23,2 C -2,5 C 0,0 C 88 % 0 % 0 lf 1004,9 hPa 0,0 l/m 0 min 0 min 0,000 mm 0,0 UV-I 0 W/m 18,6 km/h (3 Bft) 0,00 %
13.12.2012 23:58 10,4 C 0,7 C -23,2 C -2,5 C 0,0 C 88 % 0 % 0 lf 1004,9 hPa 0,0 l/m 0 min 0 min 0,000 mm 0,0 UV-I 0 W/m 18,6 km/h (3 Bft) 0,00 %
_ Min-Zeit 09:06 01:24 00:00 00:06 00:00 12:36 00:00 00:00 23:38 - - - - - - 00:16 00:00
Minimum _ 9,8 C -2,3 C -23,4 C -5,2 C 0,0 C 74 % 0 % 0 lf 1004,9 hPa - - - - - - 0,0 km/h (0 Bft) 0,00 %
_ Max-Zeit 13:56 15:12 17:54 13:28 11:48 03:46 00:00 00:00 00:00 00:00 00:00 00:00 00:00 11:48 00:00 19:48 00:00
Maximum _ 10,5 C 0,7 C 28,5 C -1,5 C 0,2 C 89 % 0 % 0 lf 1016,2 hPa 0,0 l/m 0 min 0 min 0,000 mm 0,2 UV-I 0 W/m 43,1 km/h
O-SO (6 Bft)
0,00 %
Durchschnitt _ 10,2 C -0,8 C -20,7 C -3,3 C 0,0 C 82 % 0 % 0 lf 1009,3 hPa #0,0 l/m #0 min. #0 min. #0,000 mm 0,1 UV-I 0 W/m 12,9 km/h (3 Bft) 0,00 %
© 2012 W. Hausmann